[[{"header":{"parameterUnit":"m.s-1","parameterCategory":1,"la1":30.6,"la2":28.766,"lo1":-90.7593,"lo2":-88.6598,"dy":0.0162,"dx":0.0183,"nx":116,"ny":114,"refTime":"2023-03-26T12:00:00:Z","depth":0,"parameterNumber":2,"parameterNumberName":"U-component_of_WINDS"},"data":[0.0,0.0,0.0,0.0,0.0,0.0,0.0,0.0,0.0,0.0,0.0,0.0,0.0,0.0,0.0,0.0,0.0,0.0,0.0,0.0,0.0,0.0,0.0,0.0,0.0,0.0,0.0,0.0,0.0,0.0,0.0,0.0,0.0,0.0,0.0,0.0,0.0,0.0,0.0,0.0,0.0,0.0,0.0,0.0,0.0,0.0,0.0,0.0,0.0,0.0,0.0,0.0,0.0,0.0,0.0,0.0,0.0,0.0,0.0,0.0,0.0,0.0,0.0,0.0,0.0,0.0,0.0,0.0,0.0,0.0,0.0,0.0,0.0,0.0,0.0,0.0,0.0,0.0,0.0,0.0,0.0,0.0,0.0,0.0,0.0,0.0,0.0,0.0,0.0,0.0,0.0,0.0,0.0,0.0,0.0,0.0,0.0,0.0,0.0,0.0,0.0,0.0,0.0,0.0,0.0,0.0,0.0,0.0,0.0,0.0,0.0,0.0,0.0,0.0,0.0,0.0,0.0,0.0,0.0,0.0,0.0,0.0,0.0,0.0,0.0,0.0,0.0,0.0,0.0,0.0,0.0,0.0,0.0,0.0,0.0,0.0,0.0,0.0,0.0,0.0,0.0,0.0,0.0,0.0,0.0,0.0,0.0,0.0,0.0,0.0,0.0,0.0,0.0,0.0,0.0,0.0,0.0,0.0,0.0,0.0,0.0,0.0,0.0,0.0,0.0,0.0,0.0,0.0,0.0,0.0,0.0,0.0,0.0,0.0,0.0,0.0,0.0,0.0,0.0,0.0,0.0,0.0,0.0,0.0,0.0,0.0,0.0,0.0,0.0,0.0,0.0,0.0,0.0,0.0,0.0,0.0,0.0,0.0,0.0,0.0,0.0,0.0,0.0,0.0,0.0,0.0,0.0,0.0,0.0,0.0,0.0,0.0,0.0,0.0,0.0,0.0,0.0,0.0,0.0,0.0,0.0,0.0,0.0,0.0,0.0,0.0,0.0,0.0,0.0,0.0,0.0,0.0,0.0,0.0,0.0,0.0,0.0,0.0,0.0,0.0,0.0,0.0,0.0,0.0,0.0,0.0,0.0,0.0,0.0,0.0,0.0,0.0,0.0,0.0,0.0,0.0,0.0,0.0,0.0,0.0,0.0,0.0,0.0,0.0,0.0,0.0,0.0,0.0,0.0,0.0,0.0,0.0,0.0,0.0,0.0,0.0,0.0,0.0,0.0,0.0,0.0,0.0,0.0,0.0,0.0,0.0,0.0,0.0,0.0,0.0,0.0,0.0,0.0,0.0,0.0,0.0,0.0,0.0,0.0,0.0,0.0,0.0,0.0,0.0,0.0,0.0,0.0,0.0,0.0,0.0,0.0,0.0,0.0,0.0,0.0,0.0,0.0,0.0,0.0,0.0,0.0,0.0,0.0,0.0,0.0,0.0,0.0,0.0,0.0,0.0,0.0,0.0,0.0,0.0,0.0,0.0,0.0,0.0,0.0,0.0,0.0,0.0,0.0,0.0,0.0,0.0,0.0,0.0,0.0,0.0,0.0,0.0,0.0,0.0,0.0,0.0,0.0,0.0,0.0,0.0,0.0,0.0,0.0,0.0,0.0,0.0,0.0,0.0,0.0,0.0,0.0,0.0,0.0,0.0,0.0,0.0,0.0,0.0,0.0,0.0,0.0,0.0,0.0,0.0,0.0,0.0,0.0,0.0,0.0,0.0,0.0,0.0,0.0,0.0,0.0,0.0,0.0,0.0,0.0,0.0,0.0,0.0,0.0,0.0,0.0,0.0,0.0,0.0,0.0,0.0,0.0,0.0,0.0,0.0,0.0,0.0,0.0,0.0,0.0,0.0,0.0,0.0,0.0,0.0,0.0,0.0,0.0,0.0,0.0,0.0,0.0,0.0,0.0,0.0,0.0,0.0,0.0,0.0,0.0,0.0,0.0,0.0,0.0,0.0,0.0,0.0,0.0,0.0,0.0,0.0,0.0,0.0,0.0,0.0,0.0,0.0,0.0,0.0,0.0,0.0,0.0,0.0,0.0,0.0,0.0,0.0,0.0,0.0,0.0,0.0,0.0,0.0,0.0,0.0,0.0,0.0,0.0,0.0,0.0,0.0,0.0,0.0,0.0,0.0,0.0,0.0,0.0,0.0,0.0,0.0,0.0,0.0,0.0,0.0,0.0,0.0,0.0,0.0,0.0,0.0,0.0,0.0,0.0,0.0,0.0,0.0,0.0,0.0,0.0,0.0,0.0,0.0,0.0,0.0,0.0,0.0,0.0,0.0,0.0,0.0,0.0,0.0,0.0,0.0,0.0,0.0,0.0,0.0,0.0,0.0,0.0,0.0,0.0,0.0,0.0,0.0,0.0,0.0,0.0,0.0,0.0,0.0,0.0,0.0,0.0,0.0,0.0,0.0,0.0,0.0,0.0,0.0,0.0,0.0,0.0,0.0,0.0,0.0,0.0,0.0,0.0,0.0,0.0,0.0,0.0,0.0,0.0,0.0,0.0,0.0,0.0,0.0,0.0,0.0,0.0,0.0,0.0,0.0,0.0,0.0,0.0,0.0,0.0,0.0,0.0,0.0,0.0,0.0,0.0,0.0,0.0,0.0,0.0,0.0,0.0,0.0,0.0,0.0,0.0,0.0,0.0,0.0,0.0,0.0,0.0,0.0,0.0,0.0,0.0,0.0,0.0,0.0,0.0,0.0,0.0,0.0,0.0,0.0,0.0,0.0,0.0,0.0,0.0,0.0,0.0,0.0,0.0,0.0,0.0,0.0,0.0,0.0,0.0,0.0,0.0,0.0,0.0,0.0,0.0,0.0,0.0,0.0,0.0,0.0,0.0,0.0,0.0,0.0,0.0,0.0,0.0,0.0,0.0,0.0,0.0,0.0,0.0,0.0,0.0,0.0,0.0,0.0,0.0,0.0,0.0,0.0,0.0,0.0,0.0,0.0,0.0,0.0,0.0,0.0,0.0,0.0,0.0,0.0,0.0,0.0,0.0,0.0,0.0,0.0,0.0,0.0,0.0,0.0,0.0,0.0,0.0,0.0,0.0,0.0,0.0,0.0,0.0,0.0,0.0,0.0,0.0,0.0,0.0,0.0,0.0,0.0,0.0,0.0,0.0,0.0,0.0,0.0,0.0,0.0,0.0,0.0,0.0,0.0,0.0,0.0,0.0,0.0,0.0,0.0,0.0,0.0,0.0,0.0,0.0,0.0,0.0,0.0,0.0,0.0,0.0,0.0,0.0,0.0,0.0,0.0,0.0,0.0,0.0,0.0,0.0,0.0,0.0,0.0,0.0,0.0,0.0,0.0,0.0,0.0,0.0,0.0,0.0,0.0,0.0,0.0,0.0,0.0,0.0,0.0,0.0,0.0,0.0,0.0,0.0,0.0,0.0,0.0,0.0,0.0,0.0,0.0,0.0,0.0,0.0,0.0,0.0,0.0,0.0,0.0,0.0,0.0,0.0,0.0,0.0,0.0,0.0,0.0,0.0,0.0,0.0,0.0,0.0,0.0,0.0,0.0,0.0,0.0,0.0,0.0,0.0,0.0,0.0,0.0,0.0,0.0,0.0,0.0,0.0,0.0,0.0,0.0,0.0,0.0,0.0,0.0,0.0,0.0,0.0,0.0,0.0,0.0,0.0,0.0,0.0,0.0,0.0,0.0,0.0,0.0,0.0,0.0,0.0,0.0,0.0,0.0,0.0,0.0,0.0,0.0,0.0,0.0,0.0,0.0,0.0,0.0,0.0,0.0,0.0,0.0,0.0,0.0,0.0,0.0,0.0,0.0,0.0,0.0,0.0,0.0,0.0,0.0,0.0,0.0,0.0,0.0,0.0,0.0,0.0,0.0,0.0,0.0,0.0,0.0,0.0,0.0,0.0,0.0,0.0,0.0,0.0,0.0,0.0,0.0,0.0,0.0,0.0,0.0,0.0,0.0,0.0,0.0,0.0,0.0,0.0,0.0,0.0,0.0,0.0,0.0,0.0,0.0,0.0,0.0,0.0,0.0,0.0,0.0,0.0,0.0,0.0,0.0,0.0,0.0,0.0,0.0,0.0,0.0,0.0,0.0,0.0,0.0,0.0,0.0,0.0,0.0,0.0,0.0,0.0,0.0,0.0,0.0,0.0,0.0,0.0,0.0,0.0,0.0,0.0,0.0,0.0,0.0,0.0,0.0,0.0,0.0,0.0,0.0,0.0,0.0,0.0,0.0,0.0,0.0,0.0,0.0,0.0,0.0,0.0,0.0,0.0,0.0,0.0,0.0,0.0,0.0,0.0,0.0,0.0,0.0,0.0,0.0,0.0,0.0,0.0,0.0,0.0,0.0,0.0,0.0,0.0,0.0,0.0,0.0,0.0,0.0,0.0,0.0,0.0,0.0,0.0,0.0,0.0,0.0,0.0,0.0,0.0,0.0,0.0,0.0,0.0,0.0,0.0,0.0,0.0,0.0,0.0,0.0,0.0,0.0,0.0,0.0,0.0,0.0,0.0,0.0,0.0,0.0,0.0,0.0,0.0,0.0,0.0,0.0,0.0,0.0,0.0,0.0,0.0,0.0,0.0,0.0,0.0,0.0,0.0,0.0,0.0,0.0,0.0,0.0,0.0,0.0,0.0,0.0,0.0,0.0,0.0,0.0,0.0,0.0,0.0,0.0,0.0,0.0,0.0,0.0,0.0,0.0,0.0,0.0,0.0,0.0,0.0,0.0,0.0,0.0,0.0,0.0,0.0,0.0,0.0,0.0,0.0,0.0,0.0,0.0,0.0,0.0,0.0,0.0,0.0,0.0,0.0,0.0,0.0,0.0,0.0,0.0,0.0,0.0,0.0,0.0,0.0,0.0,0.0,0.0,0.0,0.0,0.0,0.0,0.0,0.0,0.0,0.0,0.0,0.0,0.0,0.0,0.0,0.0,0.0,0.0,0.0,0.0,0.0,0.0,0.0,0.0,0.0,0.0,0.0,0.0,0.0,0.0,0.0,0.0,0.0,0.0,0.0,0.0,0.0,0.0,0.0,0.0,0.0,0.0,0.0,0.0,0.0,0.0,0.0,0.0,0.0,0.0,0.0,0.0,0.0,0.0,0.0,0.0,0.0,0.0,0.0,0.0,0.0,0.0,0.0,0.0,0.0,0.0,0.0,0.0,0.0,0.0,0.0,0.0,0.0,0.0,0.0,0.0,0.0,0.0,0.0,0.0,0.0,0.0,0.0,0.0,0.0,0.0,0.0,0.0,0.0,0.0,0.0,0.0,0.0,0.0,0.0,0.0,0.0,0.0,0.0,0.0,0.0,0.0,0.0,0.0,0.0,0.0,0.0,0.0,0.0,0.0,0.0,0.0,0.0,0.0,0.0,0.0,0.0,0.0,0.0,0.0,0.0,0.0,0.0,0.0,0.0,0.0,0.0,0.0,0.0,0.0,0.0,0.0,0.0,0.0,0.0,0.0,0.0,0.0,0.0,0.0,0.0,0.0,0.0,0.0,0.0,0.0,0.0,0.0,0.0,0.0,0.0,0.0,0.0,0.0,0.0,0.0,0.0,0.0,0.0,0.0,0.0,0.0,0.0,0.0,0.0,0.0,0.0,0.0,0.0,0.0,0.0,0.0,0.0,0.0,0.0,0.0,0.0,0.0,0.0,0.0,0.0,0.0,0.0,0.0,0.0,0.0,0.0,0.0,0.0,0.0,0.0,0.0,0.0,0.0,0.0,0.0,0.0,0.0,0.0,0.0,0.0,0.0,0.0,0.0,0.0,0.0,0.0,0.0,0.0,0.0,0.0,0.0,0.0,0.0,0.0,0.0,0.0,0.0,0.0,0.0,0.0,0.0,0.0,0.0,0.0,0.0,0.0,0.0,0.0,0.0,0.0,0.0,0.0,0.0,0.0,0.0,0.0,0.0,0.0,0.0,0.0,0.0,0.0,0.0,0.0,0.0,0.0,0.0,0.0,0.0,0.0,0.0,0.0,0.0,0.0,0.0,0.0,0.0,0.0,0.0,0.0,0.0,0.0,0.0,0.0,0.0,0.0,0.0,0.0,0.0,0.0,0.0,0.0,0.0,0.0,0.0,0.0,0.0,0.0,0.0,0.0,0.0,-2.514,0.0,0.0,0.0,0.0,0.0,0.0,0.0,0.0,0.0,0.0,0.0,0.0,0.0,0.0,0.0,0.0,0.0,0.0,0.0,0.0,0.0,0.0,0.0,0.0,0.0,0.0,0.0,0.0,0.0,0.0,0.0,0.0,0.0,0.0,0.0,0.0,0.0,0.0,0.0,-0.4794,-0.57,-0.6582,-0.6633,-0.6769,-0.7096,0.0,0.0,0.0,0.0,0.0,0.0,0.0,0.0,0.0,0.0,0.0,0.0,0.0,0.0,0.0,0.0,0.0,0.0,0.0,0.0,0.0,0.0,0.0,0.0,0.0,0.0,0.0,0.0,0.0,0.0,0.0,0.0,0.0,0.0,0.0,0.0,0.0,0.0,0.0,0.0,0.0,0.0,0.0,0.0,0.0,0.0,0.0,0.0,0.0,0.0,0.0,0.0,0.0,0.0,0.0,0.0,0.0,0.0,0.0,0.0,0.0,0.0,0.0,0.0,0.0,0.0,0.0,0.0,0.0,0.0,0.0,-2.6027,0.0,0.0,0.0,0.0,0.0,0.0,0.0,0.0,0.0,0.0,0.0,0.0,0.0,0.0,0.0,0.0,0.0,0.0,0.0,0.0,0.0,0.0,0.0,0.0,0.3646,0.307,0.2266,0.0,0.0,0.0,0.0,0.0,0.0,0.0,0.0,0.0,0.0,-0.4701,-0.5768,-0.6941,-0.8228,-0.8521,-0.8549,-0.8448,-0.8685,0.0,0.0,0.0,0.0,0.0,0.0,0.0,0.0,0.0,0.0,0.0,0.0,0.0,0.0,0.0,0.0,0.0,0.0,0.0,0.0,0.0,0.0,0.0,0.0,0.0,0.0,0.0,0.0,0.0,0.0,0.0,0.0,0.0,0.0,0.0,0.0,0.0,0.0,0.0,0.0,0.0,0.0,0.0,0.0,0.0,0.0,0.0,0.0,0.0,0.0,0.0,0.0,0.0,0.0,0.0,0.0,0.0,0.0,0.0,0.0,0.0,0.0,0.0,-2.8174,-2.8121,-2.8682,-2.789,-2.7819,-2.8307,-2.7727,-2.7395,-2.7275,-2.7051,0.0,0.0,0.0,0.0,0.0,0.0,0.0,0.0,0.0,0.0,0.0,0.0,0.0,0.0,0.0,0.0,0.0,0.0,0.0,0.0,0.0,0.3293,0.2536,0.1647,0.0979,0.0222,0.0,0.0,0.0,0.0,0.0,0.0,0.0,-0.4618,-0.5184,-0.5864,-0.7139,-0.8187,-0.9031,-0.943,-0.9787,-1.016,-0.9673,-0.9704,-1.0051,0.0,0.0,0.0,0.0,0.0,0.0,0.0,0.0,0.0,0.0,0.0,0.0,0.0,0.0,0.0,0.0,0.0,0.0,0.0,0.0,0.0,0.0,0.0,0.0,0.0,0.0,0.0,0.0,0.0,0.0,0.0,0.0,0.0,0.0,0.0,0.0,0.0,0.0,0.0,0.0,0.0,-2.0485,-2.1428,0.0,0.0,0.0,0.0,0.0,0.0,0.0,0.0,0.0,0.0,0.0,0.0,0.0,-2.7915,-2.8686,-2.8644,-2.9016,-2.9772,-2.95,-2.9456,-2.9553,-2.9265,-2.9236,-2.9316,-2.9087,0.0,-2.7951,-2.7936,0.0,0.0,0.0,0.0,0.0,0.0,0.0,0.0,0.0,0.0,0.0,0.0,0.0,0.0,0.0,0.0,0.0,0.0,0.0,0.0,0.0,0.1869,0.1123,0.0184,-0.0691,-0.1533,-0.2373,0.0,0.0,0.0,0.0,0.0,-0.5141,-0.5804,-0.6632,-0.7602,-0.8414,-0.9144,-0.9864,-1.0232,-1.0672,-1.1065,-1.0847,-1.078,-1.0838,-1.0948,0.0,0.0,0.0,0.0,0.0,0.0,0.0,0.0,0.0,0.0,0.0,0.0,0.0,0.0,0.0,0.0,0.0,0.0,0.0,0.0,0.0,0.0,0.0,0.0,0.0,0.0,0.0,0.0,0.0,0.0,0.0,0.0,0.0,0.0,0.0,0.0,0.0,0.0,0.0,-2.0709,-2.144,-2.2378,-2.2528,-2.2725,0.0,0.0,0.0,0.0,0.0,0.0,0.0,0.0,0.0,-2.8288,-2.832,-2.866,-2.9432,-2.9432,-2.9594,-2.9918,-2.977,-2.9891,-3.0261,-3.0151,-3.0338,-3.0671,-3.0631,-3.0386,-2.9972,-2.8998,-2.8309,-2.7872,0.0,0.0,0.0,0.0,-2.6566,-2.6763,0.0,0.0,0.0,0.0,0.0,0.0,0.0,0.0,0.0,0.0,0.0,0.0,0.1337,0.0494,-0.0321,-0.1181,-0.2196,-0.3107,-0.3788,-0.4394,0.0,0.0,0.0,-0.5942,-0.6192,-0.7104,-0.8068,-0.9131,-0.9559,-1.0084,-1.071,-1.1115,-1.1515,-1.1829,-1.213,-1.1966,-1.1528,-1.1528,-1.1628,-1.1819,0.0,0.0,0.0,0.0,0.0,0.0,0.0,0.0,0.0,0.0,0.0,0.0,0.0,0.0,0.0,0.0,0.0,0.0,0.0,0.0,0.0,0.0,0.0,0.0,0.0,0.0,0.0,0.0,0.0,0.0,0.0,0.0,0.0,0.0,0.0,0.0,0.0,-2.18,-2.2323,-2.3267,-2.3331,-2.3546,0.0,0.0,0.0,0.0,0.0,0.0,-2.7009,-2.7582,-2.8236,-2.9049,-2.9065,-2.9405,-3.0134,-3.0134,-3.0231,-3.0453,-3.0332,-3.0529,-3.1013,-3.0972,-3.1234,-3.1696,-3.1656,-3.1646,-3.1483,-2.9943,-2.9279,-2.9155,-2.8308,-2.7966,-2.7859,-2.7255,-2.7242,-2.75,0.0,0.0,0.0,0.0,0.0,0.0,0.0,0.0,0.0,0.0,0.0,0.1073,0.0178,-0.0692,-0.1559,-0.2414,-0.3374,-0.4193,-0.4804,-0.5242,-0.5673,-0.6197,-0.6503,-0.684,-0.7313,-0.8372,-0.923,-0.9938,-1.0464,-1.099,-1.1486,-1.2093,-1.248,-1.2654,-1.3368,-1.3114,-1.2076,-1.2076,-1.2274,-1.2627,-1.2529,0.0,0.0,0.0,0.0,0.0,0.0,0.0,0.0,0.0,0.0,0.0,0.0,0.0,0.0,0.0,0.0,0.0,0.0,0.0,0.0,0.0,0.0,0.0,0.0,0.0,0.0,0.0,0.0,0.0,0.0,0.0,0.0,0.0,0.0,0.0,0.0,0.0,0.0,-2.4047,-2.4325,0.0,0.0,0.0,0.0,-2.7404,-2.7377,-2.7682,-2.8426,-2.8549,-2.8947,-2.9837,-2.9853,-3.015,-3.0862,-3.0833,-3.1218,-3.1898,-3.1892,-3.189,-3.1952,-3.1929,-3.1929,-3.1951,-3.1855,-3.1734,-3.1529,-3.0688,-3.0227,-3.0037,-2.9187,-2.8811,-2.8732,-2.8543,-2.8415,-2.8301,0.0,0.0,0.0,0.0,0.0,0.0,0.0,0.0,0.0,0.1481,0.0558,-0.0329,-0.1202,-0.2538,-0.3529,-0.3959,-0.4782,-0.5542,-0.6148,-0.6467,-0.6813,-0.7101,-0.7467,-0.8063,-0.8919,-0.9589,-1.0213,-1.0822,-1.1199,-1.1619,-1.2036,-1.2633,-1.3077,-1.3394,-1.4041,-1.4123,-1.3836,-1.3568,-1.3568,-1.3755,-1.352,-1.3511,0.0,0.0,0.0,0.0,0.0,0.0,0.0,0.0,0.0,0.0,0.0,0.0,0.0,0.0,0.0,0.0,0.0,0.0,0.0,0.0,0.0,0.0,0.0,0.0,0.0,0.0,0.0,0.0,0.0,0.0,0.0,0.0,0.0,0.0,0.0,0.0,0.0,-2.4981,-2.5432,0.0,-2.6636,-2.7009,-2.7324,-2.7664,-2.8059,-2.843,-2.8715,-2.9211,-2.9837,-3.0522,-3.0644,-3.0985,-3.1607,-3.1623,-3.1753,-3.2012,-3.199,-3.2248,-3.2689,-3.2689,-3.2937,-3.3371,-3.3306,-3.3249,-3.3112,-3.2238,-3.1483,-3.0757,-2.994,-2.9845,-3.0172,-2.999,-2.984,-2.979,0.0,0.0,0.0,0.0,0.0,0.0,0.0,0.0,0.1626,0.0511,-0.0424,-0.1343,-0.2309,-0.363,-0.4649,-0.5112,-0.5811,-0.6443,-0.702,-0.7311,-0.7659,-0.7941,-0.8476,-0.9152,-0.9976,-1.0446,-1.1015,-1.1578,-1.2004,-1.2419,-1.2779,-1.3559,-1.4031,-1.4355,-1.5022,-1.5388,-1.5442,-1.527,-1.5032,-1.4726,-1.4317,-1.4293,-1.4401,0.0,0.0,0.0,0.0,0.0,0.0,0.0,0.0,0.0,0.0,0.0,0.0,0.0,0.0,0.0,0.0,0.0,0.0,0.0,0.0,0.0,0.0,0.0,0.0,0.0,0.0,0.0,0.0,0.0,0.0,0.0,0.0,0.0,0.0,0.0,-2.4782,-2.5438,-2.606,-2.6591,-2.7008,-2.7632,-2.8149,-2.8417,-2.8871,-2.9146,-2.9146,-2.987,-3.047,-3.0865,-3.1261,-3.1778,-3.2368,-3.2367,-3.2497,-3.2708,-3.2707,-3.2982,-3.3454,-3.3428,-3.3693,-3.4101,-3.4101,-3.4066,-3.3882,-3.3058,-3.239,-3.1829,-3.0791,-3.0665,-3.1042,-3.0791,-3.0705,-3.0654,0.0,0.0,0.0,0.0,0.0,0.0,0.0,0.1389,0.0537,-0.0403,-0.1112,-0.1991,-0.3178,-0.4006,-0.4811,-0.5756,-0.6362,-0.6918,-0.7289,-0.7676,-0.8109,-0.8626,-0.9399,-1.0028,-1.0403,-1.1015,-1.1578,-1.2144,-1.2947,-1.3445,-1.377,-1.4978,-1.5516,-1.5591,-1.6437,-1.6818,-1.6864,-1.7134,-1.6613,-1.5579,-1.4974,-1.4941,-1.5143,0.0,0.0,0.0,0.0,0.0,0.0,0.0,0.0,0.0,0.0,0.0,0.0,0.0,0.0,0.0,0.0,0.0,0.0,0.0,0.0,0.0,0.0,0.0,0.0,0.0,0.0,0.0,0.0,0.0,0.0,0.0,0.0,0.0,-2.41,-2.484,-2.5365,-2.541,-2.6202,-2.7025,-2.7672,-2.8385,-2.9113,-2.9886,-2.9951,-2.9951,-2.9983,-3.0587,-3.0959,-3.0992,-3.1811,-3.2526,-3.3113,-3.3176,-3.3518,-3.4101,-3.4101,-3.4101,-3.4101,-3.4101,-3.4101,-3.4101,-3.4101,-3.3931,-3.369,-3.299,-3.2934,-3.3166,-3.1792,-3.1255,-3.1221,-3.1105,-3.0955,-3.0803,0.0,0.0,0.0,0.0,0.0,0.0,0.0,0.0403,-0.0271,-0.0979,-0.208,-0.3059,-0.3777,-0.4595,-0.5436,-0.6381,-0.6934,-0.7408,-0.7735,-0.8156,-0.8679,-0.9302,-1.0035,-1.0659,-1.1065,-1.1628,-1.2214,-1.2966,-1.3539,-1.4073,-1.4655,-1.5572,-1.6116,-1.6353,-1.7104,-1.7534,-1.7634,-1.7799,-1.7804,-1.7668,-1.6748,-1.6546,-1.6672,0.0,0.0,0.0,0.0,0.0,0.0,0.0,0.0,0.0,0.0,0.0,0.0,0.0,0.0,0.0,0.0,0.0,0.0,0.0,0.0,0.0,0.0,0.0,0.0,0.0,0.0,0.0,0.0,0.0,0.0,0.0,0.0,-2.4736,-2.493,-2.5637,-2.6205,-2.6354,-2.7462,-2.8288,-2.8482,-2.9215,-2.9989,-3.0721,-3.0859,-3.1132,-3.1655,-3.1883,-3.218,-3.2575,-3.2787,-3.3258,-3.3956,-3.3989,-3.4071,-3.4248,-3.4248,-3.4216,-3.4101,-3.4101,-3.4101,-3.4101,-3.4101,-3.4016,-3.3813,-3.3553,-3.3431,-3.3371,-3.238,-3.2282,-3.2672,-3.2478,-3.2198,-3.1952,0.0,0.0,0.0,0.0,0.0,0.0,0.0,-0.0313,-0.0947,-0.1943,-0.2865,-0.3661,-0.4375,-0.5193,-0.6023,-0.6902,-0.7348,-0.7682,-0.7942,-0.8494,-0.916,-0.9925,-1.0608,-1.1175,-1.1628,-1.2107,-1.2809,-1.3649,-1.4287,-1.4987,-1.5669,-1.6461,-1.695,-1.7274,-1.7838,-1.8139,-1.829,-1.841,-1.8667,-1.8857,-1.8231,-1.788,-1.7627,-1.674,-1.6622,-1.6835,-1.6445,-1.6386,-1.647,-1.638,0.0,0.0,0.0,0.0,0.0,0.0,0.0,0.0,0.0,0.0,0.0,0.0,0.0,0.0,0.0,0.0,0.0,0.0,0.0,0.0,0.0,0.0,0.0,0.0,-2.5084,-2.5664,-2.6142,-2.635,-2.6647,-2.7089,-2.8151,-2.889,-2.889,-2.9609,-3.0413,-3.1148,-3.1242,-3.1597,-3.2335,-3.2613,-3.2894,-3.3288,-3.3583,-3.3941,-3.4364,-3.4448,-3.4431,-3.4382,-3.4314,-3.4282,-3.4184,-3.4151,-3.4101,0.0,-3.405,-3.3949,-3.3829,-3.3962,-3.3773,0.0,0.0,0.0,0.0,0.0,-3.2718,-3.2453,0.0,0.0,0.0,0.0,0.0,0.0,0.0,-0.0805,-0.1567,-0.2912,-0.3378,-0.3922,-0.4849,-0.5661,-0.6479,-0.723,-0.7587,-0.7896,-0.8213,-0.887,-0.9615,-1.0438,-1.1065,-1.1628,-1.2166,-1.2638,-1.3352,-1.4276,-1.5088,-1.5931,-1.6795,-1.7499,-1.7963,-1.8255,-1.8548,-1.8774,-1.8893,-1.904,-1.9251,-1.9473,-1.9473,-1.9074,-1.8333,-1.7398,-1.7419,-1.7883,-1.7501,-1.7446,-1.7517,-1.7708,0.0,0.0,0.0,0.0,0.0,0.0,0.0,0.0,0.0,0.0,0.0,0.0,0.0,0.0,0.0,0.0,0.0,0.0,0.0,0.0,0.0,0.0,0.0,0.0,-2.6059,-2.6525,-2.7406,-2.7097,-2.7001,-2.7753,-2.8582,-2.9121,-2.9121,-2.9802,-3.0576,-3.138,-3.1462,-3.1806,-3.2626,0.0,0.0,0.0,0.0,-3.4495,-3.4497,-3.4658,-3.464,-3.4529,-3.4365,-3.4364,-3.4431,-3.4314,-3.4214,-3.423,-3.421,-3.4057,-3.387,-3.4431,-3.4191,-3.353,-3.3356,-3.3309,-3.3256,-3.3005,-3.2773,-3.2578,0.0,0.0,0.0,0.0,0.0,0.0,0.0,-0.1614,-0.2288,-0.2868,-0.3353,-0.4018,-0.4963,-0.571,-0.6462,-0.7374,-0.7692,-0.8208,-0.9111,-0.9791,-1.0426,-1.1116,-1.1669,-1.2166,-1.2677,-1.317,-1.4063,-1.5408,-1.5862,-1.671,-1.7793,-1.8232,-1.8602,-1.9016,-1.9146,-1.9356,-1.9604,-1.9656,-1.9811,-2.0029,-2.0029,-1.9902,-1.956,-1.8943,-1.8913,-1.9144,-1.8673,-1.8319,-1.8162,-1.8222,-1.8009,-1.7747,-1.7788,0.0,0.0,0.0,0.0,0.0,0.0,0.0,0.0,0.0,0.0,0.0,0.0,0.0,0.0,0.0,0.0,0.0,0.0,0.0,0.0,-2.5825,-2.6238,-2.6888,-2.8201,-2.8366,-2.8417,-2.8563,-2.9296,-2.9821,-2.9821,-3.0166,-3.0902,-3.2159,-3.2258,-3.2879,-3.4355,-3.4299,-3.4332,-3.4414,-3.4464,-3.4579,-3.4677,-3.4708,-3.4707,-3.4659,0.0,0.0,-3.5163,-3.5078,-3.4975,-3.5007,-3.5623,-3.5437,-3.4764,-3.5326,-3.5315,-3.4873,-3.3735,-3.3256,-3.3096,-3.2951,-3.2773,-3.2578,0.0,0.0,0.0,0.0,0.0,0.0,0.0,-0.2061,-0.2551,-0.317,-0.3764,-0.4425,-0.5225,-0.5963,-0.6662,-0.7363,-0.7876,-0.8652,-0.9671,-1.0213,-1.0857,-1.1692,-1.2255,-1.2783,-1.3266,-1.3752,-1.4698,-1.612,-1.6473,-1.7396,-1.8643,-1.8869,-1.9198,-1.9617,-1.972,-1.9926,-2.0105,-2.0156,-2.0372,-2.0586,-2.0586,-2.0673,-2.0743,-1.9969,-1.9943,-2.0272,-1.9834,-1.9619,-1.9472,-1.9249,-1.8932,-1.8604,-1.8726,-1.8887,-1.9072,0.0,0.0,0.0,0.0,0.0,0.0,0.0,0.0,0.0,0.0,0.0,0.0,0.0,0.0,-2.4492,0.0,0.0,-2.5932,-2.6978,-2.7364,-2.7901,-2.8989,-2.9281,-2.9367,-2.9367,-2.9805,-3.006,-3.0017,-3.0274,-3.0995,-3.2385,-3.2545,-3.328,-3.4816,-3.4706,-3.4658,-3.482,-3.4658,-3.4675,-3.4822,-3.4789,-3.4772,-3.4724,-3.453,-3.4611,-3.4854,-3.511,-3.5185,-3.5218,-3.5877,-3.5884,-3.5508,-3.5662,-3.5752,-3.5805,-3.4762,-3.4022,-3.3537,-3.3826,-3.351,-3.3023,0.0,0.0,0.0,0.0,0.0,0.0,0.0,0.0,-0.2768,-0.3565,-0.4209,-0.4868,-0.5472,-0.6238,-0.6913,-0.7433,-0.8242,-0.9125,-1.0074,-1.0582,-1.1278,-1.2267,-1.2959,-1.3542,-1.4042,-1.4555,-1.5471,-1.6834,-1.7196,-1.8061,-1.9331,-1.946,-1.9733,-2.0131,-2.0233,-2.0372,-2.0573,-2.0673,-2.0871,-2.1131,-2.1131,-2.1375,-2.1561,-2.0894,-2.086,-2.1175,-2.0975,-2.0854,-2.0767,-2.0249,-1.9851,-1.9585,-1.9636,-1.9841,-2.0076,-2.0277,-2.0931,0.0,0.0,0.0,0.0,0.0,0.0,0.0,0.0,0.0,-2.4163,-2.4318,-2.495,-2.5615,-2.6186,-2.6379,-2.6908,-2.8168,-2.8462,-2.8849,-2.9645,-2.9858,-2.9902,-2.9962,-3.0119,-3.0146,-3.006,-3.0432,-3.1229,-3.2446,-3.2767,-3.3491,-3.4833,-3.4785,-3.4769,-3.4899,-3.4769,-3.4769,-3.4899,-3.4899,-3.4918,-3.4905,-3.4759,-3.4808,-3.4951,-3.5383,-3.559,-3.5623,-3.6066,-3.6335,-3.641,-3.6166,-3.6292,-3.6579,-3.6011,-3.5194,-3.4388,-3.4737,-3.4364,-3.3748,0.0,0.0,0.0,0.0,0.0,0.0,0.0,0.0,0.0,-0.3792,-0.438,-0.503,-0.5713,-0.6316,-0.7108,-0.8098,-0.8995,-0.974,-1.0343,-1.1205,-1.1987,-1.2696,-1.3846,-1.4616,-1.5006,-1.5966,-1.6927,-1.7918,-1.8323,-1.8919,-1.9747,-1.9875,-2.0131,-2.051,-2.056,-2.0772,-2.1131,-2.1131,-2.1277,-2.1568,-2.1664,-2.1746,-2.1793,-2.2053,-2.2021,-2.1888,-2.1866,-2.1675,-2.1306,-2.0641,-2.0472,-2.0442,-1.9993,-2.0385,-2.0971,-2.1215,0.0,-2.1674,-2.1732,-2.2034,-2.2516,-2.3443,-2.3676,-2.3871,0.0,0.0,-2.5918,-2.5918,-2.6598,-2.715,-2.723,-2.7345,-2.7702,-2.8458,-2.8688,-2.9032,-2.9832,-2.9973,-3.0017,-3.0146,-3.0189,-3.0189,-3.0189,-3.0952,-3.1835,-3.263,-3.3201,-3.3928,-3.4849,-3.4756,-3.4772,-3.4899,-3.4883,-3.4883,-3.4899,-3.4899,-3.5182,-3.5679,-3.553,-3.6032,-3.7129,-3.7102,-3.708,-3.708,-3.7106,-3.7455,-3.7923,-3.7751,-3.7626,-3.7531,-3.7334,-3.6742,-3.5859,-3.5154,-3.4847,-3.4685,0.0,0.0,0.0,0.0,0.0,0.0,0.0,0.0,0.0,0.0,-0.4797,-0.5348,-0.6057,-0.6898,-0.7795,-0.8806,-0.9527,-1.0348,-1.1223,-1.2054,-1.2765,-1.3351,-1.418,-1.4868,-1.5243,-1.6114,-1.7063,-1.8032,-1.8586,-1.9371,-2.0258,-2.0308,-2.0573,-2.097,-2.1019,-2.1215,-2.1423,-2.1616,-2.1793,-2.1949,-2.2091,-2.2184,-2.2278,-2.2463,-2.2509,-2.2526,-2.2434,-2.2324,0.0,0.0,-2.1513,-2.1554,-2.1374,-2.1615,-2.2058,-2.2125,-2.2681,0.0,-2.3511,-2.367,0.0,0.0,-2.4879,-2.5298,-2.5688,-2.6333,-2.6885,-2.6885,-2.7208,-2.7628,-2.7977,-2.8142,-2.841,0.0,-2.9274,-2.9475,-2.9941,-3.0017,-3.006,-3.0189,-3.0189,-3.0369,-3.0795,-3.1281,-3.2012,-3.3152,-3.3528,-3.4071,-3.4866,-3.4868,-3.4851,-3.4899,-3.4899,-3.4899,-3.4899,-3.4899,-3.5167,-3.5695,-3.5645,-3.6032,-3.6794,-3.7145,-3.7549,-3.7954,-3.7842,-3.789,-3.7992,-3.7876,-3.77,-3.7599,-3.7539,-3.7291,-3.6825,-3.59,-3.521,-3.4798,0.0,0.0,0.0,0.0,0.0,0.0,0.0,0.0,0.0,0.0,-0.527,-0.5867,-0.6761,-0.7728,-0.8646,-0.9487,-1.0173,-1.1016,-1.201,-1.2802,-1.3419,-1.3941,-1.4691,-1.528,-1.5658,-1.6443,-1.7384,-1.8405,-1.894,-1.9718,-2.0723,-2.0772,-2.097,-2.1326,-2.1471,-2.1616,-2.1793,-2.1996,-2.2184,-2.2324,-2.2477,-2.2569,-2.2646,-2.2646,-2.2783,-2.2934,-2.2799,-2.2844,-2.2847,0.0,-2.2407,-2.2568,-2.2503,-2.2745,-2.3062,-2.3145,-2.3727,-2.4472,-2.5001,0.0,0.0,-2.5584,-2.5998,-2.6326,-2.6599,-2.7217,-2.7731,-2.7788,-2.8049,-2.8356,-2.8801,-2.8925,-2.9129,-2.9645,-2.9786,-2.9858,-3.0017,-3.0103,-3.0146,-3.0274,-3.0455,-3.0865,-3.1588,-3.1759,-3.2298,-3.3581,-3.3922,-3.4333,-3.4866,-3.4899,-3.4899,-3.4899,-3.4899,-3.4899,-3.4899,-3.4899,-3.5217,-3.5873,-3.5873,-3.6225,-3.6902,-3.7332,-3.785,-3.8351,-3.8164,-3.8049,-3.7876,-3.7759,-3.7642,-3.7539,-3.7539,-3.748,-3.7385,-3.6397,-3.5767,-3.5388,0.0,0.0,0.0,0.0,0.0,0.0,0.0,0.0,0.0,0.0,0.0,0.0,0.0,0.0,-0.9658,-1.0116,-1.1042,-1.1861,-1.2534,-1.3286,-1.3915,-1.4351,-1.5532,-1.6268,-1.656,-1.7408,-1.8334,-1.9361,-1.9642,-2.0184,-2.0997,-2.1131,-2.1326,-2.1616,-2.1746,-2.1949,-2.2184,-2.2324,-2.2463,-2.2615,-2.2735,-2.2766,-2.2709,-2.2828,-2.2963,-2.3083,-2.2934,-2.3127,0.0,0.0,-2.2986,-2.3475,-2.3002,-2.3368,0.0,-2.4188,-2.441,0.0,0.0,0.0,-2.5362,-2.6958,-2.6782,-2.6519,-2.7364,-2.8098,-2.8597,-2.8757,-2.9308,-2.9853,-2.9826,-2.9886,-2.9886,-2.9902,-2.9946,-3.0017,-3.0146,-3.0333,-3.0401,-3.0468,-3.1071,-3.1797,0.0,-3.2557,-3.2854,-3.3748,-3.4466,-3.4866,-3.4899,-3.4899,-3.4899,-3.4899,-3.4899,-3.4899,-3.4899,-3.4899,-3.5448,-3.6577,-3.6577,-3.7187,-3.8327,-3.8246,-3.8148,-3.818,-3.7992,-3.7934,-3.7876,-3.7759,-3.77,-3.77,-3.7539,-3.748,-3.7385,-3.6542,-3.6538,-3.6952,0.0,0.0,0.0,0.0,0.0,0.0,0.0,0.0,0.0,0.0,0.0,0.0,0.0,0.0,0.0,0.0,0.0,-1.2931,-1.363,-1.4258,-1.4744,-1.5073,-1.5813,-1.6369,-1.6654,-1.7383,-1.8035,-1.8578,-1.9153,-1.9827,-2.0698,-2.0887,-2.1374,-2.1996,-2.2137,-2.2324,-2.2463,-2.2583,-2.2721,-2.2814,-2.2947,-2.3023,-2.3083,-2.3142,-2.3275,-2.3436,0.0,-2.3465,0.0,0.0,0.0,0.0,-2.3751,0.0,0.0,-2.4564,0.0,0.0,0.0,0.0,-2.6086,-2.7233,-2.766,-2.7927,-2.8327,-2.8941,-2.9502,-2.9502,-2.974,-2.9918,-2.9918,-2.9918,-2.9902,-2.9946,-2.9989,-3.006,-3.0274,-3.0787,-3.1186,-3.134,-3.1901,0.0,0.0,0.0,0.0,-3.4482,-3.475,-3.4899,-3.4899,-3.4899,-3.4899,-3.4899,-3.4899,-3.4899,-3.4899,-3.4787,-3.5185,-3.5955,-3.6694,-3.7264,-3.7695,-3.8125,-3.8278,-3.818,-3.7992,-3.7876,-3.7759,-3.7642,-3.7599,-3.7539,-3.7539,-3.748,-3.7449,-3.7137,-3.7037,-3.6937,0.0,0.0,0.0,0.0,0.0,0.0,0.0,0.0,0.0,0.0,0.0,0.0,0.0,0.0,0.0,0.0,0.0,0.0,-1.4479,-1.5006,-1.5367,-1.5623,-1.612,-1.6522,-1.6808,-1.7321,-1.7865,-1.8395,-1.8856,-1.9683,-2.0804,-2.0986,-2.1549,-2.237,-2.2477,-2.2615,-2.2737,-2.2872,-2.2992,-2.3127,-2.3201,-2.3334,-2.348,-2.3451,-2.3566,0.0,-2.3767,-2.3809,0.0,0.0,0.0,0.0,0.0,0.0,0.0,0.0,0.0,0.0,0.0,-2.6702,-2.6983,-2.8114,-2.8543,-2.8753,-2.9113,-2.9578,-2.9918,-2.9918,-2.9918,-2.9918,-2.9918,-2.9918,-2.9902,-2.9973,-3.0017,-3.0146,-3.0401,-3.0898,-3.1281,-3.145,-3.229,0.0,0.0,0.0,0.0,-3.4866,-3.4899,-3.4899,-3.4899,-3.4899,-3.4899,-3.4899,-3.4899,-3.4899,-3.4851,-3.4739,-3.4972,-3.556,-3.6734,-3.7323,-3.7339,-3.7955,-3.8164,-3.8049,-3.7876,-3.77,-3.7642,-3.7539,-3.748,-3.748,-3.748,-3.748,-3.748,-3.748,-3.7361,-3.7118,0.0,0.0,0.0,0.0,0.0,0.0,0.0,0.0,0.0,0.0,0.0,0.0,0.0,0.0,0.0,0.0,0.0,0.0,-1.5096,-1.5457,-1.5768,-1.6032,-1.6509,-1.6808,-1.7044,-1.7308,-1.7864,-1.8765,-1.8836,-1.9709,-2.126,-2.1363,-2.1837,-2.2661,-2.2781,-2.2857,-2.2934,-2.3068,-2.3305,-2.3509,-2.3509,-2.3625,-2.3797,-2.3681,-2.3797,-2.4024,-2.4094,0.0,0.0,0.0,0.0,0.0,0.0,0.0,0.0,0.0,0.0,-2.6535,-2.738,-2.7646,-2.7985,-2.9518,-2.9399,-2.9075,-2.9756,-2.9902,-2.9918,-2.9918,-2.9918,-2.9918,0.0,0.0,-2.9946,-2.9973,-3.0103,-3.0274,-3.0468,-3.0643,-3.0799,0.0,0.0,0.0,0.0,0.0,0.0,-3.4916,0.0,-3.4899,-3.4899,-3.4899,-3.4899,-3.4899,-3.4899,-3.4851,-3.4691,-3.4691,-3.489,-3.5342,-3.6599,-3.7209,-3.7187,-3.7648,-3.7886,-3.7828,-3.7626,-3.7539,-3.748,-3.748,-3.748,-3.748,-3.748,-3.748,-3.748,-3.748,-3.748,-3.7464,0.0,0.0,0.0,0.0,0.0,0.0,0.0,0.0,0.0,0.0,0.0,0.0,0.0,0.0,0.0,0.0,0.0,0.0,-1.5588,-1.592,-1.6324,-1.6735,-1.7044,-1.7337,-1.7666,-1.7774,-1.8044,-1.8436,-1.8595,-1.9468,-2.0983,-2.1166,-2.1958,-2.3201,-2.3275,-2.3378,-2.3421,-2.348,-2.3566,-2.3711,-2.3711,-2.3797,-2.3925,-2.3952,-2.4078,-2.4219,0.0,0.0,0.0,0.0,0.0,0.0,0.0,0.0,-2.5791,0.0,0.0,-2.7176,-2.7508,-2.7969,-2.8624,-2.9702,-2.9843,-2.9745,-3.007,-3.0076,-2.9973,-2.9973,-2.9946,-2.9918,0.0,0.0,0.0,-3.0103,-3.0274,0.0,-3.0609,-3.1175,0.0,0.0,0.0,-3.3967,-3.3977,-3.474,0.0,0.0,-3.4932,-3.4899,-3.4899,-3.4899,-3.4899,-3.4899,-3.4804,-3.4739,-3.4691,-3.4497,-3.4381,-3.4443,-3.5299,-3.572,-3.5768,-3.6796,-3.7263,-3.7182,-3.7536,-3.7583,-3.748,-3.748,-3.748,-3.748,-3.748,-3.748,-3.748,-3.748,-3.7405,-3.7254,0.0,0.0,0.0,0.0,0.0,0.0,0.0,0.0,0.0,0.0,0.0,0.0,0.0,0.0,0.0,0.0,0.0,0.0,0.0,-1.6367,-1.6735,-1.7183,-1.7378,-1.7666,-1.7935,-1.8082,-1.824,-1.8372,-1.8644,-1.9559,-2.1044,-2.1263,-2.2105,-2.3508,-2.3523,-2.3625,-2.3696,-2.3696,-2.3797,0.0,0.0,-2.4024,-2.4151,-2.4219,-2.4317,0.0,0.0,0.0,0.0,0.0,0.0,-2.5021,-2.4966,-2.556,-2.6238,-2.5854,0.0,-2.8049,-2.8165,-2.8666,-2.934,-2.9919,-3.006,-3.0017,-3.0119,-3.006,-2.9973,-2.9946,-2.9902,0.0,0.0,0.0,0.0,0.0,0.0,0.0,-3.0733,-3.1141,-3.1616,0.0,-3.3203,0.0,-3.4269,-3.4928,-3.527,0.0,-3.4996,-3.4899,-3.4899,-3.4899,-3.4899,-3.4899,-3.4756,-3.4643,-3.4546,-3.43,-3.4151,-3.4117,-3.4845,-3.5185,-3.5166,-3.6174,-3.6685,-3.6765,0.0,-3.7297,-3.748,-3.748,-3.748,-3.748,-3.748,-3.748,-3.748,-3.748,-3.7405,-3.7329,0.0,0.0,0.0,0.0,0.0,0.0,0.0,0.0,0.0,0.0,0.0,0.0,0.0,0.0,0.0,0.0,0.0,0.0,0.0,0.0,0.0,-1.7446,-1.7652,-1.7828,-1.8082,-1.824,0.0,0.0,0.0,-1.9778,-2.1156,-2.1346,-2.2148,-2.3426,-2.3516,-2.3603,-2.3746,-2.3837,-2.4024,-2.4208,-2.4208,-2.425,-2.4359,0.0,0.0,0.0,0.0,0.0,0.0,0.0,-2.5294,-2.5294,-2.5146,-2.5822,-2.6623,-2.6527,-2.7655,-2.8962,-2.8981,-2.9426,-2.9946,-3.0146,-3.0103,-3.0017,-3.006,-3.0017,-3.0017,-2.9946,0.0,-2.9918,-2.9918,0.0,-3.006,-3.0189,0.0,-3.0501,-3.0831,-3.0855,-3.1217,-3.2173,-3.2934,-3.356,-3.4116,-3.4847,-3.5182,-3.498,-3.4916,-3.4899,-3.4899,-3.4899,-3.4899,-3.4851,-3.4691,-3.4546,-3.43,-3.4151,-3.4101,-3.4101,-3.4732,-3.4988,-3.4864,-3.5573,-3.6053,-3.6405,-3.6556,0.0,-3.7397,-3.7508,-3.7539,-3.7539,-3.7539,-3.748,-3.748,-3.748,-3.748,-3.748,0.0,0.0,0.0,0.0,0.0,0.0,0.0,0.0,0.0,0.0,-1.0981,-1.1356,0.0,0.0,0.0,0.0,0.0,0.0,0.0,0.0,0.0,0.0,-1.7895,-1.8082,0.0,0.0,0.0,0.0,0.0,0.0,-2.0971,-2.0933,-2.1492,-2.2539,-2.301,-2.3254,-2.3421,-2.3989,-2.4219,-2.4261,-2.4261,-2.4359,-2.4457,0.0,0.0,0.0,0.0,0.0,0.0,0.0,-2.5355,-2.5294,-2.5294,-2.6254,-2.7308,-2.6671,-2.7994,-2.9594,-2.8994,-2.9367,-2.9946,-3.0146,-3.0189,-3.0189,-3.0333,-3.0231,0.0,0.0,0.0,-2.9918,-2.9918,-2.9946,0.0,-3.0189,0.0,0.0,0.0,0.0,-3.1086,0.0,0.0,0.0,0.0,0.0,0.0,0.0,0.0,-3.4899,-3.4899,-3.4899,-3.4804,-3.4594,-3.4448,-3.43,-3.4151,-3.4101,-3.405,-3.3949,-3.418,-3.4244,-3.4108,-3.4864,-3.5198,-3.5337,-3.6214,0.0,-3.7061,-3.7345,-3.7599,-3.7642,-3.7539,-3.748,-3.748,-3.748,-3.748,-3.748,0.0,0.0,0.0,0.0,0.0,0.0,0.0,-1.0118,-1.0697,-1.1319,-1.1763,-1.2102,-1.2294,-1.2615,-1.3129,0.0,0.0,0.0,0.0,0.0,0.0,0.0,0.0,0.0,0.0,0.0,0.0,0.0,0.0,0.0,0.0,0.0,0.0,0.0,0.0,0.0,0.0,0.0,0.0,0.0,0.0,0.0,0.0,0.0,0.0,0.0,0.0,0.0,0.0,0.0,-2.5513,-2.5492,-2.5486,-2.6251,-2.7187,-2.7163,-2.8165,-2.9351,-2.9426,-2.9643,-2.9946,-3.0146,-3.0146,-3.0103,-3.0189,0.0,0.0,0.0,0.0,-2.9918,-2.9918,0.0,0.0,0.0,0.0,0.0,0.0,0.0,0.0,0.0,0.0,0.0,0.0,0.0,0.0,0.0,0.0,-3.4899,-3.4899,-3.4851,-3.4691,-3.4497,-3.4349,-3.425,-3.4101,-3.4101,-3.405,-3.4,-3.405,-3.405,-3.3915,-3.432,-3.4639,-3.4883,-3.587,0.0,-3.6942,-3.7414,-3.7642,-3.77,-3.7539,-3.748,-3.748,-3.748,-3.7405,-3.7329,0.0,0.0,0.0,0.0,0.0,0.0,0.0,-1.0659,-1.1255,-1.1847,-1.2437,-1.2768,-1.2756,-1.3012,-1.3443,0.0,0.0,0.0,0.0,0.0,0.0,0.0,0.0,0.0,0.0,0.0,0.0,0.0,0.0,0.0,0.0,0.0,0.0,0.0,0.0,0.0,0.0,0.0,0.0,0.0,0.0,0.0,0.0,0.0,0.0,0.0,0.0,0.0,0.0,0.0,-2.5701,-2.5701,-2.5637,-2.6259,-2.715,-2.7583,-2.832,-2.914,-2.9632,-2.9718,-2.9718,-2.9891,-2.9848,-2.9837,-2.9984,-2.9903,0.0,0.0,-2.9659,-2.9545,-2.9853,0.0,0.0,0.0,0.0,0.0,0.0,0.0,0.0,0.0,0.0,0.0,0.0,0.0,0.0,0.0,0.0,0.0,-3.4899,-3.4756,-3.4594,-3.4497,-3.4349,-3.4201,-3.4101,-3.4101,-3.4101,-3.405,-3.4101,-3.405,-3.3899,-3.405,-3.4256,-3.4627,-3.5599,0.0,0.0,-3.7409,-3.77,-3.77,-3.7539,-3.748,-3.748,-3.748,-3.7405,-3.727,0.0,0.0,0.0,0.0,0.0,0.0,0.0,-1.1067,-1.1664,-1.2258,-1.2743,-1.316,-1.348,-1.3493,-1.3552,0.0,0.0,0.0,0.0,0.0,0.0,0.0,0.0,0.0,0.0,0.0,0.0,0.0,0.0,0.0,0.0,0.0,0.0,0.0,0.0,0.0,0.0,0.0,0.0,0.0,0.0,0.0,0.0,0.0,0.0,0.0,0.0,0.0,0.0,0.0,0.0,-2.5701,-2.5701,-2.6684,-2.7849,-2.7729,0.0,0.0,-2.9091,-2.8929,-2.8929,-2.9088,-2.9088,-2.9251,-2.987,0.0,0.0,-2.9789,-2.8822,-2.8304,-2.9659,0.0,0.0,0.0,0.0,0.0,0.0,0.0,0.0,0.0,0.0,0.0,0.0,0.0,0.0,0.0,0.0,0.0,-3.4899,-3.4643,-3.4497,-3.4497,-3.425,-3.4101,-3.4101,-3.4101,-3.405,-3.3899,-3.405,-3.405,-3.3899,-3.405,-3.4133,-3.4212,-3.5481,0.0,0.0,-3.7259,-3.77,-3.77,-3.7539,-3.748,-3.748,-3.748,-3.748,-3.748,0.0,0.0,0.0,0.0,0.0,0.0,-1.1029,-1.1579,-1.2126,-1.2743,-1.3242,-1.3581,-1.3835,-1.3947,-1.4026,-1.404,0.0,0.0,0.0,0.0,0.0,0.0,0.0,0.0,0.0,0.0,0.0,0.0,0.0,0.0,0.0,0.0,0.0,0.0,0.0,0.0,0.0,0.0,0.0,0.0,0.0,0.0,0.0,0.0,0.0,0.0,0.0,0.0,0.0,0.0,0.0,0.0,-2.5701,-2.6477,0.0,0.0,-2.7551,-2.8021,-2.8109,-2.8142,-2.8239,-2.8777,-2.889,-2.8955,-2.9231,0.0,0.0,-2.8611,-2.8109,-2.8012,-2.9032,0.0,0.0,0.0,0.0,0.0,0.0,0.0,0.0,0.0,0.0,0.0,0.0,0.0,0.0,0.0,0.0,0.0,-3.4626,-3.4497,-3.4399,-3.4399,-3.4201,-3.4101,-3.4101,-3.4101,-3.405,-3.4,-3.405,-3.405,-3.4,-3.4101,-3.4101,-3.4149,-3.5117,0.0,0.0,-3.7006,-3.755,-3.777,-3.715,-3.7202,-3.7433,-3.7006,-3.7042,-3.7329,0.0,0.0,0.0,0.0,0.0,-1.0943,-1.1627,-1.2102,-1.2603,-1.316,-1.3581,-1.3927,-1.4098,-1.4351,-1.4493,-1.4429,-1.4493,0.0,0.0,0.0,0.0,0.0,0.0,0.0,0.0,0.0,-1.9669,-1.9797,-1.999,0.0,0.0,0.0,0.0,0.0,0.0,0.0,0.0,0.0,0.0,0.0,0.0,0.0,0.0,0.0,0.0,0.0,0.0,0.0,0.0,0.0,0.0,0.0,0.0,0.0,0.0,0.0,-2.687,-2.7097,-2.7372,-2.7397,-2.7575,-2.8304,-2.8466,-2.8579,0.0,0.0,0.0,-2.8093,-2.7527,-2.734,-2.8311,0.0,0.0,-2.9497,0.0,-3.0174,0.0,0.0,0.0,0.0,0.0,0.0,0.0,0.0,0.0,0.0,0.0,0.0,0.0,-3.43,-3.425,-3.43,-3.4151,-3.4101,-3.4101,-3.4101,-3.4214,-3.4424,-3.4424,-3.4424,-3.4424,-3.4424,-3.4311,-3.4133,-3.4862,0.0,0.0,-3.6786,-3.7151,-3.7163,-3.6772,-3.6737,-3.6859,-3.6353,-3.6421,-3.6848,0.0,0.0,0.0,0.0,0.0,0.0,-1.2138,-1.2603,-1.3035,-1.3446,-1.3802,-1.4098,-1.4365,-1.4651,-1.4839,-1.4902,-1.4839,0.0,0.0,0.0,0.0,0.0,0.0,0.0,0.0,0.0,-1.9797,-2.0005,-2.02,-2.022,-2.01,0.0,0.0,0.0,0.0,0.0,0.0,0.0,0.0,0.0,0.0,0.0,0.0,0.0,0.0,0.0,0.0,0.0,0.0,0.0,0.0,0.0,0.0,0.0,0.0,0.0,-2.7313,-2.7744,-2.6997,-2.6779,-2.6863,-2.7543,-2.7721,-2.8093,0.0,0.0,0.0,-2.8628,-2.7106,-2.6041,-2.7451,0.0,0.0,0.0,0.0,0.0,0.0,0.0,0.0,0.0,0.0,0.0,0.0,0.0,0.0,0.0,0.0,0.0,0.0,-3.4101,-3.4151,-3.43,-3.4151,-3.4101,-3.4101,-3.4101,-3.4457,-3.5169,-3.5169,-3.5169,-3.5169,-3.5169,-3.4781,0.0,0.0,0.0,0.0,-3.6522,-3.6533,-3.5697,-3.6333,-3.6206,-3.5633,-3.5617,-3.5673,-3.5934,0.0,0.0,0.0,0.0,0.0,0.0,0.0,-1.3091,-1.348,-1.3927,-1.4157,-1.4383,-1.4637,-1.4808,-1.4963,-1.5147,-1.5117,0.0,0.0,0.0,0.0,0.0,0.0,0.0,0.0,-1.9396,-1.9535,-2.0216,-2.0304,-2.0373,-2.0392,-2.061,-2.0711,0.0,0.0,0.0,0.0,0.0,0.0,0.0,0.0,0.0,0.0,0.0,0.0,0.0,0.0,0.0,0.0,0.0,0.0,0.0,0.0,0.0,0.0,0.0,0.0,0.0,-2.6043,-2.5956,-2.6231,-2.7413,-2.7705,-2.7834,-2.8288,0.0,0.0,0.0,-2.6426,-2.6199,0.0,0.0,0.0,0.0,0.0,0.0,0.0,0.0,0.0,0.0,0.0,0.0,0.0,0.0,0.0,0.0,0.0,0.0,0.0,-3.4101,-3.4101,-3.4151,-3.4101,-3.4101,-3.4101,-3.4101,-3.4473,-3.5169,-3.4683,-3.47,-3.5169,-3.4667,-3.4311,0.0,0.0,0.0,0.0,-3.6168,-3.6554,-3.647,-3.6277,-3.6214,-3.6206,-3.5291,-3.5655,-3.6574,0.0,0.0,0.0,0.0,0.0,0.0,0.0,-1.3547,-1.3848,-1.4222,-1.4383,-1.4529,-1.4808,-1.4887,-1.5041,-1.5328,-1.5328,0.0,0.0,0.0,0.0,0.0,0.0,0.0,-1.9481,-1.9444,-1.9737,-2.0373,-2.0407,-2.0475,-2.0494,-2.0695,-2.0794,-2.0794,-2.0925,-2.1006,0.0,0.0,0.0,0.0,0.0,0.0,-2.2816,0.0,0.0,0.0,0.0,0.0,0.0,0.0,0.0,0.0,0.0,0.0,0.0,0.0,0.0,0.0,0.0,-2.5637,-2.5891,-2.7041,-2.7332,0.0,0.0,0.0,0.0,0.0,0.0,0.0,0.0,0.0,0.0,0.0,0.0,0.0,0.0,0.0,0.0,0.0,0.0,0.0,0.0,0.0,0.0,0.0,0.0,0.0,0.0,-3.4101,-3.4101,-3.4101,-3.4101,-3.423,-3.4505,-3.423,-3.4603,-3.5606,-3.4862,-3.4748,-3.5169,-3.4716,-3.436,0.0,0.0,0.0,0.0,-3.5522,-3.5819,-3.577,-3.5632,-3.5556,-3.5511,-3.467,-3.5193,-3.6291,0.0,0.0,0.0,0.0,0.0,0.0,0.0,-1.3947,-1.413,-1.4383,-1.4497,-1.461,-1.4887,-1.4966,-1.5134,-1.5389,0.0,0.0,0.0,0.0,0.0,0.0,0.0,0.0,-1.9115,-1.966,-2.0131,-2.0416,-2.0512,-2.0527,-2.0527,-2.0778,-2.0877,-2.0827,-2.1022,-2.1103,-2.1183,-2.1939,-2.2329,-2.2492,-2.3109,-2.2655,0.0,0.0,0.0,0.0,0.0,0.0,0.0,0.0,0.0,0.0,0.0,0.0,0.0,0.0,0.0,0.0,0.0,0.0,0.0,0.0,0.0,0.0,0.0,0.0,0.0,0.0,0.0,0.0,0.0,0.0,0.0,0.0,0.0,0.0,0.0,0.0,0.0,0.0,0.0,0.0,0.0,0.0,0.0,0.0,0.0,0.0,0.0,-3.4101,-3.4101,-3.4101,-3.4101,-3.4424,-3.5104,-3.4441,-3.4813,-3.6222,-3.5461,-3.5137,-3.5185,-3.5137,-3.4732,0.0,0.0,0.0,0.0,-3.4775,-3.4575,-3.4043,-3.4615,-3.4471,-3.3979,-3.3915,-3.4484,-3.5364,0.0,0.0,0.0,0.0,0.0,0.0,0.0,0.0,0.0,0.0,-1.47,-1.478,-1.4951,-1.5088,-1.5224,0.0,0.0,0.0,0.0,0.0,0.0,0.0,0.0,0.0,-1.8328,-1.8638,-1.9106,-1.9747,-2.0344,-2.0693,-2.0809,-2.0875,-2.0957,-2.1103,-2.1199,-2.1341,-2.1513,-2.1676,-2.1773,-2.182,-2.2,-2.1853,0.0,0.0,0.0,0.0,-2.5568,-2.6096,0.0,0.0,0.0,0.0,0.0,0.0,0.0,0.0,-2.5811,-2.5701,-2.5637,0.0,-2.5772,-2.6532,-2.6682,0.0,0.0,0.0,0.0,0.0,0.0,0.0,0.0,0.0,0.0,0.0,0.0,0.0,0.0,0.0,0.0,0.0,0.0,0.0,0.0,0.0,0.0,0.0,0.0,0.0,0.0,-3.4101,-3.4101,-3.4101,-3.4101,-3.4182,-3.436,-3.4182,-3.4554,-3.5428,-3.47,-3.4635,-3.5169,-3.4603,-3.4262,0.0,0.0,0.0,-3.4149,-3.4878,-3.5001,-3.4784,-3.5017,-3.4933,-3.4687,-3.421,-3.4875,-3.6076,0.0,0.0,0.0,0.0,0.0,0.0,0.0,0.0,0.0,0.0,0.0,-1.4887,-1.4982,-1.5163,0.0,0.0,0.0,0.0,0.0,0.0,0.0,0.0,0.0,-1.7051,-1.7806,-1.8548,-1.9155,-1.9657,-2.0363,-2.0791,-2.089,-2.0956,-2.1054,-2.1183,-2.1293,-2.1432,-2.1603,-2.1603,-2.1603,-2.1634,-2.162,0.0,0.0,0.0,0.0,0.0,-2.5339,-2.587,0.0,-2.622,-2.622,-2.622,0.0,0.0,0.0,0.0,-2.5855,-2.5762,-2.5621,-2.5616,-2.5675,-2.6112,-2.6211,-2.6368,0.0,0.0,0.0,0.0,0.0,0.0,0.0,0.0,0.0,0.0,0.0,0.0,0.0,0.0,0.0,0.0,0.0,0.0,0.0,0.0,0.0,0.0,0.0,0.0,0.0,-3.4101,-3.4101,-3.4101,-3.4101,-3.4262,-3.4586,-3.4262,-3.4473,-3.5169,-3.4441,-3.4311,-3.4667,-3.4279,-3.4101,0.0,0.0,0.0,-3.4133,-3.4471,-3.4597,-3.4613,-3.4597,-3.4597,-3.4565,-3.4196,-3.4813,-3.5833,0.0,0.0,0.0,0.0,0.0,0.0,0.0,0.0,0.0,0.0,0.0,0.0,0.0,0.0,0.0,0.0,0.0,0.0,0.0,0.0,0.0,0.0,-1.6774,-1.7244,-1.7483,-1.8717,-1.9484,-1.9783,-2.0412,-2.0807,-2.0939,-2.1053,-2.1167,-2.1295,-2.1402,-2.1507,-2.1631,-2.1631,-2.1661,-2.1724,-2.1664,0.0,0.0,0.0,0.0,0.0,0.0,0.0,0.0,-2.6151,-2.622,-2.622,-2.622,0.0,0.0,0.0,0.0,0.0,-2.5659,-2.5632,-2.5616,-2.5616,-2.5616,-2.5783,-2.6531,0.0,0.0,0.0,0.0,0.0,0.0,0.0,0.0,0.0,0.0,0.0,0.0,0.0,0.0,0.0,0.0,0.0,0.0,0.0,0.0,0.0,0.0,0.0,0.0,-3.4101,-3.4101,-3.4101,-3.4101,-3.4392,-3.5007,-3.4408,-3.4408,-3.5007,-3.4392,-3.4101,-3.4101,-3.4101,-3.4101,-3.4101,0.0,0.0,-3.4101,-3.4,-3.4,-3.4101,-3.3949,-3.4,-3.4101,-3.4101,-3.4619,-3.5529,0.0,0.0,0.0,0.0,0.0,0.0,0.0,0.0,0.0,0.0,0.0,0.0,0.0,0.0,0.0,0.0,0.0,0.0,0.0,0.0,0.0,-1.6194,-1.6314,-1.6709,-1.7413,-1.823,-1.901,-1.972,-2.0478,-2.0938,-2.1067,-2.1213,-2.1392,-2.1615,-2.1657,-2.1697,-2.1768,-2.1768,-2.1797,-2.1781,-2.1768,0.0,0.0,0.0,0.0,0.0,0.0,0.0,0.0,-2.5983,-2.622,-2.622,-2.622,0.0,0.0,0.0,0.0,0.0,-2.5745,-2.5664,-2.5664,-2.5616,-2.5616,-2.5783,-2.6531,0.0,0.0,0.0,0.0,0.0,0.0,0.0,0.0,0.0,0.0,0.0,0.0,0.0,0.0,0.0,0.0,0.0,0.0,0.0,0.0,0.0,0.0,0.0,-3.4101,-3.4101,-3.4101,-3.4101,-3.4101,-3.4149,-3.4262,-3.4165,-3.4165,-3.4262,-3.4149,-3.4101,-3.4101,-3.4101,-3.4101,-3.4101,0.0,-3.4101,-3.4101,-3.4101,-3.4101,-3.4101,-3.4101,-3.4101,-3.4101,-3.4101,-3.5045,-3.6499,0.0,0.0,0.0,0.0,0.0,0.0,0.0,0.0,0.0,0.0,0.0,0.0,0.0,0.0,0.0,0.0,0.0,0.0,0.0,0.0,-1.6139,-1.6253,-1.6253,-1.6614,-1.7446,-1.8593,-1.9409,-1.9808,-2.0543,-2.0987,-2.1164,-2.1279,-2.1497,-2.1699,-2.1744,-2.1771,-2.186,-2.186,-2.1877,-2.1893,0.0,0.0,0.0,0.0,0.0,0.0,0.0,0.0,0.0,0.0,-2.622,-2.622,-2.622,0.0,0.0,0.0,0.0,0.0,-2.5766,-2.5749,-2.5767,-2.5632,-2.5616,-2.5681,0.0,0.0,0.0,0.0,0.0,0.0,0.0,0.0,0.0,0.0,0.0,0.0,0.0,0.0,0.0,0.0,0.0,0.0,0.0,0.0,0.0,0.0,0.0,0.0,-3.4101,-3.4151,-3.4151,-3.4101,-3.4151,-3.4151,-3.4101,-3.4101,-3.4101,-3.4101,-3.4101,-3.4101,-3.4101,-3.4101,-3.4101,-3.4101,0.0,-3.4201,-3.4201,-3.4201,-3.425,-3.43,-3.4151,-3.4201,-3.4349,-3.474,-3.5554,-3.6682,0.0,0.0,0.0,0.0,0.0,0.0,0.0,0.0,0.0,0.0,0.0,0.0,0.0,0.0,0.0,0.0,0.0,0.0,0.0,-1.6123,-1.6194,-1.6296,-1.6487,-1.6968,-1.772,-1.8927,-1.9734,-2.0124,-2.0703,-2.1119,-2.1327,-2.146,-2.1573,-2.1764,-2.1827,-2.1873,-2.1915,-2.1915,-2.1936,-2.199,0.0,0.0,0.0,0.0,0.0,0.0,0.0,0.0,0.0,0.0,0.0,0.0,0.0,0.0,0.0,-2.6085,-2.6033,-2.598,-2.5776,-2.5791,-2.5821,-2.5637,-2.56,0.0,0.0,0.0,0.0,0.0,0.0,0.0,0.0,0.0,0.0,0.0,0.0,0.0,0.0,0.0,0.0,0.0,0.0,0.0,0.0,0.0,0.0,0.0,0.0,0.0,-3.4151,-3.425,-3.43,-3.4151,-3.425,-3.425,-3.4101,-3.4101,-3.4101,-3.4101,-3.4101,-3.4101,-3.4151,-3.4101,-3.4151,-3.4201,-3.425,-3.43,-3.4349,-3.4349,-3.4399,-3.4497,-3.425,-3.43,-3.4595,-3.5563,-3.62,-3.6702,0.0,0.0,0.0,0.0,0.0,0.0,0.0,0.0,0.0,0.0,0.0,0.0,0.0,0.0,0.0,0.0,0.0,0.0,0.0,-1.6234,-1.6301,-1.6301,-1.707,-1.7804,-1.8528,-1.8674,-1.945,-2.0828,-2.1128,-2.1428,-2.1744,-2.1777,-2.186,-2.1973,-2.1973,-2.1991,-2.1995,-2.1995,-2.1998,-2.2003,-2.1977,0.0,0.0,0.0,0.0,0.0,0.0,0.0,0.0,0.0,0.0,0.0,0.0,0.0,-2.622,-2.6203,-2.6112,-2.5967,-2.5917,-2.5819,-2.5686,-2.564,-2.5663,0.0,-2.5616,-2.5616,0.0,-2.5616,0.0,0.0,0.0,0.0,0.0,0.0,0.0,0.0,0.0,0.0,0.0,0.0,0.0,0.0,0.0,0.0,0.0,0.0,0.0,0.0,-3.43,-3.4399,-3.4448,-3.43,-3.43,-3.425,-3.4101,-3.4101,-3.4101,-3.4101,-3.4101,-3.4151,-3.43,-3.4151,-3.425,-3.4448,-3.4349,-3.4349,-3.4497,-3.4497,-3.4497,-3.4497,-3.4497,-3.4497,-3.4677,-3.6238,-3.6746,-3.6888,0.0,0.0,0.0,0.0,0.0,0.0,0.0,0.0,0.0,0.0,0.0,0.0,0.0,0.0,0.0,0.0,0.0,0.0,0.0,-1.6301,-1.6371,-1.6429,-1.723,-1.8022,-1.8776,-1.924,-2.0049,-2.1129,-2.1374,-2.1592,-2.1793,-2.1786,-2.1881,-2.201,-2.2106,-2.2163,-2.2198,-2.2136,-2.2175,-2.2236,-2.2158,-2.204,0.0,0.0,0.0,0.0,0.0,0.0,0.0,0.0,-2.622,-2.6184,-2.6092,-2.6085,-2.6045,-2.603,-2.5994,-2.5914,-2.5798,-2.5788,-2.5805,-2.5642,-2.5637,0.0,0.0,-2.5616,-2.5562,-2.5497,-2.5502,0.0,0.0,0.0,0.0,0.0,0.0,0.0,0.0,0.0,0.0,0.0,0.0,0.0,0.0,0.0,0.0,0.0,0.0,0.0,0.0,-3.4497,-3.4546,-3.43,-3.4399,-3.43,-3.4101,-3.4101,-3.4101,-3.4101,-3.4101,-3.4151,-3.43,-3.425,-3.4349,-3.4497,-3.4546,-3.4594,-3.4643,-3.4643,-3.4691,-3.4756,-3.4756,-3.4643,-3.4726,-3.6405,-3.6949,-3.7044,0.0,0.0,0.0,0.0,0.0,0.0,0.0,0.0,0.0,0.0,0.0,0.0,0.0,0.0,0.0,0.0,0.0,0.0,-1.6328,-1.6398,-1.6483,-1.6541,-1.7343,-1.8173,-1.8985,-1.9759,-2.0526,-2.1315,-2.1536,-2.1744,-2.1936,-2.1927,-2.199,-2.2102,-2.2198,-2.2248,-2.231,-2.2265,-2.2298,-2.2361,-2.231,-2.2198,0.0,0.0,0.0,0.0,0.0,0.0,0.0,0.0,-2.6002,-2.5855,-2.5921,-2.5811,-2.5611,-2.5579,-2.5543,-2.5481,-2.5419,-2.5431,-2.5475,-2.5584,0.0,0.0,-2.5616,-2.5616,-2.5562,-2.5497,-2.5492,0.0,0.0,0.0,0.0,0.0,0.0,0.0,0.0,0.0,0.0,0.0,0.0,0.0,0.0,0.0,0.0,0.0,0.0,0.0,0.0,-3.4297,-3.4412,-3.4448,-3.4497,-3.4448,-3.4151,-3.4151,-3.4151,-3.4101,-3.4151,-3.425,-3.4349,-3.43,-3.4399,-3.4643,-3.4691,-3.4739,-3.4739,-3.4739,-3.4804,-3.4899,-3.4899,-3.4804,-3.4824,-3.6506,-3.7051,-3.7215,0.0,0.0,0.0,0.0,0.0,0.0,0.0,0.0,0.0,0.0,0.0,0.0,0.0,0.0,0.0,0.0,0.0,0.0,-1.6398,-1.6526,-1.6611,-1.6611,-1.7498,-1.8389,-1.9183,-2.0069,-2.076,-2.1315,-2.1637,-2.1953,-2.2187,-2.2197,-2.2231,-2.231,-2.231,-2.231,-2.231,-2.2371,-2.2361,-2.231,-2.2361,-2.2327,-2.2186,0.0,0.0,0.0,0.0,0.0,0.0,0.0,-2.5535,-2.5078,-2.5675,-2.5392,-2.4769,-2.4786,-2.4732,-2.471,-2.471,-2.4587,-2.4661,0.0,0.0,0.0,-2.5616,-2.5616,-2.5616,-2.5616,0.0,0.0,0.0,0.0,0.0,0.0,0.0,0.0,0.0,0.0,0.0,0.0,0.0,0.0,0.0,0.0,0.0,0.0,0.0,0.0,0.0,-3.3743,-3.4091,-3.4675,-3.4691,-3.4546,-3.43,-3.43,-3.425,-3.4101,-3.425,-3.4349,-3.4497,-3.4349,-3.4497,-3.4899,-3.4739,-3.4804,-3.4899,-3.4899,-3.4899,-3.4899,-3.4899,-3.4899,-3.5081,-3.6555,-3.7102,-3.7301,0.0,0.0,0.0,0.0,0.0,0.0,0.0,0.0,0.0,0.0,0.0,0.0,0.0,0.0,0.0,0.0,0.0,0.0,-1.6526,-1.6664,-1.6791,-1.6881,-1.8173,-1.9049,-1.9325,-2.071,-2.1529,-2.1732,-2.1857,-2.2027,-2.218,-2.2209,-2.2254,-2.231,-2.231,-2.2327,-2.2361,-2.2394,-2.2388,-2.2371,-2.24,-2.2327,-2.2186,0.0,0.0,0.0,0.0,0.0,0.0,0.0,0.0,0.0,-2.4341,-2.4161,-2.393,-2.3918,-2.3816,-2.3816,-2.4427,-2.443,0.0,0.0,0.0,0.0,0.0,-2.5616,0.0,0.0,0.0,0.0,0.0,0.0,0.0,0.0,0.0,0.0,0.0,0.0,0.0,0.0,0.0,0.0,0.0,0.0,0.0,0.0,0.0,0.0,0.0,-3.365,-3.398,-3.4675,-3.4594,-3.4497,-3.43,-3.4201,-3.4201,-3.425,-3.43,-3.4349,-3.4497,-3.4546,-3.4691,-3.4899,-3.4851,-3.4851,-3.4899,-3.4994,-3.4994,-3.4899,-3.4994,-3.4994,-3.5015,-3.5976,-3.634,-3.6456,0.0,0.0,0.0,0.0,0.0,0.0,0.0,0.0,0.0,0.0,-1.587,-1.6024,0.0,0.0,0.0,0.0,0.0,0.0,-1.6733,-1.685,-1.6961,-1.7065,-1.8572,-1.9703,-2.0369,-2.1437,-2.1953,-2.1948,-2.1982,-2.2084,-2.2231,-2.2237,-2.2254,-2.231,-2.231,-2.2338,-2.2394,-2.2428,-2.2443,-2.2439,-2.2428,-2.2378,-2.2265,0.0,0.0,0.0,0.0,0.0,0.0,0.0,0.0,0.0,-2.3585,-2.3389,-2.3111,-2.3052,-2.2985,-2.3068,-2.38,0.0,0.0,0.0,0.0,0.0,0.0,0.0,0.0,0.0,0.0,0.0,0.0,0.0,0.0,0.0,0.0,0.0,0.0,0.0,0.0,0.0,0.0,0.0,0.0,0.0,0.0,0.0,0.0,0.0,0.0,-3.2747,-3.3077,-3.3801,-3.3818,-3.3871,-3.4006,-3.3958,-3.4056,-3.4399,-3.4448,-3.4497,-3.4594,-3.4643,-3.4787,-3.4899,-3.4947,-3.4994,-3.4994,-3.5135,-3.5135,-3.5041,-3.5152,-3.5088,-3.5094,-3.5824,-3.6058,-3.6108,0.0,0.0,0.0,0.0,0.0,0.0,0.0,0.0,0.0,0.0,-1.5926,-1.6067,0.0,0.0,0.0,0.0,0.0,0.0,0.0,-1.7077,-1.7187,-1.7319,-1.8871,-2.0414,-2.1911,-2.2094,-2.2152,-2.2027,-2.2027,-2.2118,-2.231,-2.231,-2.2282,-2.2282,-2.2282,-2.2332,-2.2392,-2.2453,-2.25,-2.2485,-2.25,-2.244,-2.2361,-2.2089,0.0,0.0,0.0,0.0,0.0,0.0,0.0,0.0,-2.3141,-2.2831,-2.2297,-2.2214,-2.2197,-2.2324,0.0,0.0,0.0,0.0,0.0,0.0,0.0,0.0,0.0,0.0,0.0,0.0,0.0,0.0,0.0,0.0,0.0,0.0,0.0,0.0,0.0,0.0,0.0,0.0,0.0,0.0,0.0,0.0,0.0,0.0,0.0,-3.1506,-3.1792,-3.2484,-3.2635,-3.2966,-3.3488,-3.3488,-3.3787,-3.43,-3.4511,-3.4609,-3.4592,-3.4675,-3.4787,-3.4899,-3.5041,-3.5088,-3.5088,-3.5245,-3.5291,-3.5291,-3.5291,-3.5245,-3.5188,-3.5854,-3.6007,-3.5992,0.0,0.0,0.0,0.0,0.0,0.0,0.0,0.0,0.0,0.0,0.0,0.0,0.0,0.0,0.0,0.0,0.0,0.0,0.0,-1.7175,-1.7575,-1.8269,-1.9892,-2.1199,-2.2123,-2.2168,-2.2197,-2.2237,-2.2237,-2.2265,-2.231,-2.231,-2.2254,-2.2225,-2.2282,-2.231,-2.2321,-2.2381,-2.2409,-2.2426,-2.2426,-2.2377,-2.2299,-2.2065,-2.2879,0.0,0.0,0.0,0.0,0.0,0.0,0.0,-2.1809,-2.1697,-2.152,-2.152,-2.144,-2.1664,0.0,0.0,0.0,0.0,0.0,0.0,0.0,0.0,0.0,0.0,0.0,0.0,0.0,0.0,0.0,0.0,0.0,0.0,0.0,0.0,0.0,0.0,0.0,0.0,0.0,0.0,0.0,0.0,0.0,0.0,-3.1473,-3.1506,-3.1792,-3.2484,-3.2545,-3.2628,-3.2731,-3.2639,-3.2722,0.0,-3.3554,-3.3881,-3.3991,-3.4587,-3.4899,-3.4899,-3.5041,-3.5088,-3.5105,-3.5354,-3.54,-3.5291,-3.54,-3.54,-3.5261,-3.5335,-3.5338,-3.5307,0.0,0.0,0.0,0.0,0.0,0.0,0.0,0.0,0.0,0.0,0.0,0.0,0.0,0.0,0.0,0.0,0.0,0.0,0.0,0.0,-1.7906,-1.9208,-2.0456,-2.144,-2.2197,-2.2242,-2.2254,-2.2254,-2.2282,-2.2282,-2.2254,-2.2254,-2.2225,-2.2214,-2.2242,-2.231,-2.2405,-2.2415,-2.2443,-2.2487,-2.2426,-2.2388,-2.2321,-2.2077,-2.2942,-2.4263,-2.405,0.0,0.0,0.0,0.0,0.0,0.0,0.0,-2.123,-2.1151,-2.1055,-2.1342,0.0,0.0,0.0,0.0,0.0,0.0,0.0,0.0,0.0,0.0,0.0,0.0,0.0,0.0,0.0,0.0,0.0,0.0,0.0,0.0,0.0,0.0,0.0,0.0,0.0,0.0,0.0,0.0,0.0,-3.0582,-3.0962,-3.0978,-3.1143,-3.1462,-3.1523,-3.1731,-3.2078,-3.1989,-3.2171,-3.259,-3.3048,-3.352,-3.4022,-3.4615,-3.4899,-3.4899,-3.5105,-3.5198,-3.5198,-3.5475,-3.552,-3.5458,-3.5503,-3.5475,-3.54,-3.5291,-3.5198,-3.5088,0.0,0.0,0.0,0.0,0.0,0.0,0.0,0.0,0.0,0.0,0.0,0.0,0.0,0.0,0.0,0.0,0.0,0.0,0.0,0.0,0.0,-1.9932,-2.0851,-2.1602,-2.2197,-2.2254,-2.2282,-2.2214,-2.2282,-2.2254,-2.2168,-2.2185,-2.2185,-2.2168,-2.2185,-2.231,-2.246,-2.2422,-2.246,-2.2552,-2.2432,-2.2377,-2.2349,-2.2101,-2.2936,-2.4193,-2.4049,-2.405,-2.4066,-2.3884,0.0,0.0,0.0,0.0,-2.1167,-2.1007,-2.1021,-2.1437,0.0,0.0,0.0,0.0,0.0,0.0,0.0,0.0,0.0,0.0,0.0,0.0,0.0,0.0,0.0,0.0,0.0,0.0,0.0,0.0,0.0,0.0,0.0,0.0,0.0,0.0,0.0,0.0,0.0,-3.0417,-3.0417,-3.0417,-3.0417,-3.0417,-3.0485,-3.0808,-3.1464,-3.1553,-3.1961,-3.2586,-3.2973,-3.3467,-3.4191,-3.4708,-3.4947,-3.4994,-3.5198,-3.5291,-3.5337,-3.5549,-3.5622,-3.5622,-3.5622,-3.5549,-3.5537,-3.5492,-3.5354,-3.5198,0.0,0.0,0.0,0.0,0.0,0.0,0.0,0.0,0.0,0.0,-1.6187,0.0,0.0,0.0,0.0,0.0,0.0,0.0,0.0,0.0,0.0,-2.0001,-2.136,-2.2181,-2.2282,-2.2282,-2.2282,-2.2282,-2.2282,-2.2209,-2.2044,-2.2152,-2.2152,-2.2027,-2.2152,-2.2242,-2.2338,-2.231,-2.2366,-2.2405,-2.2338,-2.231,-2.231,-2.2225,-2.2999,-2.4193,-2.4114,-2.4414,-2.4742,-2.4048,-2.3178,0.0,0.0,0.0,0.0,-2.1167,-2.1617,-2.2276,0.0,0.0,0.0,0.0,0.0,0.0,0.0,0.0,0.0,0.0,0.0,0.0,0.0,0.0,0.0,0.0,0.0,0.0,0.0,0.0,0.0,0.0,0.0,0.0,0.0,0.0,0.0,0.0,-3.0485,-3.0443,-3.0401,-3.0443,-3.0485,-3.0485,-3.0485,-3.0659,-3.0981,-3.1533,-3.19,-3.2101,-3.3433,-3.4041,-3.4051,-3.4864,-3.5245,-3.5245,-3.5291,-3.5354,-3.5492,-3.5532,-3.5622,-3.5622,-3.5622,-3.5577,-3.5594,-3.5537,-3.5492,-3.5446,0.0,0.0,0.0,0.0,0.0,0.0,0.0,0.0,0.0,0.0,0.0,-1.6487,0.0,0.0,0.0,0.0,0.0,0.0,0.0,0.0,0.0,-2.0721,-2.1773,-2.2338,-2.231,-2.231,-2.231,-2.231,-2.231,-2.2237,-2.2106,-2.2168,-2.2123,-2.1998,-2.2152,-2.2254,-2.2349,-2.231,-2.2338,-2.2377,-2.2338,-2.231,-2.2282,-2.2135,-2.3013,-2.429,-2.413,-2.4464,-2.501,-2.461,-2.3866,-2.3062,-2.2654,0.0,0.0,0.0,0.0,0.0,0.0,0.0,0.0,0.0,0.0,0.0,0.0,0.0,0.0,0.0,0.0,0.0,0.0,0.0,0.0,0.0,0.0,0.0,0.0,0.0,0.0,0.0,0.0,0.0,0.0,0.0,0.0,0.0,-3.0526,-3.0485,-3.0443,-3.0568,-3.0609,-3.0609,-3.0692,-3.0773,-3.0912,-3.1148,-3.1357,-3.1456,-3.3412,-3.3866,-3.311,-3.4706,-3.5383,-3.5291,-3.54,-3.5446,-3.5492,-3.5594,-3.5622,-3.5622,-3.5622,-3.5622,-3.5577,-3.5549,-3.552,-3.5492,0.0,0.0,0.0,0.0,0.0,0.0,0.0,0.0,0.0,0.0,0.0,0.0,0.0,0.0,0.0,0.0,0.0,0.0,0.0,0.0,0.0,-2.1275,-2.2014,-2.2366,-2.231,-2.231,-2.231,-2.231,-2.231,-2.2282,-2.2242,-2.2254,-2.2192,-2.2101,-2.218,-2.2271,-2.2366,-2.231,-2.2338,-2.2366,-2.231,-2.2282,-2.2271,-2.232,-2.315,-2.4324,-2.4314,-2.4779,-2.5325,-2.5073,-2.4541,-2.3912,-2.363,0.0,0.0,0.0,0.0,0.0,0.0,0.0,0.0,0.0,0.0,0.0,0.0,0.0,0.0,0.0,0.0,0.0,0.0,0.0,0.0,0.0,0.0,0.0,0.0,0.0,0.0,0.0,0.0,0.0,0.0,0.0,0.0,0.0,-3.0526,-3.0526,-3.0526,-3.0609,-3.0692,-3.0733,-3.0871,-3.0912,-3.0992,-3.1177,-3.1261,-3.1318,-3.3229,-3.3592,-3.2604,-3.4435,-3.529,-3.5383,-3.5429,-3.5492,-3.552,-3.5594,-3.5622,-3.5622,-3.5622,-3.5622,-3.5622,-3.5622,-3.5594,-3.552,0.0,0.0,0.0,0.0,0.0,0.0,0.0,0.0,0.0,0.0,0.0,0.0,-1.7178,-1.7321,-1.7467,-1.7669,-1.7738,-1.8155,-1.9024,-2.0482,-2.1336,-2.1292,-2.2014,0.0,-2.231,-2.231,-2.231,-2.231,-2.2349,-2.2366,-2.231,-2.2432,-2.246,-2.2377,-2.2254,-2.2225,-2.231,-2.231,-2.231,-2.231,-2.231,-2.2254,-2.2281,-2.2971,-2.3603,-2.4214,-2.488,-2.5594,-2.6019,-2.5254,-2.4956,0.0,0.0,0.0,0.0,0.0,0.0,0.0,0.0,0.0,0.0,0.0,0.0,0.0,0.0,0.0,0.0,0.0,0.0,0.0,0.0,0.0,0.0,0.0,0.0,0.0,0.0,0.0,0.0,0.0,0.0,0.0,0.0,0.0,0.0,0.0,-3.0526,-3.0526,-3.0526,-3.0609,-3.0773,-3.0871,-3.0912,-3.0992,-3.119,-3.1884,-3.2181,-3.2042,-3.3026,-3.3355,-3.3253,-3.4158,-3.4945,-3.5577,-3.552,-3.552,-3.5577,-3.5622,-3.5622,-3.5622,-3.5622,-3.5622,-3.5622,-3.5622,-3.5577,-3.5577,0.0,0.0,0.0,0.0,0.0,0.0,0.0,0.0,0.0,0.0,0.0,0.0,0.0,-1.7365,-1.7535,-1.7687,-1.7839,-1.85,-1.9836,-2.0443,-2.1181,-2.208,-2.2351,-2.2432,-2.2366,-2.231,-2.231,-2.231,-2.2366,-2.2377,-2.2366,-2.246,-2.2487,-2.246,-2.2366,-2.2338,-2.2366,-2.231,-2.231,-2.231,-2.231,-2.2569,-2.2979,-2.322,-2.4031,0.0,0.0,0.0,0.0,0.0,0.0,0.0,0.0,0.0,0.0,0.0,0.0,0.0,0.0,0.0,0.0,0.0,0.0,0.0,0.0,0.0,0.0,0.0,0.0,0.0,0.0,0.0,0.0,0.0,0.0,0.0,0.0,0.0,0.0,0.0,0.0,0.0,0.0,0.0,0.0,0.0,0.0,-3.0568,-3.0733,-3.079,-3.0855,-3.0935,-3.1032,-3.1112,-3.119,-3.1918,-3.2053,-3.1556,-3.279,-3.3152,-3.2705,-3.3947,-3.4641,-3.4928,-3.5374,-3.5594,-3.5622,-3.5622,-3.5622,-3.5622,-3.5622,-3.5622,-3.5622,-3.5622,-3.5622,-3.5577,0.0,0.0,0.0,0.0,0.0,0.0,0.0,0.0,0.0,-1.6948,0.0,0.0,0.0,0.0,-1.7659,-1.7827,-1.8427,-1.927,-2.0336,-2.0894,-2.1592,-2.2571,-2.2569,-2.2515,-2.2432,-2.2366,-2.2338,-2.2338,-2.2394,-2.2405,-2.2432,-2.2515,-2.2525,-2.2542,-2.246,-2.2405,-2.2394,-2.2338,0.0,-2.2327,0.0,0.0,-2.3431,0.0,0.0,0.0,0.0,0.0,0.0,0.0,0.0,0.0,0.0,0.0,0.0,0.0,0.0,0.0,0.0,0.0,0.0,0.0,0.0,0.0,0.0,0.0,0.0,0.0,0.0,0.0,0.0,0.0,0.0,0.0,0.0,0.0,0.0,0.0,0.0,0.0,0.0,0.0,0.0,0.0,0.0,0.0,0.0,0.0,-3.0871,-3.0912,-3.0975,-3.1055,-3.1173,-3.1213,-3.1213,-3.1726,-3.1726,-3.123,-3.2425,-3.2763,-3.2364,-3.3812,-3.4489,-3.4539,-3.5301,-3.5622,-3.5622,-3.5622,-3.5622,-3.5622,-3.5622,-3.5622,-3.5622,-3.5622,-3.5622,-3.5577,0.0,0.0,0.0,0.0,0.0,0.0,0.0,0.0,-1.7272,-1.7209,0.0,0.0,0.0,0.0,0.0,-1.8091,-1.9487,-2.0371,-2.0394,-2.1807,-2.2642,-2.2605,-2.2605,-2.2569,-2.2515,-2.2432,-2.2405,-2.2405,-2.2405,-2.2432,-2.2515,-2.2569,-2.2605,-2.2596,-2.2542,-2.246,-2.2394,0.0,-2.231,-2.2361,0.0,-2.3363,-2.3506,0.0,0.0,0.0,-2.6268,-2.6434,0.0,0.0,0.0,0.0,0.0,0.0,0.0,0.0,0.0,0.0,0.0,0.0,0.0,0.0,0.0,0.0,0.0,0.0,0.0,0.0,0.0,0.0,0.0,0.0,0.0,0.0,0.0,0.0,0.0,0.0,0.0,0.0,0.0,0.0,0.0,0.0,0.0,0.0,-3.0692,-3.0773,-3.0912,-3.0992,-3.1072,-3.119,-3.1274,-3.1295,-3.1295,-3.1295,-3.1295,-3.1295,-3.1964,-3.2297,-3.2364,-3.3761,-3.4438,-3.4506,-3.5233,-3.5554,-3.5554,-3.5605,-3.5605,-3.5588,-3.5605,-3.5605,-3.5588,-3.5605,-3.5622,-3.5622,0.0,0.0,0.0,0.0,0.0,0.0,-1.7138,-1.7263,-1.7363,0.0,0.0,0.0,-1.7732,-1.7893,-1.807,-1.8151,-1.9029,-1.9762,-2.036,-2.1325,-2.2117,-2.2642,-2.2649,-2.2579,-2.2579,-2.246,-2.2432,-2.246,-2.246,-2.2515,-2.2579,-2.2579,-2.2605,-2.2579,-2.2487,-2.2422,-2.2394,-2.2338,0.0,-2.2327,-2.253,-2.3241,0.0,0.0,0.0,0.0,0.0,-2.6589,-2.6537,0.0,-2.6417,-2.6295,0.0,0.0,0.0,0.0,0.0,0.0,-2.6383,0.0,0.0,0.0,0.0,0.0,0.0,0.0,0.0,0.0,0.0,0.0,0.0,0.0,0.0,0.0,0.0,0.0,0.0,0.0,0.0,0.0,0.0,0.0,0.0,0.0,0.0,0.0,-3.0692,-3.0773,-3.0975,-3.1072,-3.1151,-3.119,-3.1274,-3.1295,-3.1295,-3.1406,-3.1462,-3.1462,-3.1516,-3.1885,-3.2462,-3.2771,-3.3186,-3.3728,-3.3931,-3.4015,-3.41,-3.5182,-3.5301,-3.4861,-3.5402,-3.5284,-3.4861,-3.5419,-3.5622,-3.5622,0.0,0.0,0.0,0.0,0.0,-1.7145,-1.7231,-1.7379,-1.7444,0.0,0.0,0.0,-1.7945,-1.8103,-1.8335,-1.8715,-1.9366,-2.0073,-2.0891,-2.1643,-2.2263,-2.2694,-2.2659,-2.2632,-2.2632,-2.2515,-2.2487,-2.2542,-2.246,-2.246,-2.2569,-2.2542,-2.2515,-2.2515,-2.2432,-2.2405,-2.2394,0.0,0.0,0.0,-2.262,0.0,0.0,-2.4831,-2.5676,0.0,0.0,0.0,-2.6606,-2.6606,-2.6503,0.0,0.0,0.0,0.0,0.0,0.0,-2.6135,-2.6168,-2.6371,0.0,0.0,0.0,0.0,-2.5253,-2.5426,0.0,0.0,0.0,0.0,0.0,0.0,0.0,0.0,0.0,0.0,0.0,0.0,0.0,0.0,0.0,0.0,0.0,-2.945,-3.0103,-3.0225,-3.0566,-3.0895,-3.1117,-3.1213,-3.1269,-3.1308,-3.1406,-3.1428,-3.1428,-3.1521,-3.1538,-3.1538,-3.173,-3.1873,-3.2026,-3.2517,-3.2814,-3.2949,-3.3271,-3.3406,-3.3474,-3.4336,-3.4438,-3.4117,-3.4861,-3.4692,-3.4167,-3.5233,-3.5419,-3.5243,0.0,0.0,0.0,-1.6988,-1.711,-1.7219,-1.7289,-1.7419,-1.7552,0.0,-1.7766,-1.7945,-1.8158,-1.8266,-1.8641,-1.9421,-2.0114,-2.0835,-2.1655,-2.2324,-2.2712,-2.2712,-2.2712,-2.2712,-2.2712,-2.2569,-2.2525,-2.2605,-2.2422,-2.2394,-2.2515,-2.2432,-2.2405,-2.2405,-2.2394,0.0,-2.2394,0.0,0.0,-2.2264,-2.2992,-2.3735,0.0,0.0,-2.5981,0.0,-2.6725,-2.6691,-2.664,-2.6657,-2.6589,0.0,0.0,0.0,0.0,0.0,-2.5695,-2.5741,-2.5722,-2.6148,-2.647,0.0,0.0,0.0,-2.4421,-2.4441,-2.4616,0.0,0.0,0.0,0.0,0.0,0.0,0.0,0.0,0.0,0.0,0.0,0.0,0.0,0.0,0.0,-2.7317,-2.8506,-2.9341,-2.9459,-3.0319,-3.0931,-3.1295,-3.1295,-3.1351,-3.1517,-3.1559,-3.1617,-3.1617,-3.1617,-3.1617,-3.1596,-3.2161,-3.2009,-3.1346,-3.2584,-3.2797,-3.2188,-3.2865,-3.3169,-3.3169,-3.3169,-3.3203,-3.3355,-3.4083,-3.3931,-3.3457,-3.4861,-3.5101,-3.478,0.0,0.0,-1.6969,-1.6995,-1.7145,-1.7279,-1.7297,-1.7461,-1.7586,-1.7659,-1.7941,-1.8136,-1.8198,-1.8301,-1.8679,-1.9439,-2.0102,-2.0835,-2.1581,-2.2298,-2.2712,-2.2712,-2.2712,-2.2712,-2.2712,-2.2569,-2.2525,-2.2605,-2.246,-2.2405,-2.2515,-2.2432,-2.2432,-2.2487,-2.2366,-2.2366,0.0,0.0,0.0,-2.2231,-2.2434,0.0,-2.4492,-2.4689,-2.5654,-2.6876,-2.6909,-2.6942,-2.6909,0.0,-2.6893,-2.6876,0.0,0.0,0.0,0.0,0.0,0.0,0.0,0.0,0.0,0.0,0.0,0.0,-2.3778,-2.416,-2.4635,0.0,0.0,0.0,0.0,0.0,0.0,0.0,0.0,0.0,0.0,0.0,0.0,0.0,0.0,0.0,-2.7374,-2.8173,-2.871,-2.8786,-2.9609,-3.0454,-3.1261,-3.1295,-3.1351,-3.1517,-3.1559,-3.1617,-3.1617,-3.1709,-3.1709,-3.1617,-3.1654,-3.156,-3.1312,-3.1517,-3.1546,-3.141,-3.1562,-3.163,-3.163,-3.163,-3.1968,-3.2577,-3.3322,-3.3152,-3.2652,-3.3651,-3.4304,-3.4712,0.0,0.0,-1.7055,-1.7097,-1.7221,-1.7304,-1.7345,-1.7543,-1.7716,-1.7783,-1.8061,-1.8258,-1.8305,-1.8752,-1.9342,-2.0088,-2.0721,-2.1448,-2.2202,-2.2505,-2.2659,-2.2712,-2.2712,-2.2712,-2.2712,-2.2569,-2.2525,-2.2605,-2.2432,-2.2377,-2.246,-2.2394,-2.2366,-2.2394,-2.2338,-2.231,0.0,0.0,-2.2485,-2.2794,-2.288,0.0,-2.4557,-2.5053,-2.5953,-2.6942,-2.6975,-2.7007,-2.7007,-2.699,-2.7007,0.0,0.0,-2.6973,-2.6939,0.0,-2.6475,-2.6336,0.0,0.0,0.0,-2.4885,0.0,0.0,0.0,-2.439,-2.4734,0.0,0.0,0.0,0.0,0.0,0.0,0.0,0.0,0.0,0.0,0.0,0.0,0.0,0.0,0.0,-2.695,-2.7637,-2.8297,-2.874,-2.9538,-3.0264,-3.0848,-3.1261,-3.1504,-3.1668,-3.1671,-3.1709,-3.1709,-3.1709,-3.1671,-3.1617,-3.1466,-3.1351,-3.1295,-3.1213,-3.119,-3.119,-3.119,-3.119,-3.119,-3.119,-3.141,-3.1799,-3.2544,-3.2391,-3.1867,-3.3083,-3.3828,-3.4286,0.0,0.0,-1.7125,-1.7199,-1.7273,-1.733,-1.7379,-1.7607,-1.782,-1.7924,-1.8164,-1.8367,-1.8578,-1.9234,-2.0018,-2.092,-2.1422,-2.2019,-2.279,-2.2703,-2.2632,-2.2668,-2.2685,-2.2712,-2.2712,-2.2569,-2.2542,-2.2579,-2.2377,-2.2338,-2.2394,-2.2338,-2.231,-2.231,-2.231,-2.231,0.0,0.0,0.0,-2.341,0.0,-2.4126,-2.4825,-2.561,-2.6373,-2.704,-2.7072,-2.7089,-2.7072,-2.7152,0.0,-2.7105,-2.7198,-2.7152,0.0,0.0,0.0,0.0,0.0,0.0,0.0,0.0,0.0,-2.403,0.0,0.0,0.0,0.0,0.0,0.0,0.0,0.0,0.0,0.0,0.0,0.0,0.0,0.0,0.0,0.0,0.0,0.0,0.0,-2.7214,-2.7926,-2.8687,-2.9485,-3.0125,-3.0501,-3.1222,-3.1671,-3.18,-3.18,-3.18,-3.18,-3.1671,-3.1579,-3.1596,-3.1389,-3.1295,-3.1274,-3.1213,-3.119,-3.119,-3.119,-3.119,-3.119,-3.123,-3.123,-3.128,-3.1873,-3.1715,-3.1343,-3.2584,-3.325,-3.3652,-1.7108,-1.7158,0.0,-1.7214,-1.7304,-1.7375,-1.7388,-1.758,-1.78,-1.8057,-1.8197,-1.8554,-1.9228,-1.9438,-2.0117,-2.1568,-2.1701,0.0,-2.2664,0.0,-2.2668,-2.2616,-2.2668,-2.2712,-2.2712,-2.2569,-2.2515,-2.2515,-2.2366,-2.231,-2.231,-2.231,-2.2338,-2.2394,-2.2338,0.0,0.0,0.0,-2.2733,0.0,-2.43,-2.5016,0.0,-2.5797,-2.6419,-2.7198,-2.7296,-2.733,-2.7299,0.0,-2.7345,-2.7345,0.0,-2.7359,-2.7327,0.0,0.0,0.0,0.0,0.0,0.0,0.0,-2.4726,0.0,0.0,0.0,0.0,0.0,0.0,0.0,0.0,0.0,0.0,0.0,0.0,0.0,0.0,0.0,0.0,0.0,0.0,0.0,0.0,-2.7124,-2.7499,-2.8135,-2.899,-2.9814,-3.0557,-3.1242,-3.1671,-3.18,-3.18,-3.18,-3.18,-3.1671,-3.1559,-3.1517,-3.1351,-3.1274,-3.123,-3.119,-3.119,-3.119,-3.119,-3.119,-3.119,-3.1274,-3.1295,-3.1274,-3.1314,-3.1258,-3.1247,-3.1589,-3.2144,-3.2849,-1.7142,-1.7191,0.0,0.0,-1.7382,-1.7486,-1.7566,-1.7777,-1.816,-1.8771,-1.893,-1.9286,0.0,0.0,0.0,0.0,0.0,-2.2427,0.0,0.0,-2.2627,-2.2615,-2.2632,-2.2605,-2.2579,-2.2542,-2.2515,-2.2515,-2.2405,-2.2366,-2.2366,-2.231,-2.231,-2.2338,-2.231,0.0,-2.2316,0.0,-2.3359,0.0,0.0,0.0,0.0,-2.6688,-2.7002,-2.7386,-2.7452,-2.7452,-2.7421,0.0,-2.7483,0.0,0.0,0.0,0.0,0.0,0.0,0.0,0.0,0.0,0.0,0.0,0.0,0.0,-2.5987,0.0,-2.5624,0.0,0.0,0.0,0.0,0.0,0.0,0.0,0.0,0.0,0.0,0.0,0.0,0.0,0.0,0.0,0.0,0.0,0.0,0.0,-2.8437,-2.9196,-2.9972,-3.0713,-3.1334,-3.1783,-3.18,-3.1746,-3.1654,-3.1596,-3.15,-3.1368,-3.1291,-3.123,-3.119,-3.119,-3.119,-3.119,-3.119,-3.119,-3.119,-3.1274,-3.1295,-3.1295,-3.1346,-3.1346,-3.1385,-3.1368,-3.1961,-3.2757,-1.7238,0.0,0.0,0.0,0.0,-1.7555,-1.7719,-1.7939,-1.8415,-1.9252,0.0,0.0,-2.0729,-2.1395,0.0,0.0,-2.2486,-2.2738,0.0,0.0,-2.2617,-2.2571,-2.2596,0.0,0.0,0.0,-2.2487,-2.2487,-2.2432,-2.2377,-2.2366,-2.2338,-2.231,-2.231,0.0,-2.231,-2.2304,0.0,0.0,-2.4635,-2.5431,-2.6339,-2.723,-2.7359,-2.7452,-2.7496,-2.7526,-2.7526,-2.7496,-2.7587,-2.7557,0.0,-2.7672,0.0,0.0,0.0,0.0,0.0,-2.6437,0.0,0.0,0.0,0.0,0.0,0.0,0.0,0.0,0.0,0.0,0.0,0.0,0.0,0.0,0.0,0.0,0.0,0.0,0.0,0.0,0.0,0.0,0.0,0.0,0.0,0.0,-2.7434,-2.8164,-2.8824,-2.9362,-3.0283,-3.1009,-3.1509,-3.1679,-3.1763,-3.1617,-3.1538,-3.1423,-3.1295,-3.1213,-3.119,-3.119,-3.119,-3.119,-3.119,-3.119,-3.119,-3.119,-3.1329,-3.1351,-3.1351,-3.15,-3.1538,-3.1576,-3.1428,-3.1846,-3.2509,-1.7389,-1.7327,0.0,0.0,0.0,0.0,0.0,0.0,0.0,0.0,0.0,0.0,0.0,0.0,0.0,0.0,0.0,-2.2695,-2.2712,0.0,-2.2651,-2.2521,-2.2559,-2.2552,0.0,0.0,0.0,-2.2405,-2.2405,-2.2366,-2.231,-2.231,-2.231,-2.231,-2.2366,-2.2394,-2.2428,-2.3187,-2.3947,-2.4769,-2.5555,-2.6526,-2.7496,0.0,-2.7496,-2.7496,-2.7587,0.0,0.0,-2.7587,-2.7587,0.0,0.0,0.0,0.0,0.0,0.0,0.0,0.0,0.0,0.0,-2.71,0.0,0.0,0.0,0.0,-2.7023,0.0,0.0,0.0,0.0,0.0,-2.6975,-2.6975,-2.6975,0.0,0.0,0.0,0.0,0.0,0.0,0.0,0.0,0.0,0.0,-2.7587,-2.8338,-2.8823,-2.8899,-3.0107,-3.0802,-3.082,-3.1457,-3.1763,-3.1617,-3.1538,-3.1423,-3.1295,-3.1213,-3.119,-3.119,-3.119,-3.119,-3.119,-3.119,-3.119,-3.123,-3.1385,-3.1479,-3.1517,-3.1559,-3.1671,-3.1746,-3.1617,-3.1596,-3.1771,0.0,0.0,0.0,0.0,0.0,0.0,0.0,-1.8488,0.0,0.0,0.0,0.0,0.0,0.0,-2.2405,0.0,0.0,-2.2781,-2.2763,-2.2763,0.0,0.0,0.0,-2.2485,0.0,0.0,0.0,0.0,0.0,-2.2426,-2.2366,-2.2366,-2.2338,-2.231,0.0,-2.2405,0.0,0.0,0.0,0.0,0.0,-2.7134,-2.7496,0.0,0.0,-2.7659,-2.7659,-2.7642,0.0,-2.7659,-2.7689,-2.7642,-2.763,-2.7569,-2.7496,-2.7452,-2.7376,0.0,0.0,0.0,-2.7184,-2.7233,0.0,0.0,0.0,0.0,0.0,0.0,0.0,0.0,0.0,0.0,-2.6959,-2.6975,-2.7007,-2.7007,0.0,0.0,0.0,0.0,0.0,0.0,0.0,0.0,0.0,-2.7783,-2.8088,-2.8458,-2.8877,-2.9309,-2.9687,-2.9989,-3.0733,-3.1022,-3.082,-3.1261,-3.1423,-3.1213,-3.123,-3.119,-3.119,-3.119,-3.119,-3.119,-3.119,-3.123,-3.1274,-3.1423,-3.1538,-3.1596,-3.1671,-3.1746,-3.1783,-3.1671,-3.1671,-3.1849,-1.7472,0.0,0.0,0.0,0.0,0.0,0.0,0.0,0.0,0.0,-2.1143,0.0,-2.2463,0.0,-2.2681,0.0,-2.2754,-2.2755,-2.2747,-2.2781,0.0,-2.2556,-2.2542,0.0,0.0,0.0,0.0,0.0,0.0,-2.2473,-2.2409,-2.2415,-2.2405,-2.2377,0.0,-2.246,-2.2573,0.0,-2.4824,0.0,0.0,-2.7421,0.0,0.0,-2.76,-2.7701,0.0,-2.7701,-2.7701,-2.7701,-2.7701,-2.7701,-2.7659,-2.7569,-2.7526,-2.7452,-2.7376,-2.733,-2.7299,-2.7233,0.0,-2.7282,-2.7233,0.0,-2.7184,0.0,0.0,0.0,0.0,0.0,0.0,0.0,-2.7007,-2.7072,-2.7122,-2.7137,0.0,-2.723,0.0,0.0,0.0,0.0,0.0,0.0,-2.7871,-2.7946,-2.7957,-2.8141,0.0,0.0,-2.8917,-2.9242,-2.9903,-3.0176,-2.9997,-3.0421,-3.0683,-3.0818,-3.0818,-3.0954,-3.119,-3.119,-3.119,-3.119,-3.123,-3.1274,-3.1295,-3.1483,-3.1559,-3.1617,-3.1746,-3.18,-3.18,-3.1709,-3.1709,-3.1869,0.0,0.0,0.0,0.0,-1.7917,0.0,0.0,0.0,-1.9621,0.0,-2.1335,-2.1668,-2.2337,-2.2515,-2.2613,-2.261,-2.2667,0.0,-2.2698,-2.279,0.0,0.0,-2.2556,-2.2517,-2.231,0.0,0.0,0.0,0.0,0.0,-2.2415,-2.249,0.0,0.0,-2.2569,0.0,-2.2708,-2.4202,-2.493,-2.5207,-2.677,-2.7469,-2.7496,-2.7587,-2.763,-2.7701,-2.7701,-2.7701,-2.7701,-2.7701,-2.7701,-2.7701,-2.7701,-2.7659,-2.7587,-2.7526,-2.7452,-2.7376,-2.7313,-2.733,-2.733,-2.7299,-2.7282,0.0,0.0,0.0,-2.7282,0.0,0.0,0.0,0.0,0.0,0.0,-2.7282,-2.7362,-2.7438,-2.7496,0.0,0.0,0.0,0.0,0.0,0.0,-2.7701,-2.7806,-2.7986,-2.7946,0.0,0.0,0.0,-2.8557,-2.8557,-2.9007,-2.9246,-2.916,-2.9157,-2.9474,-3.0108,-3.0142,-3.0531,-3.119,-3.119,-3.119,-3.119,-3.1274,-3.1295,-3.1334,-3.1504,-3.1617,-3.1617,-3.1746,-3.18,-3.18,-3.18,-3.18,-3.18,-1.7794,-1.7922,-1.8005,0.0,-1.7983,-1.8261,0.0,0.0,0.0,0.0,-2.1422,-2.1747,-2.2483,-2.2576,-2.2603,-2.2667,-2.2798,0.0,0.0,0.0,0.0,-2.2647,-2.2674,-2.2613,-2.244,-2.2474,0.0,-2.2457,0.0,0.0,-2.2493,0.0,0.0,0.0,0.0,0.0,-2.2754,-2.3739,-2.485,-2.6045,-2.7083,-2.7496,0.0,0.0,-2.7701,-2.7701,-2.7701,-2.7701,-2.7701,-2.7701,-2.7701,-2.7701,-2.763,-2.76,-2.7587,-2.7452,-2.7452,-2.7452,-2.7376,-2.739,-2.7452,-2.7376,-2.7376,-2.7345,0.0,0.0,0.0,0.0,0.0,0.0,0.0,0.0,0.0,-2.7282,-2.7362,-2.7438,0.0,0.0,0.0,0.0,0.0,0.0,-2.7701,-2.7795,-2.7888,-2.7917,-2.7975,0.0,0.0,0.0,0.0,-2.7866,-2.8557,-2.8828,-2.8612,-2.9625,-3.0094,-3.0019,-3.0632,-3.0965,-3.1055,-3.1151,-3.119,-3.119,-3.1274,-3.1351,-3.1462,-3.1559,-3.1671,-3.1746,-3.18,-3.18,-3.18,-3.18,-3.18,-3.18,-1.7883,0.0,0.0,-1.8048,0.0,0.0,-1.948,0.0,0.0,-2.1606,-2.1892,0.0,-2.2517,-2.2613,-2.2667,-2.2685,-2.2763,0.0,-2.2755,0.0,0.0,-2.2651,-2.2684,-2.2649,-2.2504,-2.2504,0.0,-2.2504,0.0,0.0,-2.2563,0.0,0.0,0.0,0.0,-2.2685,0.0,-2.395,-2.5149,-2.6365,-2.7183,0.0,0.0,-2.7672,-2.7701,-2.7701,-2.7701,-2.7701,-2.7701,-2.7701,-2.7701,-2.7701,-2.7659,-2.763,-2.763,-2.7513,-2.7496,-2.7526,-2.7452,-2.7483,-2.7496,-2.7452,-2.7438,-2.7376,-2.7264,-2.7215,-2.7184,0.0,-2.712,-2.7105,0.0,0.0,0.0,0.0,0.0,0.0,0.0,0.0,0.0,0.0,0.0,0.0,-2.7701,-2.7777,-2.7842,-2.7888,0.0,0.0,0.0,0.0,0.0,-2.7617,-2.79,-2.7982,-2.782,-2.8476,-2.888,-2.9003,-2.9779,-3.0263,-3.0527,-3.0999,-3.123,-3.1252,-3.1368,-3.1445,-3.1576,-3.1634,-3.1746,-3.18,-3.18,-3.18,-3.18,-3.18,-3.18,-3.18,0.0,0.0,0.0,0.0,0.0,0.0,0.0,-2.0125,0.0,-2.2135,0.0,-2.2502,-2.2525,-2.2632,-2.2712,-2.2712,0.0,-2.2721,-2.2708,-2.2768,-2.2762,-2.2616,-2.2668,-2.2668,-2.2502,-2.2512,0.0,0.0,0.0,0.0,0.0,0.0,0.0,0.0,0.0,0.0,0.0,-2.4552,-2.5594,-2.6411,-2.7213,-2.7557,-2.76,-2.7672,-2.7701,-2.7701,-2.7701,-2.7701,-2.7701,-2.7701,-2.7701,-2.7701,-2.7701,-2.7701,-2.7701,-2.76,-2.7617,-2.7617,-2.7526,-2.7526,-2.7496,-2.7496,-2.7452,-2.7407,-2.7376,-2.7362,-2.7299,-2.7299,-2.7201,-2.7152,0.0,0.0,0.0,0.0,0.0,0.0,0.0,0.0,0.0,0.0,0.0,0.0,0.0,-2.7701,-2.7748,0.0,0.0,0.0,0.0,0.0,0.0,-2.7587,-2.7293,-2.7135,-2.7103,0.0,-2.7112,-2.77,-2.8457,-2.9147,-2.9787,-3.0661,-3.1099,-3.1159,-3.1389,-3.1538,-3.1617,-3.1746,-3.18,-3.18,-3.18,-3.18,-3.18,-3.18,-3.18,-3.1783,0.0,0.0,0.0,0.0,0.0,-1.9148,-2.0057,-1.9737,-2.0137,-2.2197,-2.2099,-2.2047,-2.259,-2.2685,-2.2712,-2.2712,-2.2746,0.0,0.0,0.0,0.0,-2.2685,-2.2746,-2.2708,-2.2575,-2.263,-2.2651,0.0,0.0,0.0,0.0,0.0,0.0,0.0,0.0,0.0,-2.4034,-2.4898,0.0,-2.6608,-2.7302,-2.763,-2.7672,-2.7701,-2.7701,-2.7701,-2.7701,-2.7701,-2.7701,-2.7701,-2.7701,-2.7701,-2.7701,-2.7701,-2.7701,-2.76,-2.763,-2.7672,-2.76,-2.7587,-2.7557,-2.7526,-2.7452,-2.7393,-2.733,-2.733,-2.7299,-2.7299,-2.7282,-2.7282,-2.7299,0.0,0.0,0.0,0.0,0.0,0.0,0.0,0.0,0.0,0.0,0.0,0.0,0.0,0.0,0.0,0.0,0.0,0.0,0.0,0.0,0.0,-2.7404,0.0,0.0,0.0,-2.7758,-2.77,-2.8583,-2.8969,-2.9029,-2.9918,-3.0315,-3.0428,-3.1189,-3.1538,-3.1617,-3.1746,-3.18,-3.18,-3.18,-3.18,-3.18,-3.18,-3.18,-3.18,0.0,0.0,0.0,0.0,0.0,0.0,0.0,-2.026,0.0,-2.2272,-2.2323,-2.2341,-2.2624,-2.2685,-2.2712,-2.2747,-2.2755,-2.2763,-2.2798,-2.2798,-2.2763,-2.2712,-2.2729,0.0,-2.2644,-2.2728,-2.2729,-2.2712,0.0,0.0,0.0,0.0,0.0,0.0,0.0,-2.3397,0.0,0.0,0.0,-2.6654,-2.735,-2.763,-2.7701,-2.7701,-2.7701,-2.7701,-2.7701,-2.7701,-2.7701,-2.7701,-2.7701,-2.7701,-2.7701,-2.7701,-2.7701,-2.7659,-2.7672,-2.7701,-2.7659,-2.7659,-2.763,-2.7587,-2.7496,-2.7421,-2.7393,-2.7313,-2.7299,-2.7299,-2.7299,-2.7299,-2.7299,-2.7345,0.0,0.0,0.0,0.0,0.0,0.0,0.0,0.0,0.0,0.0,0.0,0.0,0.0,0.0,0.0,0.0,0.0,0.0,0.0,0.0,0.0,0.0,0.0,0.0,0.0,-2.7197,-2.8345,-2.8645,-2.8289,-2.9935,-3.0523,-3.0333,-3.1138,-3.1576,-3.1709,-3.1746,-3.18,-3.18,-3.18,-3.18,-3.18,-3.18,-3.18,-3.18,0.0,-1.91,0.0,0.0,-1.9047,0.0,-2.037,-2.1088,-2.1778,-2.2392,-2.2605,-2.2712,-2.2659,-2.2685,-2.2738,-2.2782,-2.2721,-2.2729,-2.2781,-2.2729,-2.2712,-2.2729,-2.2729,-2.2729,-2.2746,-2.2781,-2.279,0.0,0.0,0.0,0.0,0.0,0.0,0.0,0.0,0.0,0.0,0.0,-2.5852,-2.6894,-2.7402,-2.7659,-2.7748,-2.7748,-2.7748,-2.7748,-2.7748,-2.773,-2.7701,-2.7701,-2.7701,-2.7701,-2.7701,-2.7701,-2.7701,-2.7701,-2.7701,-2.7701,-2.7672,-2.7672,-2.7659,-2.7587,-2.7513,-2.7452,-2.7376,-2.7362,-2.7299,-2.7299,-2.733,-2.733,-2.7345,-2.7421,0.0,0.0,0.0,0.0,0.0,0.0,0.0,0.0,0.0,0.0,0.0,0.0,0.0,0.0,0.0,0.0,0.0,0.0,0.0,0.0,0.0,-2.7324,-2.7085,0.0,-2.6691,-2.6708,-2.7838,-2.814,-2.7786,-2.98,-3.0611,-3.0424,-3.1138,-3.1576,-3.1746,-3.18,-3.18,-3.18,-3.18,-3.18,-3.18,-3.18,-3.18,-3.18,0.0,0.0,0.0,0.0,0.0,0.0,-2.1259,-2.1996,-2.252,-2.2642,-2.2738,-2.279,-2.279,-2.279,-2.2764,-2.2712,-2.2712,-2.2712,-2.2712,-2.2712,-2.2729,-2.2781,-2.2781,-2.2824,-2.2876,-2.2893,-2.2894,0.0,0.0,-2.2876,0.0,0.0,0.0,0.0,0.0,0.0,0.0,-2.5339,-2.6244,-2.7596,-2.7683,-2.7766,-2.7888,-2.7888,-2.7888,-2.7888,-2.7888,-2.7795,-2.7701,-2.7701,-2.7701,-2.7701,-2.7701,-2.7701,-2.7701,-2.7701,-2.7701,-2.7701,-2.763,-2.7617,-2.7587,-2.7469,-2.7407,-2.7376,-2.7313,-2.7282,-2.7299,-2.7299,-2.7362,-2.7407,-2.7465,-2.7496,-2.7496,0.0,0.0,0.0,0.0,0.0,0.0,0.0,0.0,0.0,0.0,-2.7421,0.0,0.0,0.0,0.0,0.0,0.0,0.0,-2.7244,0.0,-2.7085,-2.6758,-2.6725,-2.6691,-2.6691,-2.6826,-2.7198,-2.7806,-2.8772,-2.959,-3.0241,-3.0989,-3.1428,-3.1617,-3.1746,-3.18,-3.18,-3.18,-3.18,-3.18,-3.18,-3.18,-3.18,0.0,0.0,0.0,0.0,0.0,0.0,0.0,-2.2151,-2.2659,-2.2868,-2.2842,-2.2816,-2.2816,-2.2816,-2.2816,-2.2816,-2.2738,-2.2764,-2.2868,-2.2799,-2.279,-2.2868,-2.2876,-2.2875,-2.291,-2.2944,-2.2943,0.0,0.0,0.0,0.0,0.0,0.0,0.0,0.0,-2.3867,-2.5347,-2.5374,-2.6297,-2.7701,-2.7795,-2.7842,-2.7888,-2.7888,-2.7888,-2.7888,-2.7888,-2.7795,-2.7701,-2.7701,-2.7701,-2.7701,-2.7701,-2.7701,-2.7701,-2.7701,-2.7701,-2.7701,-2.7617,-2.763,-2.763,-2.7438,-2.7469,-2.7483,-2.7313,-2.733,-2.7362,-2.7362,-2.7438,-2.7513,-2.7496,-2.7526,-2.7557,-2.7557,0.0,0.0,0.0,0.0,0.0,0.0,0.0,0.0,0.0,0.0,0.0,0.0,0.0,0.0,0.0,0.0,0.0,-2.7213,0.0,-2.7103,-2.6892,-2.6825,-2.6825,-2.6842,-2.7673,-2.7977,-2.784,-2.955,-3.054,-3.087,-3.127,-3.1483,-3.1617,-3.1671,-3.1709,-3.18,-3.18,-3.18,-3.18,-3.18,-3.18,-3.18,-1.9497,0.0,-1.9564,0.0,-2.0252,-2.0787,-2.1821,-2.2393,-2.2764,-2.2952,-2.2919,-2.2868,-2.2868,-2.2868,-2.2868,-2.2893,-2.2816,-2.2816,-2.297,-2.2876,-2.285,-2.2936,-2.2943,0.0,-2.3007,-2.3025,-2.3025,-2.3007,-2.3007,0.0,0.0,0.0,0.0,0.0,-2.2993,-2.3884,-2.5322,-2.5384,-2.6297,-2.7701,-2.7795,-2.7859,-2.7888,-2.7888,-2.7888,-2.7888,-2.7888,-2.7795,-2.7701,-2.7701,-2.7701,-2.7701,-2.7701,-2.7701,-2.7701,-2.7701,-2.7701,-2.7701,-2.7617,-2.7659,-2.7642,-2.7483,-2.7513,-2.7557,-2.7376,-2.7362,-2.7407,-2.7407,-2.7483,-2.7557,-2.7526,-2.7569,-2.763,-2.7617,0.0,0.0,0.0,0.0,0.0,0.0,-2.7465,-2.7478,-2.7448,0.0,0.0,0.0,0.0,0.0,0.0,0.0,0.0,0.0,0.0,0.0,-2.6992,-2.6926,-2.6995,-2.7216,-2.8181,-2.8586,-2.8516,-3.0378,-3.123,-3.1274,-3.1368,-3.1483,-3.1504,-3.1579,-3.1671,-3.1746,-3.1783,-3.18,-3.18,-3.18,-3.18,-3.18,-1.963,-1.9403,-1.9797,-2.1389,-2.1032,-2.1032,-2.2633,-2.2876,-2.2919,-2.2995,-2.2995,-2.2995,-2.2995,-2.2995,-2.297,-2.2919,-2.2893,-2.2893,-2.2893,-2.2893,-2.2944,0.0,0.0,-2.3065,-2.319,-2.3137,-2.3137,-2.319,0.0,0.0,-2.3095,0.0,-2.3042,-2.3095,-2.3025,-2.3882,-2.5394,-2.5393,-2.6297,-2.7701,-2.7701,-2.7795,-2.7888,-2.7888,-2.7888,-2.7888,-2.7888,-2.7795,-2.7701,-2.7701,-2.7701,-2.7701,-2.7701,-2.7701,-2.7701,-2.7701,-2.7701,-2.7701,-2.7617,-2.7659,-2.7672,-2.7509,-2.7557,-2.7557,-2.7438,-2.7407,-2.7407,-2.7407,-2.7452,-2.7526,-2.7587,-2.7659,-2.7672,-2.7617,0.0,0.0,0.0,0.0,0.0,0.0,-2.7279,-2.7181,-2.7117,0.0,0.0,0.0,0.0,0.0,0.0,0.0,0.0,-2.7103,-2.7103,0.0,-2.6893,-2.6893,-2.725,-2.7981,-2.7876,-2.86,-3.0108,-3.0852,-3.119,-3.119,-3.1274,-3.1295,-3.1334,-3.1504,-3.1617,-3.1617,-3.1746,-3.18,-3.18,-3.18,-3.18,-3.18,-1.8916,-1.9044,-1.9537,-2.0112,-2.0408,-2.0929,-2.2045,-2.2613,-2.2944,-2.3052,-2.3045,-2.302,-2.3052,-2.3045,-2.2995,0.0,-2.2944,-2.2944,0.0,-2.2977,-2.2995,-2.307,-2.3102,-2.3168,-2.3193,-2.3218,-2.3253,-2.3267,0.0,0.0,0.0,-2.3154,-2.3137,-2.3137,-2.3658,-2.4466,-2.5455,-2.6091,-2.6873,-2.773,-2.7893,-2.7957,-2.7888,-2.7946,-2.7946,-2.7888,-2.7888,-2.7795,-2.7701,-2.7701,-2.7701,-2.7701,-2.7701,-2.7701,-2.7701,-2.7701,-2.7701,-2.7701,-2.7617,-2.7659,-2.7672,-2.7509,-2.7569,-2.763,-2.7496,-2.7496,-2.7544,-2.7544,-2.7569,-2.7642,-2.7672,-2.7701,-2.7701,-2.7672,-2.76,0.0,0.0,0.0,0.0,0.0,-2.7279,-2.7261,0.0,-2.7055,0.0,0.0,0.0,0.0,0.0,0.0,0.0,0.0,-2.7007,0.0,-2.6775,-2.725,-2.7639,-2.7876,-2.889,-2.985,-3.0718,-3.0954,-3.1055,-3.1055,-3.1173,-3.1291,-3.1462,-3.15,-3.1596,-3.1746,-3.18,-3.18,-3.18,-3.18,-3.18,-3.18,-1.8519,-1.8708,-1.9208,-1.9848,-2.0358,-2.1062,-2.217,-2.2705,-2.302,-2.3095,-2.3095,-2.3095,-2.3126,-2.3102,0.0,-2.3045,-2.2995,-2.302,-2.3144,-2.3052,-2.3095,-2.3168,-2.3182,-2.323,-2.3253,-2.33,0.0,-2.3336,-2.3318,-2.3283,-2.3223,-2.3221,-2.3172,-2.3172,-2.395,-2.4716,-2.547,-2.6372,-2.713,-2.773,-2.7968,-2.8003,-2.7888,-2.7946,-2.7946,-2.7888,-2.7842,-2.7777,-2.7701,-2.7701,-2.773,-2.7795,-2.7795,-2.7795,-2.7777,-2.7701,-2.7701,-2.7701,-2.7659,-2.7689,-2.7672,-2.76,-2.7642,-2.7672,-2.7539,-2.7557,-2.7587,-2.7557,-2.763,-2.7701,-2.7689,-2.7672,-2.7701,-2.7701,-2.76,-2.7526,-2.7496,0.0,0.0,0.0,0.0,0.0,0.0,-2.6925,-2.6908,0.0,0.0,0.0,0.0,0.0,0.0,-2.6959,-2.6876,-2.6928,-2.7114,-2.7588,-2.8076,-2.8704,-2.9884,-3.0482,-3.0532,-3.0572,-3.0594,-3.0594,-3.0768,-3.1036,-3.1423,-3.15,-3.1596,-3.1709,-3.18,-3.18,-3.18,-3.18,-3.18,-3.18,-1.8406,-1.8406,-1.886,0.0,-2.0692,0.0,-2.2733,-2.3049,-2.3119,-2.3095,-2.3151,-2.3193,-2.3193,-2.3241,-2.3241,-2.3119,0.0,0.0,0.0,-2.3144,-2.3168,-2.3289,-2.3247,-2.3271,-2.3383,-2.3341,-2.3328,-2.3422,-2.3328,-2.331,-2.331,-2.3241,-2.3249,-2.3312,-2.4059,-2.4791,-2.5547,-2.6437,-2.7137,-2.773,-2.794,-2.7957,-2.7906,-2.7917,-2.7917,-2.7888,-2.7777,-2.773,-2.773,-2.773,-2.7795,-2.7906,-2.7888,-2.7888,-2.7888,-2.7748,-2.7701,-2.7701,-2.7701,-2.7701,-2.7701,-2.7701,-2.7701,-2.7672,-2.763,-2.7617,-2.7587,-2.7526,-2.763,-2.7672,-2.7647,-2.7659,-2.7701,-2.7701,-2.763,-2.7587,-2.7526,-2.7452,-2.7327,0.0,0.0,0.0,-2.6893,-2.6775,-2.6691,0.0,0.0,0.0,0.0,0.0,-2.6893,-2.6893,-2.6775,-2.7063,-2.7772,-2.784,-2.86,-3.0087,-3.0628,-3.0516,-2.98,-2.9883,-2.9921,-2.9972,-3.02,-3.0666,-3.1334,-3.1542,-3.1617,-3.1617,-3.1746,-3.18,-3.18,-3.18,-3.18,-3.18,0.0,0.0,-1.8548,-1.9014,-2.0076,-2.1013,-2.1379,-2.2412,-2.3168,-2.3119,-2.3102,-2.3102,-2.3102,-2.3144,-2.3126,-2.3102,-2.3144,-2.3193,-2.3193,-2.3144,-2.3144,-2.3217,-2.3265,-2.3313,-2.3383,-2.3435,-2.3458,-2.3476,-2.3458,-2.344,-2.3387,-2.3353,-2.3642,-2.4233,-2.497,-2.5728,-2.6532,-2.7412,-2.783,-2.794,-2.8099,-2.8071,-2.7986,-2.8014,-2.8014,-2.7957,-2.794,-2.794,-2.794,-2.794,-2.794,-2.7957,-2.7917,-2.7888,-2.7888,-2.7859,-2.7795,-2.7701,-2.7701,-2.7777,-2.7842,-2.773,-2.7701,-2.7701,-2.7813,-2.7736,-2.7689,-2.7783,-2.7766,-2.7748,-2.7813,-2.7766,-2.7701,-2.7701,-2.763,-2.7587,-2.7587,-2.7526,-2.7373,0.0,-2.7103,-2.7006,-2.6775,-2.6742,-2.6691,0.0,0.0,0.0,0.0,-2.6742,-2.6792,-2.6893,-2.6775,-2.7063,-2.7772,-2.8292,-2.9013,-2.9878,-2.9895,-2.9895,-2.98,-2.9822,-3.0163,-3.0746,-3.0963,-3.1198,-3.1462,-3.1559,-3.1671,-3.1763,-3.18,-3.18,-3.18,-3.18,-3.1819,-3.1875,-1.8502,-1.8465,-1.8588,-1.9014,-2.0097,-2.0996,-2.1339,-2.2435,-2.3168,-2.3119,-2.3144,-2.3144,-2.3144,-2.3168,-2.3193,-2.3193,-2.3168,-2.3168,-2.3193,-2.3168,-2.3193,-2.3289,-2.3313,-2.3378,-2.343,-2.3494,-2.3494,-2.3494,-2.3494,-2.3476,-2.3458,-2.3417,-2.3803,-2.4572,-2.5269,-2.6056,-2.6856,-2.7723,-2.8063,-2.8014,-2.8154,-2.8126,-2.8042,-2.8099,-2.8071,-2.8042,-2.8014,-2.8014,-2.8014,-2.8014,-2.8014,-2.8042,-2.7986,-2.8003,-2.8003,-2.8003,-2.79,-2.7795,-2.7795,-2.7871,-2.7929,-2.7882,-2.7836,-2.7882,-2.7929,-2.7911,-2.7882,-2.7888,-2.7871,-2.7836,-2.7795,-2.7748,-2.7701,-2.7701,-2.7672,-2.763,-2.7617,-2.7526,-2.7417,-2.7181,-2.7117,-2.7038,-2.6825,-2.6792,-2.6792,-2.6792,-2.6742,0.0,-2.6792,-2.6742,-2.6742,-2.6792,-2.6742,-2.7198,-2.826,-2.8908,-2.942,-2.9688,-2.9299,-2.8926,-2.8665,-2.8724,-2.9202,-2.9967,-3.0272,-3.083,-3.1517,-3.1634,-3.1746,-3.18,-3.18,-3.18,-3.18,-3.1819,-3.1875,-3.1894,-1.8522,-1.8522,-1.8733,-1.9418,-2.0181,-2.096,-2.172,-2.2523,-2.3052,-2.3102,-2.3144,-2.3193,-2.3193,-2.3241,-2.3289,-2.3289,-2.3193,-2.3151,-2.3217,-2.3217,-2.3265,-2.3383,-2.3383,-2.3448,-2.3494,-2.3494,-2.3494,-2.3494,-2.3494,-2.3494,-2.3494,-2.3448,-2.3904,-2.4817,-2.5382,-2.6136,-2.707,-2.7794,-2.8071,-2.8042,-2.8154,-2.8154,-2.8126,-2.8126,-2.8126,-2.8099,-2.8042,-2.8042,-2.8042,-2.8042,-2.8071,-2.8126,-2.8099,-2.8099,-2.8099,-2.8099,-2.8014,-2.7917,-2.7917,-2.7975,-2.7996,-2.8042,-2.7996,-2.8014,-2.8014,-2.8042,-2.806,-2.7917,-2.7929,-2.7911,-2.7777,-2.7701,-2.7701,-2.7701,-2.7701,-2.7672,-2.7617,0.0,-2.7434,-2.7213,-2.7149,-2.7038,-2.6926,-2.6926,-2.6926,-2.6893,-2.6792,-2.6826,-2.7012,-2.6911,-2.6911,-2.7029,-2.6928,-2.7467,-2.8757,-2.9453,-2.9588,-2.9259,-2.8643,-2.799,-2.7354,-2.7467,-2.8062,-2.8921,-2.9289,-3.0236,-3.1517,-3.1726,-3.18,-3.18,-3.18,-3.18,-3.1819,-3.1875,-3.193,-3.1984,-1.8579,-1.8542,-1.8557,-1.8755,-1.9391,-2.0149,-2.0939,-2.1754,-2.2471,-2.3032,-2.3119,-2.3119,-2.3119,-2.3168,-2.3217,-2.3217,-2.3241,-2.3265,-2.3289,-2.3289,-2.3313,-2.3401,-2.3383,-2.3448,-2.3494,-2.3494,-2.3494,-2.3494,-2.3494,-2.3494,-2.3494,-2.3494,-2.4242,-2.5615,-2.5722,-2.6587,-2.7984,-2.8119,-2.8182,-2.8154,-2.8182,-2.8182,-2.8182,-2.8182,-2.8182,-2.8182,-2.8182,-2.8154,-2.8154,-2.8154,-2.82,-2.8182,-2.8126,-2.8099,-2.8099,-2.8042,-2.8042,-2.8042,-2.7986,-2.7986,-2.8042,-2.8126,-2.8099,-2.8014,-2.8014,-2.7957,-2.7935,-2.7888,-2.7824,-2.7777,-2.7842,-2.7795,-2.7701,-2.7701,-2.7701,-2.7672,-2.7617,0.0,-2.7434,-2.7213,-2.7149,-2.707,-2.6975,-2.6975,-2.6959,-2.6893,-2.6893,-2.7114,-2.7621,-2.7655,-2.7943,-2.8602,-2.7994,-2.7971,-2.8716,-2.9304,-2.8976,-2.7649,-2.759,-2.7548,-2.7557,-2.7629,-2.8494,-2.9901,-3.0145,-3.0697,-3.1517,-3.1726,-3.18,-3.18,-3.18,-3.1819,-3.1912,-3.1894,-3.202,-3.2144,-1.8579,-1.8559,-1.8663,-1.9102,-1.987,-2.065,-2.1419,-2.2263,-2.29,-2.3116,-2.3151,-2.3151,-2.3151,-2.3193,-2.3217,-2.3241,-2.3313,-2.336,-2.336,-2.336,-2.336,-2.3383,-2.343,-2.3471,-2.3494,-2.3494,-2.3494,-2.3494,-2.3539,-2.3539,-2.3494,-2.3539,-2.4361,-2.58,-2.58,-2.6693,-2.8182,-2.8182,-2.8182,-2.8182,-2.8182,-2.8182,-2.8182,-2.8182,-2.8182,-2.8182,-2.8182,-2.8182,-2.8182,-2.8182,-2.8182,-2.8182,-2.8154,-2.8154,-2.8154,-2.8126,-2.8099,-2.8099,-2.8099,-2.8099,-2.8126,-2.8182,-2.8126,-2.8071,-2.8071,-2.7986,-2.7929,-2.7906,-2.7842,-2.7795,-2.7795,-2.7719,-2.7659,-2.7659,-2.763,0.0,-2.7557,-2.7483,-2.7421,-2.731,-2.7264,-2.7169,-2.7055,-2.7007,-2.7007,-2.7023,-2.6892,-2.6945,-2.7369,-2.7639,-2.818,-2.8958,-2.8564,-2.8457,-2.8736,-2.8557,-2.8098,-2.7337,-2.7064,-2.69,-2.6918,-2.7024,-2.7971,-2.9424,-2.9683,-3.0441,-3.1517,-3.1726,-3.18,-3.18,-3.18,-3.1856,-3.1894,-3.1984,-3.2108,-3.2214,-1.8617,-1.8581,-1.877,-1.958,-2.028,-2.1029,-2.1953,-2.2675,-2.3118,-2.3182,-2.3193,-2.3217,-2.3217,-2.3241,-2.3265,-2.3313,-2.3383,-2.3448,-2.3448,-2.3453,-2.3453,-2.3407,-2.3453,-2.3494,-2.3494,-2.3494,-2.3517,-2.3517,-2.3562,-2.3562,-2.3517,-2.3562,-2.4361,-2.58,-2.58,-2.6693,-2.8182,-2.8182,-2.8209,-2.8209,-2.8209,-2.8209,-2.8209,-2.8209,-2.8209,-2.8182,-2.8182,-2.8182,-2.8182,-2.8182,-2.8182,-2.8182,-2.8182,-2.8182,-2.8182,-2.8182,-2.8154,-2.8126,-2.82,-2.8182,-2.82,-2.82,-2.8126,-2.8071,-2.8042,-2.8014,-2.7957,-2.7871,-2.7842,-2.7813,-2.7719,-2.763,-2.7587,-2.7587,0.0,-2.7496,-2.7465,-2.7421,-2.7376,-2.7376,-2.733,-2.725,-2.7152,-2.7055,-2.7023,-2.707,-2.6875,-2.6893,-2.7147,-2.7589,-2.818,-2.8958,-2.9033,-2.8895,-2.8558,-2.7824,-2.7384,-2.7197,-2.6718,-2.6434,-2.6382,-2.6572,-2.74,-2.8631,-2.8935,-2.9811,-3.1062,-3.1418,-3.156,-3.1614,-3.1804,-3.1893,-3.1948,-3.2073,-3.2144,-3.2214,-1.8678,-1.8641,-1.885,-1.9648,-1.9843,-2.0392,-2.1864,-2.2147,-2.2447,-2.3129,-2.3193,-2.3217,-2.3289,-2.3336,-2.3401,-2.3383,-2.3517,-2.3603,-2.3603,-2.3634,-2.3611,-2.3494,-2.3494,-2.3494,-2.3494,-2.3494,-2.3539,-2.3585,-2.3539,-2.3539,-2.3585,-2.3539,-2.4337,-2.58,-2.58,-2.6693,-2.8182,-2.8182,-2.8237,-2.83,-2.83,-2.83,-2.83,-2.83,-2.8246,-2.8182,-2.8182,-2.8182,-2.8182,-2.8182,-2.8182,-2.8182,-2.8182,-2.8182,-2.8182,-2.8182,-2.82,-2.8182,-2.8182,-2.8154,-2.8099,-2.8099,-2.8071,-2.7986,-2.7917,-2.7917,-2.7888,-2.7748,-2.7701,-2.7672,-2.76,-2.7617,-2.7587,-2.7526,0.0,0.0,-2.7407,-2.7407,-2.7393,-2.7313,-2.7282,-2.7299,-2.7282,-2.7152,-2.707,-2.7007,-2.6942,-2.7148,-2.7706,-2.7791,-2.818,-2.8958,-2.9542,-2.9164,-2.7784,-2.7537,-2.7114,-2.6569,-2.6519,-2.652,-2.6572,-2.6792,-2.7318,-2.8066,-2.8288,-2.887,-2.9696,-3.0543,-3.0907,-3.1046,-3.1794,-3.2073,-3.2073,-3.2179,-3.2179,-3.2214,-1.8679,-1.8659,-1.9011,-2.0321,-2.0165,-2.038,-2.1919,-2.1785,-2.159,-2.1866,-2.2309,-2.2592,-2.2615,-2.3104,-2.3494,-2.3517,-2.3607,-2.3656,-2.3656,-2.3678,-2.3656,-2.3562,-2.3607,-2.3585,-2.3494,-2.3567,-2.3607,-2.3539,-2.3652,-2.3652,-2.3585,-2.3652,-2.45,-2.5918,-2.5918,-2.6813,-2.8318,-2.8318,-2.8345,-2.8353,-2.8353,-2.8353,-2.8353,-2.8327,-2.8273,-2.8264,-2.8209,-2.8182,-2.8209,-2.8264,-2.8246,-2.8246,-2.8246,-2.8246,-2.8246,-2.8209,-2.8182,-2.8182,-2.8182,-2.8182,-2.8154,-2.8099,-2.8042,-2.7986,-2.7917,-2.7842,-2.7748,-2.7701,-2.7689,-2.763,-2.7617,-2.7544,-2.7469,-2.7421,0.0,-2.7279,-2.7313,-2.7264,-2.7233,-2.7282,-2.7299,-2.7282,-2.7184,-2.7087,-2.7055,-2.7055,-2.6875,-2.6944,-2.7267,-2.7605,-2.796,-2.8247,-2.8499,-2.8328,-2.77,-2.7229,-2.6789,-2.6485,-2.6589,-2.664,-2.6623,-2.6826,-2.7284,-2.8015,-2.8202,-2.8767,-2.9575,-3.0439,-3.0855,-3.0959,-3.1777,-3.2108,-3.2179,-3.2267,-3.2336,-3.2387,-1.8715,-1.8678,-1.9085,-2.0451,-2.0279,-2.037,-2.1647,-2.1619,-2.1441,-2.1476,-2.2153,-2.2616,-2.266,-2.3205,-2.3585,-2.3629,-2.3678,-2.3721,-2.3721,-2.3765,-2.3721,-2.3629,-2.3678,-2.3656,-2.3544,-2.3656,-2.3656,-2.3607,-2.3718,-2.3739,-2.3652,-2.3739,-2.4568,-2.5991,-2.5991,-2.6889,-2.8398,-2.8398,-2.8406,-2.8432,-2.8432,-2.8432,-2.8432,-2.838,-2.8353,-2.83,-2.8264,-2.8209,-2.8209,-2.8246,-2.8273,-2.8273,-2.8273,-2.8273,-2.8246,-2.8209,-2.8182,-2.82,-2.8182,-2.8154,-2.8154,-2.8099,-2.8014,-2.7929,-2.7813,-2.7736,-2.7642,-2.7642,-2.76,-2.7557,-2.7544,-2.7452,-2.7376,-2.7393,-2.7264,-2.7184,-2.7282,-2.7233,-2.7184,-2.7233,-2.7282,-2.725,-2.7087,-2.704,-2.7007,-2.7055,-2.6842,-2.6775,-2.6892,-2.725,-2.7417,-2.7417,-2.7382,-2.7382,-2.7311,-2.691,-2.6623,-2.6572,-2.6607,-2.6691,-2.6708,-2.6859,-2.7214,-2.7725,-2.7909,-2.8489,-2.9314,-3.0144,-3.0681,-3.1062,-3.1882,-3.2232,-3.2267,-3.2388,-3.2439,-3.2523,-1.8788,-1.8788,-1.9056,-1.9859,-2.0002,-2.025,-2.0993,-2.1718,-2.2202,-2.2268,-2.2999,-2.3544,-2.3678,-2.37,-2.37,-2.37,-2.3743,-2.3804,-2.3804,-2.3873,-2.3834,-2.37,-2.37,-2.37,-2.37,-2.37,-2.3721,-2.3804,-2.3721,-2.3721,-2.3804,-2.3721,-2.4505,-2.5991,-2.5991,-2.6889,-2.8398,-2.8398,-2.8432,-2.8492,-2.8492,-2.8492,-2.8492,-2.8492,-2.8432,-2.83,-2.83,-2.8264,-2.8182,-2.8182,-2.8182,-2.8182,-2.8182,-2.8182,-2.8182,-2.8182,-2.8182,-2.8182,-2.8126,-2.8099,-2.8099,-2.8014,-2.7946,-2.7859,-2.7647,-2.7587,-2.7587,-2.7526,-2.7496,-2.7465,-2.7407,-2.7407,-2.7393,-2.733,-2.7299,-2.7299,-2.7299,-2.7299,-2.725,-2.7135,-2.7233,-2.7218,-2.7024,-2.7007,-2.6992,-2.6893,-2.6792,-2.6691,-2.6691,-2.6623,-2.6606,-2.6606,-2.652,-2.6485,-2.6485,-2.6554,-2.6623,-2.6691,-2.6623,-2.6725,-2.6893,-2.6992,-2.7023,-2.7103,-2.7233,-2.7826,-2.8749,-2.9512,-3.0361,-3.1282,-3.209,-3.2406,-3.2388,-3.2473,-3.2507,-3.2523,-1.8878,-1.8878,-1.9112,-1.9863,-2.0044,-2.0313,-2.1059,-2.0918,-2.094,-2.1516,-2.1803,-2.2201,-2.28,-2.3401,-2.3783,-2.3783,-2.3789,-2.3792,-2.3792,-2.3915,-2.3896,-2.3771,-2.3813,-2.3789,-2.37,-2.3747,-2.3768,-2.3721,-2.3768,-2.3789,-2.3804,-2.3789,-2.4621,-2.6134,-2.6134,-2.7019,-2.8536,-2.8536,-2.8562,-2.8562,-2.8562,-2.8562,-2.8562,-2.8518,-2.8484,-2.8414,-2.838,-2.8327,-2.8291,-2.83,-2.8318,-2.8273,-2.8273,-2.8237,-2.8182,-2.8182,-2.8154,-2.8126,-2.8099,-2.8071,-2.8014,-2.7946,-2.7917,-2.7859,-2.7647,-2.7587,-2.7587,-2.7526,-2.7452,-2.7438,-2.7407,-2.7296,-2.7166,-2.7184,-2.7137,-2.7105,-2.7152,-2.7152,-2.7184,-2.7233,-2.7184,-2.712,-2.7007,-2.6959,-2.6926,-2.6893,-2.6842,-2.6775,-2.664,-2.6657,-2.6657,-2.6606,-2.6623,-2.664,-2.664,-2.6606,-2.6606,-2.6623,-2.6742,-2.6859,-2.6893,-2.7023,-2.707,-2.7103,-2.7296,-2.7889,-2.8749,-2.9528,-3.0394,-3.1282,-3.209,-3.2422,-3.2473,-3.2557,-3.2639,-3.2787,-1.8895,-1.8896,-1.9022,-1.947,-1.9614,-1.9865,-2.0653,-2.0656,-2.0874,-2.1704,-2.2084,-2.2465,-2.2971,-2.35,-2.385,-2.385,-2.3855,-2.3876,-2.3876,-2.3976,-2.3996,-2.3896,-2.3917,-2.3894,-2.3747,-2.3792,-2.3792,-2.3747,-2.3792,-2.3813,-2.3807,-2.4139,-2.4954,-2.6222,-2.653,-2.7399,-2.8587,-2.8587,-2.8587,-2.8587,-2.8587,-2.8587,-2.8587,-2.8562,-2.8518,-2.8492,-2.8458,-2.8406,-2.8327,-2.8353,-2.8318,-2.8246,-2.8246,-2.8209,-2.8154,-2.8154,-2.8126,-2.8042,-2.8032,-2.7986,-2.7929,-2.7813,-2.7813,-2.7783,-2.7574,-2.7513,-2.7513,-2.7421,-2.7407,-2.7362,-2.7362,-2.7264,-2.7152,-2.7103,-2.7087,-2.7105,-2.7103,-2.7152,-2.7184,-2.7233,-2.7152,-2.707,-2.6975,-2.6926,-2.6893,-2.6825,-2.6825,-2.6775,-2.6606,-2.6589,-2.6589,-2.6554,-2.6555,-2.6572,-2.664,-2.6657,-2.6674,-2.6725,-2.6859,-2.6926,-2.6975,-2.707,-2.7135,-2.7201,-2.7639,-2.8337,-2.9216,-3.0031,-3.09,-3.1721,-3.2229,-3.2473,-3.2557,-3.2672,-3.2802,-3.2948,-1.8878,-1.8861,-1.8824,-1.8878,-1.8968,-1.9273,-2.0099,-2.0837,-2.1652,-2.2576,-2.3306,-2.3744,-2.3816,-2.3876,-2.3917,-2.3896,-2.3976,-2.3996,-2.3996,-2.4074,-2.4074,-2.3996,-2.3996,-2.3937,-2.3795,-2.3795,-2.3795,-2.3795,-2.3795,-2.3831,-2.3922,-2.4664,-2.5461,-2.6349,-2.7073,-2.7845,-2.8587,-2.8587,-2.8587,-2.8587,-2.8587,-2.8587,-2.8587,-2.8587,-2.8562,-2.8492,-2.8492,-2.8458,-2.8406,-2.8327,-2.8246,-2.8209,-2.8209,-2.8154,-2.8099,-2.8099,-2.8042,-2.7986,-2.7917,-2.7888,-2.783,-2.7647,-2.763,-2.763,-2.7438,-2.7407,-2.7376,-2.7313,-2.7299,-2.7299,-2.7299,-2.7282,-2.7233,-2.7135,-2.7201,-2.7233,-2.7135,-2.7201,-2.7233,-2.7103,-2.7103,-2.7038,-2.6926,-2.6893,-2.6842,-2.6691,-2.6691,-2.6674,-2.6606,-2.6554,-2.652,-2.652,-2.6417,-2.64,-2.6606,-2.6674,-2.6775,-2.6893,-2.6926,-2.6975,-2.7103,-2.7103,-2.7184,-2.7333,-2.8137,-2.903,-2.9861,-3.0763,-3.1618,-3.2422,-3.2473,-3.2557,-3.2639,-3.2852,-3.2948,-3.306,-1.8895,-1.8931,-1.8931,-1.8913,-1.9506,-2.0246,-2.1004,-2.1314,-2.1987,-2.344,-2.3262,-2.3246,-2.3824,-2.3937,-2.3976,-2.3896,-2.4016,-2.4054,-2.3996,-2.4113,-2.4094,-2.3917,-2.3976,-2.3937,-2.3795,-2.3795,-2.3795,-2.3795,-2.3795,-2.4121,-2.4737,-2.4918,-2.5769,-2.7164,-2.7327,-2.7845,-2.8587,-2.8587,-2.8587,-2.8587,-2.8587,-2.8587,-2.8587,-2.8587,-2.8587,-2.8587,-2.8587,-2.8536,-2.8484,-2.8406,-2.8327,-2.8273,-2.8209,-2.8154,-2.8099,-2.8042,-2.7957,-2.7917,-2.7888,-2.7801,-2.7647,-2.7557,-2.7496,-2.7452,-2.7407,-2.7407,-2.7376,-2.7313,-2.7299,-2.7299,-2.7299,-2.7201,-2.7135,-2.7103,-2.7135,-2.7135,-2.7103,-2.7135,-2.7135,-2.7103,-2.7023,-2.6942,-2.6893,-2.6792,-2.6742,-2.6691,-2.6691,-2.6674,-2.6606,-2.6623,-2.6623,-2.6589,-2.6607,-2.6624,-2.6674,-2.6691,-2.6775,-2.6893,-2.7023,-2.707,-2.7103,-2.7201,-2.7282,-2.7333,-2.8253,-2.9097,-2.9894,-3.0843,-3.1751,-3.2473,-3.2539,-3.2672,-3.2852,-3.2884,-3.306,-3.3262,-1.8931,-1.8948,-1.8948,-1.8983,-1.9397,-2.0119,-2.126,-2.1516,-2.2172,-2.3777,-2.3691,-2.3601,-2.3941,-2.4054,-2.4074,-2.3996,-2.4094,-2.4113,-2.4094,-2.417,-2.4151,-2.3996,-2.3996,-2.3937,-2.3837,-2.3855,-2.3837,-2.3795,-2.3795,-2.4212,-2.5009,-2.5389,-2.624,-2.7435,-2.7791,-2.8207,-2.8587,-2.8587,-2.8587,-2.8562,-2.8587,-2.8562,-2.851,-2.8536,-2.8562,-2.8562,-2.8562,-2.8536,-2.8492,-2.8406,-2.8353,-2.8273,-2.8182,-2.8099,-2.8042,-2.7957,-2.79,-2.7813,-2.7754,-2.7694,-2.7587,-2.7483,-2.7438,-2.7376,-2.7362,-2.7362,-2.7362,-2.7299,-2.7299,-2.7299,-2.7299,-2.7233,-2.7184,-2.7103,-2.7152,-2.7184,-2.7103,-2.7103,-2.7103,-2.7103,-2.6975,-2.6859,-2.6759,-2.6691,-2.6657,-2.6657,-2.6674,-2.6674,-2.6606,-2.6623,-2.6623,-2.6606,-2.6623,-2.6674,-2.6691,-2.6742,-2.6842,-2.6959,-2.704,-2.7087,-2.7201,-2.7282,-2.7503,-2.7912,-2.8473,-2.9371,-3.0517,-3.1067,-3.1782,-3.2557,-3.2657,-3.2787,-3.2916,-3.2961,-3.3165,-3.3393,-1.8966,-1.8948,-1.9002,-1.9268,-1.9303,-1.9864,-2.148,-2.1826,-2.2392,-2.3729,-2.3952,-2.3989,-2.3931,-2.4079,-2.417,-2.4113,-2.417,-2.419,-2.419,-2.419,-2.417,-2.4094,-2.4054,-2.3976,-2.3896,-2.3896,-2.3876,-2.3795,-2.3816,-2.4306,-2.5226,-2.5896,-2.6711,-2.761,-2.8297,-2.8587,-2.8587,-2.8587,-2.8562,-2.8518,-2.8587,-2.8536,-2.8432,-2.8466,-2.851,-2.8536,-2.8492,-2.8492,-2.8492,-2.8432,-2.8353,-2.8273,-2.8136,-2.8071,-2.7986,-2.7888,-2.7766,-2.7672,-2.76,-2.7557,-2.7544,-2.7438,-2.7376,-2.7393,-2.7313,-2.7299,-2.7299,-2.7299,-2.7299,-2.7299,-2.7299,-2.7299,-2.725,-2.7152,-2.7233,-2.725,-2.7152,-2.7103,-2.7103,-2.707,-2.6957,-2.6809,-2.664,-2.6606,-2.6606,-2.6606,-2.6657,-2.664,-2.664,-2.6606,-2.6606,-2.6606,-2.6606,-2.6657,-2.6691,-2.6792,-2.6926,-2.6975,-2.6975,-2.7122,-2.7299,-2.733,-2.7673,-2.8308,-2.861,-2.9505,-3.0808,-3.1044,-3.1653,-3.2444,-3.2559,-3.2745,-3.2948,-3.3117,-3.3316,-3.352,-1.8913,-1.8948,-1.9217,-1.9992,-2.019,-2.077,-2.2391,-2.274,-2.2887,-2.3052,-2.3161,-2.3216,-2.3162,-2.3786,-2.4208,-2.419,-2.419,-2.419,-2.419,-2.419,-2.417,-2.4094,-2.4054,-2.3976,-2.3896,-2.3896,-2.3876,-2.3795,-2.3876,-2.4617,-2.6041,-2.6149,-2.7001,-2.8424,-2.8533,-2.8587,-2.8587,-2.8587,-2.8587,-2.8587,-2.8587,-2.8587,-2.8562,-2.8536,-2.8536,-2.8587,-2.8518,-2.8492,-2.8492,-2.8492,-2.8406,-2.8273,-2.8136,-2.8071,-2.794,-2.7707,-2.7617,-2.7617,-2.7526,-2.7483,-2.7407,-2.7407,-2.7362,-2.733,-2.7299,-2.7299,-2.7299,-2.7299,-2.7299,-2.7299,-2.7299,-2.7299,-2.7282,-2.7282,-2.7282,-2.7282,-2.7282,-2.7184,-2.707,-2.7007,-2.6842,-2.6708,-2.6708,-2.6708,-2.6708,-2.6708,-2.6623,-2.6623,-2.6674,-2.6623,-2.664,-2.6674,-2.6708,-2.6691,-2.6691,-2.6742,-2.6792,-2.6926,-2.6992,-2.7122,-2.7299,-2.7362,-2.7445,-2.7598,-2.8508,-2.8987,-2.9294,-3.0163,-3.1,-3.1742,-3.1836,-3.2371,-3.3086,-3.3345,-3.3491,-3.3605,-1.9001,-1.9034,-1.9338,-2.0241,-2.0456,-2.1056,-2.2667,-2.2645,-2.2587,-2.3012,-2.312,-2.3137,-2.3102,-2.375,-2.4191,-2.4191,-2.4209,-2.419,-2.419,-2.419,-2.4151,-2.4054,-2.4016,-2.3976,-2.3896,-2.3937,-2.3937,-2.3917,-2.3896,-2.4711,-2.6268,-2.6227,-2.7073,-2.8587,-2.8587,-2.8587,-2.8587,-2.8587,-2.8587,-2.8562,-2.8587,-2.8562,-2.8484,-2.851,-2.8518,-2.8536,-2.8492,-2.8492,-2.8492,-2.8414,-2.8327,-2.8237,-2.8099,-2.794,-2.7806,-2.7647,-2.7587,-2.7526,-2.7452,-2.7438,-2.7376,-2.7345,-2.733,-2.7299,-2.7299,-2.7299,-2.7299,-2.7299,-2.7299,-2.7299,-2.7299,-2.7299,-2.7299,-2.7299,-2.7299,-2.7282,-2.7201,-2.7087,-2.699,-2.6859,-2.6691,-2.6589,-2.6657,-2.6589,-2.6589,-2.6657,-2.6657,-2.686,-2.73,-2.7282,-2.7265,-2.7317,-2.774,-2.7757,-2.7334,-2.7757,-2.8047,-2.8117,-2.776,-2.7466,-2.7184,-2.7345,-2.7681,-2.8143,-2.8189,-2.878,-2.9682,-2.9763,-3.0309,-3.1135,-3.1589,-3.2385,-3.3304,-3.3433,-3.3577,-3.3643]},{"header":{"parameterUnit":"m.s-1","parameterCategory":1,"la1":30.6,"la2":28.766,"lo1":-90.7593,"lo2":-88.6598,"dy":0.0162,"dx":0.0183,"nx":116,"ny":114,"refTime":"2023-03-26T12:00:00:Z","depth":0,"parameterNumber":3,"parameterNumberName":"V-component_of_WINDS"},"data":[0.0,0.0,0.0,0.0,0.0,0.0,0.0,0.0,0.0,0.0,0.0,0.0,0.0,0.0,0.0,0.0,0.0,0.0,0.0,0.0,0.0,0.0,0.0,0.0,0.0,0.0,0.0,0.0,0.0,0.0,0.0,0.0,0.0,0.0,0.0,0.0,0.0,0.0,0.0,0.0,0.0,0.0,0.0,0.0,0.0,0.0,0.0,0.0,0.0,0.0,0.0,0.0,0.0,0.0,0.0,0.0,0.0,0.0,0.0,0.0,0.0,0.0,0.0,0.0,0.0,0.0,0.0,0.0,0.0,0.0,0.0,0.0,0.0,0.0,0.0,0.0,0.0,0.0,0.0,0.0,0.0,0.0,0.0,0.0,0.0,0.0,0.0,0.0,0.0,0.0,0.0,0.0,0.0,0.0,0.0,0.0,0.0,0.0,0.0,0.0,0.0,0.0,0.0,0.0,0.0,0.0,0.0,0.0,0.0,0.0,0.0,0.0,0.0,0.0,0.0,0.0,0.0,0.0,0.0,0.0,0.0,0.0,0.0,0.0,0.0,0.0,0.0,0.0,0.0,0.0,0.0,0.0,0.0,0.0,0.0,0.0,0.0,0.0,0.0,0.0,0.0,0.0,0.0,0.0,0.0,0.0,0.0,0.0,0.0,0.0,0.0,0.0,0.0,0.0,0.0,0.0,0.0,0.0,0.0,0.0,0.0,0.0,0.0,0.0,0.0,0.0,0.0,0.0,0.0,0.0,0.0,0.0,0.0,0.0,0.0,0.0,0.0,0.0,0.0,0.0,0.0,0.0,0.0,0.0,0.0,0.0,0.0,0.0,0.0,0.0,0.0,0.0,0.0,0.0,0.0,0.0,0.0,0.0,0.0,0.0,0.0,0.0,0.0,0.0,0.0,0.0,0.0,0.0,0.0,0.0,0.0,0.0,0.0,0.0,0.0,0.0,0.0,0.0,0.0,0.0,0.0,0.0,0.0,0.0,0.0,0.0,0.0,0.0,0.0,0.0,0.0,0.0,0.0,0.0,0.0,0.0,0.0,0.0,0.0,0.0,0.0,0.0,0.0,0.0,0.0,0.0,0.0,0.0,0.0,0.0,0.0,0.0,0.0,0.0,0.0,0.0,0.0,0.0,0.0,0.0,0.0,0.0,0.0,0.0,0.0,0.0,0.0,0.0,0.0,0.0,0.0,0.0,0.0,0.0,0.0,0.0,0.0,0.0,0.0,0.0,0.0,0.0,0.0,0.0,0.0,0.0,0.0,0.0,0.0,0.0,0.0,0.0,0.0,0.0,0.0,0.0,0.0,0.0,0.0,0.0,0.0,0.0,0.0,0.0,0.0,0.0,0.0,0.0,0.0,0.0,0.0,0.0,0.0,0.0,0.0,0.0,0.0,0.0,0.0,0.0,0.0,0.0,0.0,0.0,0.0,0.0,0.0,0.0,0.0,0.0,0.0,0.0,0.0,0.0,0.0,0.0,0.0,0.0,0.0,0.0,0.0,0.0,0.0,0.0,0.0,0.0,0.0,0.0,0.0,0.0,0.0,0.0,0.0,0.0,0.0,0.0,0.0,0.0,0.0,0.0,0.0,0.0,0.0,0.0,0.0,0.0,0.0,0.0,0.0,0.0,0.0,0.0,0.0,0.0,0.0,0.0,0.0,0.0,0.0,0.0,0.0,0.0,0.0,0.0,0.0,0.0,0.0,0.0,0.0,0.0,0.0,0.0,0.0,0.0,0.0,0.0,0.0,0.0,0.0,0.0,0.0,0.0,0.0,0.0,0.0,0.0,0.0,0.0,0.0,0.0,0.0,0.0,0.0,0.0,0.0,0.0,0.0,0.0,0.0,0.0,0.0,0.0,0.0,0.0,0.0,0.0,0.0,0.0,0.0,0.0,0.0,0.0,0.0,0.0,0.0,0.0,0.0,0.0,0.0,0.0,0.0,0.0,0.0,0.0,0.0,0.0,0.0,0.0,0.0,0.0,0.0,0.0,0.0,0.0,0.0,0.0,0.0,0.0,0.0,0.0,0.0,0.0,0.0,0.0,0.0,0.0,0.0,0.0,0.0,0.0,0.0,0.0,0.0,0.0,0.0,0.0,0.0,0.0,0.0,0.0,0.0,0.0,0.0,0.0,0.0,0.0,0.0,0.0,0.0,0.0,0.0,0.0,0.0,0.0,0.0,0.0,0.0,0.0,0.0,0.0,0.0,0.0,0.0,0.0,0.0,0.0,0.0,0.0,0.0,0.0,0.0,0.0,0.0,0.0,0.0,0.0,0.0,0.0,0.0,0.0,0.0,0.0,0.0,0.0,0.0,0.0,0.0,0.0,0.0,0.0,0.0,0.0,0.0,0.0,0.0,0.0,0.0,0.0,0.0,0.0,0.0,0.0,0.0,0.0,0.0,0.0,0.0,0.0,0.0,0.0,0.0,0.0,0.0,0.0,0.0,0.0,0.0,0.0,0.0,0.0,0.0,0.0,0.0,0.0,0.0,0.0,0.0,0.0,0.0,0.0,0.0,0.0,0.0,0.0,0.0,0.0,0.0,0.0,0.0,0.0,0.0,0.0,0.0,0.0,0.0,0.0,0.0,0.0,0.0,0.0,0.0,0.0,0.0,0.0,0.0,0.0,0.0,0.0,0.0,0.0,0.0,0.0,0.0,0.0,0.0,0.0,0.0,0.0,0.0,0.0,0.0,0.0,0.0,0.0,0.0,0.0,0.0,0.0,0.0,0.0,0.0,0.0,0.0,0.0,0.0,0.0,0.0,0.0,0.0,0.0,0.0,0.0,0.0,0.0,0.0,0.0,0.0,0.0,0.0,0.0,0.0,0.0,0.0,0.0,0.0,0.0,0.0,0.0,0.0,0.0,0.0,0.0,0.0,0.0,0.0,0.0,0.0,0.0,0.0,0.0,0.0,0.0,0.0,0.0,0.0,0.0,0.0,0.0,0.0,0.0,0.0,0.0,0.0,0.0,0.0,0.0,0.0,0.0,0.0,0.0,0.0,0.0,0.0,0.0,0.0,0.0,0.0,0.0,0.0,0.0,0.0,0.0,0.0,0.0,0.0,0.0,0.0,0.0,0.0,0.0,0.0,0.0,0.0,0.0,0.0,0.0,0.0,0.0,0.0,0.0,0.0,0.0,0.0,0.0,0.0,0.0,0.0,0.0,0.0,0.0,0.0,0.0,0.0,0.0,0.0,0.0,0.0,0.0,0.0,0.0,0.0,0.0,0.0,0.0,0.0,0.0,0.0,0.0,0.0,0.0,0.0,0.0,0.0,0.0,0.0,0.0,0.0,0.0,0.0,0.0,0.0,0.0,0.0,0.0,0.0,0.0,0.0,0.0,0.0,0.0,0.0,0.0,0.0,0.0,0.0,0.0,0.0,0.0,0.0,0.0,0.0,0.0,0.0,0.0,0.0,0.0,0.0,0.0,0.0,0.0,0.0,0.0,0.0,0.0,0.0,0.0,0.0,0.0,0.0,0.0,0.0,0.0,0.0,0.0,0.0,0.0,0.0,0.0,0.0,0.0,0.0,0.0,0.0,0.0,0.0,0.0,0.0,0.0,0.0,0.0,0.0,0.0,0.0,0.0,0.0,0.0,0.0,0.0,0.0,0.0,0.0,0.0,0.0,0.0,0.0,0.0,0.0,0.0,0.0,0.0,0.0,0.0,0.0,0.0,0.0,0.0,0.0,0.0,0.0,0.0,0.0,0.0,0.0,0.0,0.0,0.0,0.0,0.0,0.0,0.0,0.0,0.0,0.0,0.0,0.0,0.0,0.0,0.0,0.0,0.0,0.0,0.0,0.0,0.0,0.0,0.0,0.0,0.0,0.0,0.0,0.0,0.0,0.0,0.0,0.0,0.0,0.0,0.0,0.0,0.0,0.0,0.0,0.0,0.0,0.0,0.0,0.0,0.0,0.0,0.0,0.0,0.0,0.0,0.0,0.0,0.0,0.0,0.0,0.0,0.0,0.0,0.0,0.0,0.0,0.0,0.0,0.0,0.0,0.0,0.0,0.0,0.0,0.0,0.0,0.0,0.0,0.0,0.0,0.0,0.0,0.0,0.0,0.0,0.0,0.0,0.0,0.0,0.0,0.0,0.0,0.0,0.0,0.0,0.0,0.0,0.0,0.0,0.0,0.0,0.0,0.0,0.0,0.0,0.0,0.0,0.0,0.0,0.0,0.0,0.0,0.0,0.0,0.0,0.0,0.0,0.0,0.0,0.0,0.0,0.0,0.0,0.0,0.0,0.0,0.0,0.0,0.0,0.0,0.0,0.0,0.0,0.0,0.0,0.0,0.0,0.0,0.0,0.0,0.0,0.0,0.0,0.0,0.0,0.0,0.0,0.0,0.0,0.0,0.0,0.0,0.0,0.0,0.0,0.0,0.0,0.0,0.0,0.0,0.0,0.0,0.0,0.0,0.0,0.0,0.0,0.0,0.0,0.0,0.0,0.0,0.0,0.0,0.0,0.0,0.0,0.0,0.0,0.0,0.0,0.0,0.0,0.0,0.0,0.0,0.0,0.0,0.0,0.0,0.0,0.0,0.0,0.0,0.0,0.0,0.0,0.0,0.0,0.0,0.0,0.0,0.0,0.0,0.0,0.0,0.0,0.0,0.0,0.0,0.0,0.0,0.0,0.0,0.0,0.0,0.0,0.0,0.0,0.0,0.0,0.0,0.0,0.0,0.0,0.0,0.0,0.0,0.0,0.0,0.0,0.0,0.0,0.0,0.0,0.0,0.0,0.0,0.0,0.0,0.0,0.0,0.0,0.0,0.0,0.0,0.0,0.0,0.0,0.0,0.0,0.0,0.0,0.0,0.0,0.0,0.0,0.0,0.0,0.0,0.0,0.0,0.0,0.0,0.0,0.0,0.0,0.0,0.0,0.0,0.0,0.0,0.0,0.0,0.0,0.0,0.0,0.0,0.0,0.0,0.0,0.0,0.0,0.0,0.0,0.0,0.0,0.0,0.0,0.0,0.0,0.0,0.0,0.0,0.0,0.0,0.0,0.0,0.0,0.0,0.0,0.0,0.0,0.0,0.0,0.0,0.0,0.0,0.0,0.0,0.0,0.0,0.0,0.0,0.0,0.0,0.0,0.0,0.0,0.0,0.0,0.0,0.0,0.0,0.0,0.0,0.0,0.0,0.0,0.0,0.0,0.0,0.0,0.0,0.0,0.0,0.0,0.0,0.0,0.0,0.0,0.0,0.0,0.0,0.0,0.0,0.0,0.0,0.0,0.0,0.0,0.0,0.0,0.0,0.0,0.0,0.0,0.0,0.0,0.0,0.0,0.0,0.0,0.0,0.0,0.0,0.0,0.0,0.0,0.0,0.0,0.0,0.0,0.0,0.0,0.0,0.0,0.0,0.0,0.0,0.0,0.0,0.0,0.0,0.0,0.0,0.0,0.0,0.0,0.0,0.0,0.0,0.0,0.0,0.0,0.0,0.0,0.0,0.0,0.0,0.0,0.0,0.0,0.0,0.0,0.0,0.0,0.0,0.0,0.0,0.0,0.0,0.0,0.0,0.0,0.0,0.0,0.0,0.0,0.0,0.0,0.0,0.0,0.0,0.0,0.0,0.0,0.0,0.0,0.0,0.0,0.0,0.0,0.0,0.0,0.0,0.0,0.0,0.0,0.0,0.0,0.0,0.0,0.0,0.0,0.0,0.0,0.0,0.0,0.0,0.0,0.0,0.0,0.0,0.0,0.0,0.0,0.0,0.0,0.0,0.0,0.0,0.0,0.0,0.0,0.0,0.0,0.0,0.0,0.0,0.0,0.0,0.0,0.0,0.0,0.0,0.0,0.0,0.0,0.0,0.0,0.0,0.0,0.0,0.0,0.0,0.0,0.0,0.0,0.0,0.0,0.0,0.0,0.0,0.0,0.0,0.0,0.0,0.0,0.0,0.0,0.0,0.0,0.0,0.0,0.0,0.0,0.0,0.0,0.0,0.0,0.0,0.0,0.0,0.0,0.0,0.0,0.0,0.0,0.0,0.0,0.0,0.0,0.0,0.0,0.0,0.0,0.0,0.0,0.0,0.0,0.0,0.0,0.0,0.0,0.0,0.0,0.0,0.0,0.0,0.0,0.0,-1.8098,0.0,0.0,0.0,0.0,0.0,0.0,0.0,0.0,0.0,0.0,0.0,0.0,0.0,0.0,0.0,0.0,0.0,0.0,0.0,0.0,0.0,0.0,0.0,0.0,0.0,0.0,0.0,0.0,0.0,0.0,0.0,0.0,0.0,0.0,0.0,0.0,0.0,0.0,0.0,-2.0361,-2.0552,-2.0718,-2.0722,-2.0678,-2.0609,0.0,0.0,0.0,0.0,0.0,0.0,0.0,0.0,0.0,0.0,0.0,0.0,0.0,0.0,0.0,0.0,0.0,0.0,0.0,0.0,0.0,0.0,0.0,0.0,0.0,0.0,0.0,0.0,0.0,0.0,0.0,0.0,0.0,0.0,0.0,0.0,0.0,0.0,0.0,0.0,0.0,0.0,0.0,0.0,0.0,0.0,0.0,0.0,0.0,0.0,0.0,0.0,0.0,0.0,0.0,0.0,0.0,0.0,0.0,0.0,0.0,0.0,0.0,0.0,0.0,0.0,0.0,0.0,0.0,0.0,0.0,-1.8737,0.0,0.0,0.0,0.0,0.0,0.0,0.0,0.0,0.0,0.0,0.0,0.0,0.0,0.0,0.0,0.0,0.0,0.0,0.0,0.0,0.0,0.0,0.0,0.0,-2.0161,-2.0237,-2.0284,0.0,0.0,0.0,0.0,0.0,0.0,0.0,0.0,0.0,0.0,-2.0162,-2.0797,-2.1362,-2.1862,-2.1771,-2.1843,-2.2008,-2.1769,0.0,0.0,0.0,0.0,0.0,0.0,0.0,0.0,0.0,0.0,0.0,0.0,0.0,0.0,0.0,0.0,0.0,0.0,0.0,0.0,0.0,0.0,0.0,0.0,0.0,0.0,0.0,0.0,0.0,0.0,0.0,0.0,0.0,0.0,0.0,0.0,0.0,0.0,0.0,0.0,0.0,0.0,0.0,0.0,0.0,0.0,0.0,0.0,0.0,0.0,0.0,0.0,0.0,0.0,0.0,0.0,0.0,0.0,0.0,0.0,0.0,0.0,0.0,-1.9454,-1.9599,-1.999,-1.9894,-2.0026,-2.0284,-2.0053,-1.9812,-1.9545,-1.9654,0.0,0.0,0.0,0.0,0.0,0.0,0.0,0.0,0.0,0.0,0.0,0.0,0.0,0.0,0.0,0.0,0.0,0.0,0.0,0.0,0.0,-2.0222,-2.0291,-2.0363,-2.0387,-2.0389,0.0,0.0,0.0,0.0,0.0,0.0,0.0,-2.0001,-2.0225,-2.079,-2.1337,-2.1898,-2.2493,-2.235,-2.2643,-2.3227,-2.265,-2.2317,-2.2313,0.0,0.0,0.0,0.0,0.0,0.0,0.0,0.0,0.0,0.0,0.0,0.0,0.0,0.0,0.0,0.0,0.0,0.0,0.0,0.0,0.0,0.0,0.0,0.0,0.0,0.0,0.0,0.0,0.0,0.0,0.0,0.0,0.0,0.0,0.0,0.0,0.0,0.0,0.0,0.0,0.0,-1.5718,-1.5928,0.0,0.0,0.0,0.0,0.0,0.0,0.0,0.0,0.0,0.0,0.0,0.0,0.0,-1.8829,-1.9258,-1.9321,-1.9572,-1.9987,-2.018,-2.0245,-2.0311,-2.0587,-2.0662,-2.0719,-2.0939,0.0,-2.0967,-2.0956,0.0,0.0,0.0,0.0,0.0,0.0,0.0,0.0,0.0,0.0,0.0,0.0,0.0,0.0,0.0,0.0,0.0,0.0,0.0,0.0,0.0,-2.0344,-2.0575,-2.1093,-2.1102,-2.1253,-2.1667,0.0,0.0,0.0,0.0,0.0,-2.0619,-2.0929,-2.1357,-2.1922,-2.2063,-2.249,-2.3099,-2.2981,-2.3017,-2.3199,-2.287,-2.2729,-2.2723,-2.3082,0.0,0.0,0.0,0.0,0.0,0.0,0.0,0.0,0.0,0.0,0.0,0.0,0.0,0.0,0.0,0.0,0.0,0.0,0.0,0.0,0.0,0.0,0.0,0.0,0.0,0.0,0.0,0.0,0.0,0.0,0.0,0.0,0.0,0.0,0.0,0.0,0.0,0.0,0.0,-1.6035,-1.601,-1.6184,-1.6143,-1.6135,0.0,0.0,0.0,0.0,0.0,0.0,0.0,0.0,0.0,-1.908,-1.9102,-1.9331,-1.9759,-1.9759,-1.9868,-2.0085,-2.027,-2.0543,-2.0798,-2.0819,-2.0754,-2.0785,-2.1052,-2.1574,-2.2178,-2.1458,-2.1043,-2.0813,0.0,0.0,0.0,0.0,-2.1037,-2.1479,0.0,0.0,0.0,0.0,0.0,0.0,0.0,0.0,0.0,0.0,0.0,0.0,-2.0405,-2.0599,-2.0994,-2.1628,-2.1804,-2.2107,-2.2634,-2.2604,0.0,0.0,0.0,-2.1984,-2.1245,-2.1863,-2.2317,-2.26,-2.2656,-2.2918,-2.3365,-2.3435,-2.335,-2.3215,-2.3301,-2.3232,-2.2995,-2.2995,-2.2944,-2.2825,0.0,0.0,0.0,0.0,0.0,0.0,0.0,0.0,0.0,0.0,0.0,0.0,0.0,0.0,0.0,0.0,0.0,0.0,0.0,0.0,0.0,0.0,0.0,0.0,0.0,0.0,0.0,0.0,0.0,0.0,0.0,0.0,0.0,0.0,0.0,0.0,0.0,-1.6279,-1.6293,-1.652,-1.6565,-1.6564,0.0,0.0,0.0,0.0,0.0,0.0,-1.8563,-1.8868,-1.9225,-1.9594,-1.9604,-1.9834,-2.0325,-2.0325,-2.0391,-2.0445,-2.0555,-2.0786,-2.1116,-2.0793,-2.0576,-2.0583,-2.1352,-2.2262,-2.319,-2.1755,-2.1273,-2.1377,-2.0947,-2.0883,-2.0993,-2.0819,-2.1188,-2.1777,0.0,0.0,0.0,0.0,0.0,0.0,0.0,0.0,0.0,0.0,0.0,-2.048,-2.0409,-2.1141,-2.1623,-2.1604,-2.2245,-2.2622,-2.2601,-2.2483,-2.2338,-2.2158,-2.2131,-2.2029,-2.1856,-2.2392,-2.256,-2.2321,-2.2962,-2.317,-2.3038,-2.3606,-2.3846,-2.3798,-2.4367,-2.3904,-2.2712,-2.2712,-2.2605,-2.2432,-2.2487,0.0,0.0,0.0,0.0,0.0,0.0,0.0,0.0,0.0,0.0,0.0,0.0,0.0,0.0,0.0,0.0,0.0,0.0,0.0,0.0,0.0,0.0,0.0,0.0,0.0,0.0,0.0,0.0,0.0,0.0,0.0,0.0,0.0,0.0,0.0,0.0,0.0,0.0,-1.6838,-1.664,0.0,0.0,0.0,0.0,-1.8747,-1.8992,-1.9204,-1.9537,-1.953,-1.9709,-2.0031,-2.0042,-2.0336,-2.0817,-2.0895,-2.1057,-2.1516,-2.1209,-2.1107,-2.1048,-2.0439,-2.0146,-2.0257,-2.2098,-2.3375,-2.3975,-2.1991,-2.1561,-2.2024,-2.1597,-2.1514,-2.1651,-2.1803,-2.2002,-2.2211,0.0,0.0,0.0,0.0,0.0,0.0,0.0,0.0,0.0,-2.1179,-2.1301,-2.1521,-2.2018,-2.2278,-2.2597,-2.3041,-2.3244,-2.3536,-2.399,-2.3927,-2.3566,-2.2868,-2.3326,-2.3416,-2.3083,-2.3151,-2.3075,-2.2817,-2.2961,-2.2927,-2.2755,-2.3388,-2.3591,-2.3435,-2.4076,-2.4096,-2.3607,-2.374,-2.374,-2.3587,-2.3068,-2.2824,0.0,0.0,0.0,0.0,0.0,0.0,0.0,0.0,0.0,0.0,0.0,0.0,0.0,0.0,0.0,0.0,0.0,0.0,0.0,0.0,0.0,0.0,0.0,0.0,0.0,0.0,0.0,0.0,0.0,0.0,0.0,0.0,0.0,0.0,0.0,0.0,0.0,-1.7169,-1.7479,0.0,-1.7966,-1.839,-1.8692,-1.8747,-1.9105,-1.9357,-1.946,-1.9703,-2.0031,-2.0587,-2.0476,-2.0704,-2.1319,-2.133,-2.1417,-2.1592,-2.1274,-2.1344,-2.1739,-2.0625,-2.0782,-2.1983,-2.2677,-2.3173,-2.3401,-2.2573,-2.2457,-2.2759,-2.2155,-2.2185,-2.2531,-2.2805,-2.3001,-2.3066,0.0,0.0,0.0,0.0,0.0,0.0,0.0,0.0,-2.0659,-2.1283,-2.1597,-2.1951,-2.244,-2.2917,-2.337,-2.3793,-2.3974,-2.4257,-2.4685,-2.4682,-2.429,-2.3561,-2.3934,-2.3998,-2.3646,-2.3463,-2.3223,-2.297,-2.3059,-2.2993,-2.2818,-2.3723,-2.4059,-2.389,-2.4513,-2.4746,-2.4713,-2.4797,-2.453,-2.403,-2.325,-2.2874,-2.2714,0.0,0.0,0.0,0.0,0.0,0.0,0.0,0.0,0.0,0.0,0.0,0.0,0.0,0.0,0.0,0.0,0.0,0.0,0.0,0.0,0.0,0.0,0.0,0.0,0.0,0.0,0.0,0.0,0.0,0.0,0.0,0.0,0.0,0.0,0.0,-1.7353,-1.7401,-1.791,-1.8275,-1.8217,-1.8726,-1.9076,-1.9168,-1.9473,-1.9659,-1.9659,-2.0053,-2.0455,-2.0917,-2.0888,-2.1133,-2.1832,-2.1729,-2.1816,-2.2062,-2.1854,-2.1934,-2.2353,-2.1502,-2.1776,-2.3001,-2.3001,-2.3086,-2.3287,-2.2933,-2.3103,-2.3445,-2.268,-2.2587,-2.2865,-2.3203,-2.3349,-2.3416,0.0,0.0,0.0,0.0,0.0,0.0,0.0,-2.05,-2.0501,-2.0543,-2.1221,-2.1666,-2.1584,-2.3013,-2.3915,-2.3746,-2.4379,-2.4734,-2.4607,-2.453,-2.4411,-2.4192,-2.386,-2.3624,-2.3504,-2.3223,-2.297,-2.272,-2.3238,-2.3405,-2.3261,-2.4563,-2.5196,-2.5195,-2.5678,-2.5897,-2.5844,-2.5642,-2.4863,-2.365,-2.2949,-2.2573,-2.2345,0.0,0.0,0.0,0.0,0.0,0.0,0.0,0.0,0.0,0.0,0.0,0.0,0.0,0.0,0.0,0.0,0.0,0.0,0.0,0.0,0.0,0.0,0.0,0.0,0.0,0.0,0.0,0.0,0.0,0.0,0.0,0.0,0.0,-1.727,-1.7474,-1.7678,-1.7545,-1.784,-1.8228,-1.8665,-1.9146,-1.9637,-2.0064,-2.0107,-2.0107,-2.0129,-2.0631,-2.0882,-2.0904,-2.1155,-2.1631,-2.2335,-2.1959,-2.2185,-2.3001,-2.3001,-2.3001,-2.3001,-2.3001,-2.3001,-2.3001,-2.3001,-2.332,-2.37,-2.31,-2.3383,-2.4097,-2.3098,-2.2708,-2.2787,-2.2912,-2.3115,-2.3317,0.0,0.0,0.0,0.0,0.0,0.0,0.0,-2.0504,-2.0721,-2.1364,-2.1599,-2.2114,-2.3191,-2.364,-2.4022,-2.4454,-2.4588,-2.4613,-2.4532,-2.4375,-2.4173,-2.3919,-2.3642,-2.3389,-2.3199,-2.2944,-2.297,-2.3272,-2.3216,-2.3421,-2.3799,-2.4562,-2.4816,-2.4707,-2.5239,-2.5394,-2.5301,-2.5185,-2.4846,-2.4318,-2.3919,-2.3631,-2.3374,0.0,0.0,0.0,0.0,0.0,0.0,0.0,0.0,0.0,0.0,0.0,0.0,0.0,0.0,0.0,0.0,0.0,0.0,0.0,0.0,0.0,0.0,0.0,0.0,0.0,0.0,0.0,0.0,0.0,0.0,0.0,0.0,-1.789,-1.7619,-1.7868,-1.801,-1.786,-1.8523,-1.908,-1.9211,-1.9521,-1.9944,-2.043,-2.0328,-2.0411,-2.0754,-2.0904,-2.1199,-2.1663,-2.1804,-2.2118,-2.2796,-2.2711,-2.2765,-2.2992,-2.2992,-2.297,-2.3001,-2.3001,-2.3001,-2.3001,-2.3001,-2.3161,-2.3457,-2.3385,-2.3627,-2.3913,-2.3418,-2.3454,-2.3847,-2.4143,-2.4484,-2.474,0.0,0.0,0.0,0.0,0.0,0.0,0.0,-2.0505,-2.0662,-2.1141,-2.1765,-2.2477,-2.3324,-2.3915,-2.4384,-2.4678,-2.461,-2.4364,-2.3911,-2.3658,-2.3555,-2.3667,-2.3412,-2.3168,-2.2944,-2.2651,-2.2756,-2.3287,-2.3314,-2.3638,-2.4244,-2.4753,-2.4895,-2.467,-2.4893,-2.4966,-2.4831,-2.4766,-2.4549,-2.4354,-2.4193,-2.3944,-2.3498,-2.2014,-2.1564,-2.1645,-2.086,-2.0508,-2.0339,-1.9782,0.0,0.0,0.0,0.0,0.0,0.0,0.0,0.0,0.0,0.0,0.0,0.0,0.0,0.0,0.0,0.0,0.0,0.0,0.0,0.0,0.0,0.0,0.0,0.0,-1.8308,-1.8306,-1.8305,-1.828,-1.8228,-1.8272,-1.8899,-1.9304,-1.9304,-1.9598,-1.994,-2.0422,-2.0386,-2.052,-2.0998,-2.1179,-2.1464,-2.1825,-2.2228,-2.2572,-2.2853,-2.2585,-2.2574,-2.2649,-2.2928,-2.2906,-2.2841,-2.2927,-2.3001,0.0,-2.3075,-2.3224,-2.3468,-2.3891,-2.409,0.0,0.0,0.0,0.0,0.0,-2.4992,-2.5241,0.0,0.0,0.0,0.0,0.0,0.0,0.0,-2.0492,-2.0487,-2.0399,-2.1632,-2.2532,-2.2571,-2.3809,-2.4611,-2.4604,-2.4435,-2.3946,-2.3033,-2.2809,-2.2929,-2.3445,-2.3199,-2.2944,-2.2642,-2.2337,-2.2442,-2.3069,-2.3457,-2.3956,-2.4551,-2.499,-2.5068,-2.4784,-2.4614,-2.4467,-2.44,-2.4261,-2.4094,-2.394,-2.394,-2.366,-2.3151,-2.1774,-2.1607,-2.1985,-2.1136,-2.0699,-2.051,-2.0371,0.0,0.0,0.0,0.0,0.0,0.0,0.0,0.0,0.0,0.0,0.0,0.0,0.0,0.0,0.0,0.0,0.0,0.0,0.0,0.0,0.0,0.0,0.0,0.0,-1.876,-1.8746,-1.919,-1.8711,-1.8471,-1.872,-1.9098,-1.9275,-1.9275,-1.9447,-1.9762,-2.0281,-2.0334,-2.0557,-2.1087,0.0,0.0,0.0,0.0,-2.2832,-2.2617,-2.208,-2.1962,-2.2209,-2.2746,-2.2853,-2.2682,-2.2928,-2.3078,-2.3088,-2.3293,-2.3516,-2.3716,-2.4446,-2.4614,-2.4361,-2.4235,-2.42,-2.4273,-2.4646,-2.4921,-2.5111,0.0,0.0,0.0,0.0,0.0,0.0,0.0,-2.0503,-2.0478,-2.0405,-2.0588,-2.1165,-2.2386,-2.2691,-2.33,-2.45,-2.3849,-2.3179,-2.2692,-2.3067,-2.328,-2.3175,-2.2902,-2.2642,-2.2292,-2.2027,-2.2396,-2.3389,-2.3296,-2.3754,-2.483,-2.4752,-2.4574,-2.423,-2.4177,-2.4009,-2.3782,-2.3739,-2.361,-2.3451,-2.3451,-2.3405,-2.331,-2.2476,-2.2144,-2.2022,-2.1292,-2.0615,-1.9995,-1.9886,-1.9312,-1.862,-1.8581,0.0,0.0,0.0,0.0,0.0,0.0,0.0,0.0,0.0,0.0,0.0,0.0,0.0,0.0,0.0,0.0,0.0,0.0,0.0,0.0,-1.8849,-1.8543,-1.8566,-1.9382,-1.9313,-1.9168,-1.9266,-1.9575,-1.9738,-1.9738,-1.9497,-1.9687,-2.0586,-2.0649,-2.0946,-2.1572,-2.2062,-2.2189,-2.2136,-2.2381,-2.2456,-2.2412,-2.2218,-2.2111,-2.2187,0.0,0.0,-2.3274,-2.3438,-2.3591,-2.3613,-2.4028,-2.4128,-2.4004,-2.4735,-2.519,-2.5337,-2.451,-2.4273,-2.449,-2.4718,-2.4921,-2.5111,0.0,0.0,0.0,0.0,0.0,0.0,0.0,-2.0463,-2.0408,-2.0301,-2.0557,-2.1044,-2.1764,-2.206,-2.2491,-2.3175,-2.224,-2.1824,-2.2374,-2.2154,-2.2259,-2.2824,-2.2571,-2.2254,-2.1969,-2.1691,-2.2102,-2.3237,-2.2988,-2.3403,-2.4517,-2.4369,-2.4135,-2.3797,-2.3711,-2.3538,-2.3334,-2.329,-2.3127,-2.2963,-2.2963,-2.2859,-2.2637,-2.2178,-2.2149,-2.222,-2.1456,-2.0855,-2.043,-2.0021,-1.9349,-1.8685,-1.8563,-1.8399,-1.8178,0.0,0.0,0.0,0.0,0.0,0.0,0.0,0.0,0.0,0.0,0.0,0.0,0.0,0.0,-1.8123,0.0,0.0,-1.8669,-1.9422,-1.925,-1.9266,-1.9924,-1.9843,-1.9715,-1.9715,-1.9727,-1.9802,-1.9868,-1.9473,-1.9651,-2.0631,-2.0634,-2.0897,-2.1756,-2.2004,-2.208,-2.197,-2.208,-2.209,-2.2077,-2.2056,-2.2046,-2.2122,-2.2424,-2.2692,-2.3069,-2.346,-2.3733,-2.3755,-2.4314,-2.4547,-2.4404,-2.4971,-2.562,-2.6014,-2.5256,-2.4946,-2.5043,-2.5374,-2.5597,-2.5685,0.0,0.0,0.0,0.0,0.0,0.0,0.0,0.0,-2.034,-2.0215,-2.0689,-2.1086,-2.1159,-2.1577,-2.176,-2.1588,-2.0789,-2.0737,-2.1852,-2.1109,-2.1211,-2.2476,-2.2333,-2.2099,-2.1831,-2.1681,-2.2095,-2.3065,-2.282,-2.3117,-2.3979,-2.3925,-2.3726,-2.3363,-2.3275,-2.3127,-2.2949,-2.2859,-2.2678,-2.2463,-2.2463,-2.2231,-2.1941,-2.1636,-2.1886,-2.2314,-2.1531,-2.1129,-2.0858,-2.0161,-1.9508,-1.8913,-1.8634,-1.8502,-1.8477,-1.8257,-1.8195,0.0,0.0,0.0,0.0,0.0,0.0,0.0,0.0,0.0,-1.7879,-1.7668,-1.7961,-1.844,-1.8851,-1.8816,-1.9016,-1.9907,-1.9929,-1.992,-2.0279,-2.014,-2.0074,-2.002,-1.9747,-1.9671,-1.9802,-1.9481,-1.9609,-2.0571,-2.0575,-2.0928,-2.1766,-2.1842,-2.1832,-2.1807,-2.1832,-2.1832,-2.1807,-2.1807,-2.1925,-2.2237,-2.2465,-2.2713,-2.3134,-2.3754,-2.4006,-2.4028,-2.4557,-2.4856,-2.5024,-2.5442,-2.6007,-2.6577,-2.6163,-2.5923,-2.5796,-2.6177,-2.6249,-2.6248,0.0,0.0,0.0,0.0,0.0,0.0,0.0,0.0,0.0,-2.0214,-2.0174,-2.0364,-2.0954,-2.0984,-2.0791,-2.0426,-2.0688,-2.0888,-2.0858,-2.1073,-2.1515,-2.2214,-2.2485,-2.2506,-2.2248,-2.2487,-2.2875,-2.3351,-2.3035,-2.3156,-2.3638,-2.3581,-2.3363,-2.2979,-2.2934,-2.2768,-2.2463,-2.2463,-2.2324,-2.2044,-2.1949,-2.1841,-2.1793,-2.139,-2.1452,-2.1698,-2.1582,-2.1023,-2.0307,-1.9759,-1.9427,-1.9146,-1.8481,-1.8516,-1.88,-1.8524,0.0,-1.8106,-1.7915,-1.7605,-1.7434,-1.7506,-1.7519,-1.7583,0.0,0.0,-1.8487,-1.8487,-1.871,-1.9011,-1.9067,-1.897,-1.9039,-1.9559,-1.9533,-1.9583,-1.9933,-1.9933,-1.9868,-1.9671,-1.9605,-1.9605,-1.9605,-1.9718,-1.9893,-2.0389,-2.0948,-2.1407,-2.1776,-2.2035,-2.2046,-2.1807,-2.1797,-2.1797,-2.1807,-2.1807,-2.2091,-2.273,-2.2963,-2.3624,-2.4692,-2.4908,-2.5011,-2.5011,-2.5146,-2.5502,-2.6063,-2.6311,-2.6591,-2.6894,-2.7,-2.6817,-2.6535,-2.637,-2.6259,-2.6375,0.0,0.0,0.0,0.0,0.0,0.0,0.0,0.0,0.0,0.0,-1.9979,-1.996,-2.0124,-1.9893,-1.979,-1.9896,-1.9973,-2.0309,-2.0997,-2.0983,-2.1245,-2.1895,-2.1835,-2.1633,-2.137,-2.1776,-2.2136,-2.2467,-2.2647,-2.2882,-2.3201,-2.3157,-2.2949,-2.2586,-2.254,-2.2356,-2.2184,-2.1996,-2.1793,-2.1664,-2.152,-2.1423,-2.1326,-2.1131,-2.1082,-2.1006,-2.1104,-2.0908,0.0,0.0,-1.9541,-1.9407,-1.8993,-1.8956,-1.8923,-1.8814,-1.8697,0.0,-1.8286,-1.808,0.0,0.0,-1.7993,-1.8212,-1.8238,-1.8611,-1.8913,-1.8913,-1.8963,-1.9077,-1.9499,-1.9432,-1.9525,0.0,-2.0026,-1.9975,-1.9911,-1.9868,-1.9802,-1.9605,-1.9605,-1.9722,-1.9998,-1.9928,-2.0198,-2.0917,-2.1053,-2.129,-2.1787,-2.1894,-2.1883,-2.1807,-2.1807,-2.1807,-2.1807,-2.1807,-2.2189,-2.296,-2.3037,-2.3624,-2.4701,-2.5054,-2.5327,-2.56,-2.5766,-2.6041,-2.6479,-2.6644,-2.6891,-2.7067,-2.7149,-2.7093,-2.7002,-2.6808,-2.6653,-2.6581,0.0,0.0,0.0,0.0,0.0,0.0,0.0,0.0,0.0,0.0,-1.9839,-1.965,-1.9361,-1.9249,-1.9305,-1.9559,-1.9542,-1.9976,-2.1121,-2.0788,-2.0862,-2.157,-2.1376,-2.1128,-2.0874,-2.1332,-2.166,-2.1934,-2.2274,-2.2584,-2.2814,-2.2768,-2.2586,-2.2278,-2.2137,-2.1996,-2.1793,-2.1616,-2.1423,-2.1277,-2.1144,-2.1046,-2.0934,-2.0934,-2.0785,-2.056,-2.0709,-2.066,-2.0481,0.0,-1.9564,-1.9618,-1.9304,-1.917,-1.9095,-1.8995,-1.8958,-1.8863,-1.8585,0.0,0.0,-1.8249,-1.8374,-1.8519,-1.8538,-1.8881,-1.9237,-1.9188,-1.9188,-1.9397,-1.9887,-1.9879,-1.9927,-2.0279,-2.0281,-2.014,-1.9868,-1.9736,-1.9671,-1.9473,-1.9589,-1.9853,-2.0318,-2.0233,-2.0477,-2.1188,-2.1197,-2.135,-2.1787,-2.1807,-2.1807,-2.1807,-2.1807,-2.1807,-2.1807,-2.1807,-2.2328,-2.3296,-2.3296,-2.3863,-2.4891,-2.53,-2.565,-2.599,-2.6229,-2.6396,-2.6644,-2.6809,-2.6974,-2.7149,-2.7149,-2.7231,-2.7162,-2.7056,-2.6952,-2.7032,0.0,0.0,0.0,0.0,0.0,0.0,0.0,0.0,0.0,0.0,0.0,0.0,0.0,0.0,-1.9584,-1.9329,-1.9716,-2.0237,-2.086,-2.0459,-2.0534,-2.1276,-2.1476,-2.149,-2.1291,-2.169,-2.2044,-2.2273,-2.2104,-2.2221,-2.2615,-2.2463,-2.2278,-2.1996,-2.1841,-2.1664,-2.1423,-2.1277,-2.1131,-2.0997,-2.0924,-2.0861,-2.0809,-2.0736,-2.0586,-2.0422,-2.056,-2.0372,0.0,0.0,-1.9459,-1.9698,-1.9046,-1.9092,0.0,-1.9069,-1.8815,0.0,0.0,0.0,-1.8258,-1.8876,-1.8753,-1.8483,-1.8806,-1.9221,-1.9563,-1.9397,-1.9768,-2.0042,-2.0118,-2.0064,-2.0064,-2.0074,-2.0009,-1.9868,-1.9671,-1.9417,-1.9274,-1.9131,-1.9604,-2.0063,0.0,-2.0542,-2.073,-2.0884,-2.1432,-2.1787,-2.1807,-2.1807,-2.1807,-2.1807,-2.1807,-2.1807,-2.1807,-2.1807,-2.2475,-2.3753,-2.3753,-2.4497,-2.5852,-2.6041,-2.6218,-2.624,-2.6479,-2.6561,-2.6644,-2.6809,-2.6891,-2.6891,-2.7149,-2.7231,-2.7162,-2.6794,-2.716,-2.7846,0.0,0.0,0.0,0.0,0.0,0.0,0.0,0.0,0.0,0.0,0.0,0.0,0.0,0.0,0.0,0.0,0.0,-2.0593,-2.119,-2.0844,-2.0671,-2.0747,-2.0609,-2.0396,-2.0113,-2.0624,-2.0838,-2.0724,-2.0994,-2.1355,-2.1716,-2.1535,-2.1467,-2.1616,-2.1471,-2.1277,-2.1131,-2.1059,-2.0911,-2.0723,-2.0662,-2.0549,-2.0422,-2.0385,-2.0233,-2.0016,0.0,-1.9952,0.0,0.0,0.0,0.0,-1.9147,0.0,0.0,-1.8679,0.0,0.0,0.0,0.0,-1.8521,-1.8892,-1.9099,-1.9194,-1.9197,-1.9613,-1.9899,-1.9899,-1.9966,-2.0085,-2.0085,-2.0085,-2.0074,-2.0009,-1.9944,-1.9802,-1.9473,-1.9613,-1.9677,-1.9394,-1.9934,0.0,0.0,0.0,0.0,-2.1442,-2.1714,-2.1807,-2.1807,-2.1807,-2.1807,-2.1807,-2.1807,-2.1807,-2.1807,-2.1949,-2.2415,-2.3349,-2.4287,-2.5017,-2.5426,-2.5837,-2.6063,-2.624,-2.6479,-2.6644,-2.6809,-2.6974,-2.7067,-2.7149,-2.7149,-2.7231,-2.7208,-2.7105,-2.7406,-2.7834,0.0,0.0,0.0,0.0,0.0,0.0,0.0,0.0,0.0,0.0,0.0,0.0,0.0,0.0,0.0,0.0,0.0,0.0,-2.1166,-2.0844,-2.0579,-2.0361,-1.9995,-1.969,-1.942,-1.975,-1.9841,-1.9727,-2.0044,-2.0471,-2.0986,-2.0804,-2.09,-2.1229,-2.1144,-2.0997,-2.0835,-2.0775,-2.0612,-2.0372,-2.0347,-2.0195,-1.9965,-2.0029,-1.9862,0.0,-1.9592,-1.954,0.0,0.0,0.0,0.0,0.0,0.0,0.0,0.0,0.0,0.0,0.0,-1.8697,-1.8806,-1.9232,-1.9434,-1.9577,-1.9637,-1.9857,-2.0085,-2.0085,-2.0085,-2.0085,-2.0085,-2.0085,-2.0074,-1.9933,-1.9868,-1.9671,-1.9274,-1.9401,-1.9452,-1.9178,-1.9788,0.0,0.0,0.0,0.0,-2.1787,-2.1807,-2.1807,-2.1807,-2.1807,-2.1807,-2.1807,-2.1807,-2.1807,-2.1883,-2.2025,-2.2495,-2.3203,-2.4545,-2.5175,-2.5185,-2.5843,-2.6229,-2.6396,-2.6644,-2.6891,-2.6974,-2.7149,-2.7231,-2.7231,-2.7231,-2.7231,-2.7231,-2.7231,-2.7394,-2.7592,0.0,0.0,0.0,0.0,0.0,0.0,0.0,0.0,0.0,0.0,0.0,0.0,0.0,0.0,0.0,0.0,0.0,0.0,-2.0778,-2.0512,-2.0273,-2.0065,-1.9675,-1.942,-1.9265,-1.9055,-1.9073,-1.9348,-1.9251,-1.9623,-2.0441,-2.0361,-2.0542,-2.0947,-2.0875,-2.0762,-2.056,-2.0498,-2.0258,-1.999,-1.999,-1.9823,-1.9617,-1.9695,-1.9617,-1.9368,-1.9251,0.0,0.0,0.0,0.0,0.0,0.0,0.0,0.0,0.0,0.0,-1.8494,-1.8817,-1.8912,-1.9144,-1.991,-1.9737,-1.9519,-1.9976,-2.0074,-2.0085,-2.0085,-2.0085,-2.0085,0.0,0.0,-2.0009,-1.9933,-1.9736,-1.9473,-1.9131,-1.8962,-1.8782,0.0,0.0,0.0,0.0,0.0,0.0,-2.1818,0.0,-2.1807,-2.1807,-2.1807,-2.1807,-2.1807,-2.1807,-2.1883,-2.2101,-2.2101,-2.255,-2.3393,-2.4571,-2.5098,-2.5201,-2.6117,-2.6528,-2.661,-2.6962,-2.7149,-2.7231,-2.7231,-2.7231,-2.7231,-2.7231,-2.7231,-2.7231,-2.7231,-2.7231,-2.7219,0.0,0.0,0.0,0.0,0.0,0.0,0.0,0.0,0.0,0.0,0.0,0.0,0.0,0.0,0.0,0.0,0.0,0.0,-2.0314,-2.0104,-1.9803,-1.9508,-1.9265,-1.9003,-1.8697,-1.8567,-1.8442,-1.8356,-1.8194,-1.8555,-1.9396,-1.9225,-1.9512,-2.0258,-2.0233,-2.0144,-2.0003,-1.9965,-1.9862,-1.972,-1.972,-1.9617,-1.946,-1.9396,-1.9239,-1.9093,0.0,0.0,0.0,0.0,0.0,0.0,0.0,0.0,-1.8396,0.0,0.0,-1.894,-1.8906,-1.9133,-1.9489,-1.9846,-1.9846,-1.9782,-1.9715,-1.9813,-1.9933,-1.9933,-2.0009,-2.0085,0.0,0.0,0.0,-1.9736,-1.9473,0.0,-1.8942,-1.9104,0.0,0.0,0.0,-2.0108,-2.0014,-2.0566,0.0,0.0,-2.1828,-2.1807,-2.1807,-2.1807,-2.1807,-2.1807,-2.1959,-2.2025,-2.2101,-2.2402,-2.2757,-2.3123,-2.3809,-2.4093,-2.4126,-2.5289,-2.585,-2.6035,-2.6651,-2.7056,-2.7231,-2.7231,-2.7231,-2.7231,-2.7231,-2.7231,-2.7231,-2.7231,-2.7301,-2.7441,0.0,0.0,0.0,0.0,0.0,0.0,0.0,0.0,0.0,0.0,0.0,0.0,0.0,0.0,0.0,0.0,0.0,0.0,0.0,-1.9767,-1.9508,-1.9168,-1.8965,-1.8697,-1.8411,-1.824,-1.8082,-1.7975,-1.7693,-1.8001,-1.8865,-1.8647,-1.9047,-1.9901,-1.9914,-1.9823,-1.9708,-1.9708,-1.9617,0.0,0.0,-1.9368,-1.921,-1.9093,-1.8999,0.0,0.0,0.0,0.0,0.0,0.0,-1.8096,-1.8139,-1.8316,-1.8372,-1.8103,0.0,-1.9188,-1.9087,-1.9427,-1.979,-1.9803,-1.9802,-1.9868,-1.9747,-1.9802,-1.9933,-2.0009,-2.0074,0.0,0.0,0.0,0.0,0.0,0.0,0.0,-1.8741,-1.8897,-1.8903,0.0,-1.917,0.0,-1.9192,-2.0166,-2.1088,0.0,-2.1762,-2.1807,-2.1807,-2.1807,-2.1807,-2.1807,-2.2035,-2.2176,-2.2327,-2.2703,-2.2927,-2.3012,-2.3504,-2.3733,-2.3831,-2.4746,-2.5449,-2.5983,0.0,-2.685,-2.7231,-2.7231,-2.7231,-2.7231,-2.7231,-2.7231,-2.7231,-2.7231,-2.7301,-2.7371,0.0,0.0,0.0,0.0,0.0,0.0,0.0,0.0,0.0,0.0,0.0,0.0,0.0,0.0,0.0,0.0,0.0,0.0,0.0,0.0,0.0,-1.8955,-1.8683,-1.8461,-1.824,-1.8082,0.0,0.0,0.0,-1.7731,-1.8472,-1.8312,-1.8667,-1.9483,-1.9558,-1.9544,-1.9401,-1.9475,-1.9368,-1.917,-1.917,-1.9117,-1.8946,0.0,0.0,0.0,0.0,0.0,0.0,0.0,-1.7711,-1.7711,-1.7854,-1.8081,-1.8298,-1.8231,-1.883,-1.9443,-1.9273,-1.9662,-2.0009,-1.9671,-1.9736,-1.9868,-1.9802,-1.9868,-1.9868,-2.0009,0.0,-2.0085,-2.0085,0.0,-1.9802,-1.9605,0.0,-1.9152,-1.8617,-1.8539,-1.8388,-1.8018,-1.8538,-1.8699,-1.8044,-1.9916,-2.1349,-2.1752,-2.1818,-2.1807,-2.1807,-2.1807,-2.1807,-2.1883,-2.2101,-2.2327,-2.2703,-2.2927,-2.3001,-2.3001,-2.3427,-2.3711,-2.3962,-2.4448,-2.5127,-2.5848,-2.6075,0.0,-2.7046,-2.7126,-2.7149,-2.7149,-2.7149,-2.7231,-2.7231,-2.7231,-2.7231,-2.7231,0.0,0.0,0.0,0.0,0.0,0.0,0.0,0.0,0.0,0.0,-1.732,-1.7076,0.0,0.0,0.0,0.0,0.0,0.0,0.0,0.0,0.0,0.0,-1.845,-1.824,0.0,0.0,0.0,0.0,0.0,0.0,-1.7364,-1.741,-1.756,-1.7848,-1.8385,-1.858,-1.8464,-1.8911,-1.9093,-1.904,-1.904,-1.8946,-1.8851,0.0,0.0,0.0,0.0,0.0,0.0,0.0,-1.759,-1.7711,-1.7711,-1.8213,-1.8681,-1.8331,-1.9061,-1.9868,-1.9465,-1.9715,-2.0009,-1.9671,-1.9605,-1.9605,-1.9417,-1.9539,0.0,0.0,0.0,-2.0085,-2.0085,-2.0009,0.0,-1.9605,0.0,0.0,0.0,0.0,-1.8494,0.0,0.0,0.0,0.0,0.0,0.0,0.0,0.0,-2.1807,-2.1807,-2.1807,-2.1959,-2.2252,-2.2478,-2.2703,-2.2927,-2.3001,-2.3075,-2.3224,-2.3163,-2.3207,-2.3442,-2.3962,-2.4304,-2.4514,-2.5712,0.0,-2.6071,-2.6885,-2.7067,-2.6974,-2.7149,-2.7231,-2.7231,-2.7231,-2.7231,-2.7231,0.0,0.0,0.0,0.0,0.0,0.0,0.0,-1.7883,-1.7542,-1.7101,-1.6799,-1.6581,-1.6463,-1.6219,-1.6285,0.0,0.0,0.0,0.0,0.0,0.0,0.0,0.0,0.0,0.0,0.0,0.0,0.0,0.0,0.0,0.0,0.0,0.0,0.0,0.0,0.0,0.0,0.0,0.0,0.0,0.0,0.0,0.0,0.0,0.0,0.0,0.0,0.0,0.0,0.0,-1.729,-1.7357,-1.7434,-1.7873,-1.8338,-1.8408,-1.9087,-1.9704,-1.9662,-1.99,-2.0009,-1.9671,-1.9671,-1.9736,-1.9605,0.0,0.0,0.0,0.0,-2.0085,-2.0085,0.0,0.0,0.0,0.0,0.0,0.0,0.0,0.0,0.0,0.0,0.0,0.0,0.0,0.0,0.0,0.0,-2.1807,-2.1807,-2.1883,-2.2101,-2.2402,-2.2628,-2.2777,-2.3001,-2.3001,-2.3075,-2.315,-2.3075,-2.3075,-2.3309,-2.3477,-2.3807,-2.4312,-2.5116,0.0,-2.5867,-2.6687,-2.6974,-2.6891,-2.7149,-2.7231,-2.7231,-2.7231,-2.7301,-2.7371,0.0,0.0,0.0,0.0,0.0,0.0,0.0,-1.7566,-1.7167,-1.6763,-1.6355,-1.6123,-1.6108,-1.5926,-1.595,0.0,0.0,0.0,0.0,0.0,0.0,0.0,0.0,0.0,0.0,0.0,0.0,0.0,0.0,0.0,0.0,0.0,0.0,0.0,0.0,0.0,0.0,0.0,0.0,0.0,0.0,0.0,0.0,0.0,0.0,0.0,0.0,0.0,0.0,0.0,-1.7011,-1.7011,-1.7211,-1.7546,-1.797,-1.8518,-1.9102,-1.9563,-1.9706,-1.9857,-1.9857,-1.9597,-1.9662,-1.9749,-1.9846,-1.9792,0.0,0.0,-1.9911,-1.9835,-2.0042,0.0,0.0,0.0,0.0,0.0,0.0,0.0,0.0,0.0,0.0,0.0,0.0,0.0,0.0,0.0,0.0,0.0,-2.1807,-2.2035,-2.2252,-2.2402,-2.2628,-2.2852,-2.3001,-2.3001,-2.3001,-2.3075,-2.3001,-2.3075,-2.3298,-2.3075,-2.3433,-2.4133,-2.4581,0.0,0.0,-2.656,-2.6891,-2.6891,-2.7149,-2.7231,-2.7231,-2.7231,-2.7301,-2.7452,0.0,0.0,0.0,0.0,0.0,0.0,0.0,-1.7288,-1.6892,-1.649,-1.6093,-1.5754,-1.5507,-1.5522,-1.5522,0.0,0.0,0.0,0.0,0.0,0.0,0.0,0.0,0.0,0.0,0.0,0.0,0.0,0.0,0.0,0.0,0.0,0.0,0.0,0.0,0.0,0.0,0.0,0.0,0.0,0.0,0.0,0.0,0.0,0.0,0.0,0.0,0.0,0.0,0.0,0.0,-1.7011,-1.7011,-1.7578,-1.8259,-1.8616,0.0,0.0,-1.953,-1.9421,-1.9421,-1.9253,-1.9253,-1.9361,-1.9771,0.0,0.0,-1.9998,-1.9441,-1.9091,-1.9911,0.0,0.0,0.0,0.0,0.0,0.0,0.0,0.0,0.0,0.0,0.0,0.0,0.0,0.0,0.0,0.0,0.0,-2.1807,-2.2176,-2.2402,-2.2402,-2.2777,-2.3001,-2.3001,-2.3001,-2.3075,-2.3298,-2.3075,-2.3075,-2.3298,-2.3075,-2.3023,-2.3185,-2.4271,0.0,0.0,-2.6332,-2.6891,-2.6891,-2.7149,-2.7231,-2.7231,-2.7231,-2.7231,-2.7231,0.0,0.0,0.0,0.0,0.0,0.0,-1.7313,-1.6926,-1.6538,-1.6093,-1.5711,-1.5418,-1.5165,-1.5088,-1.5041,-1.5056,0.0,0.0,0.0,0.0,0.0,0.0,0.0,0.0,0.0,0.0,0.0,0.0,0.0,0.0,0.0,0.0,0.0,0.0,0.0,0.0,0.0,0.0,0.0,0.0,0.0,0.0,0.0,0.0,0.0,0.0,0.0,0.0,0.0,0.0,0.0,0.0,-1.7011,-1.7359,0.0,0.0,-1.8496,-1.8812,-1.896,-1.8982,-1.9047,-1.9228,-1.9304,-1.9347,-1.9532,0.0,0.0,-1.9299,-1.896,-1.8895,-1.9583,0.0,0.0,0.0,0.0,0.0,0.0,0.0,0.0,0.0,0.0,0.0,0.0,0.0,0.0,0.0,0.0,0.0,-2.2166,-2.2402,-2.2553,-2.2553,-2.2852,-2.3001,-2.3001,-2.3001,-2.3075,-2.315,-2.3075,-2.3075,-2.315,-2.3001,-2.3001,-2.3034,-2.3799,0.0,0.0,-2.5672,-2.6293,-2.6693,-2.6621,-2.6782,-2.7196,-2.6887,-2.7036,-2.7371,0.0,0.0,0.0,0.0,0.0,-1.7344,-1.6917,-1.6581,-1.6203,-1.5754,-1.5418,-1.5133,-1.4921,-1.4732,-1.462,-1.4683,-1.462,0.0,0.0,0.0,0.0,0.0,0.0,0.0,0.0,0.0,-1.6577,-1.6392,-1.6188,0.0,0.0,0.0,0.0,0.0,0.0,0.0,0.0,0.0,0.0,0.0,0.0,0.0,0.0,0.0,0.0,0.0,0.0,0.0,0.0,0.0,0.0,0.0,0.0,0.0,0.0,0.0,-1.8039,-1.8191,-1.8376,-1.848,-1.86,-1.9091,-1.92,-1.9277,0.0,0.0,0.0,-1.8949,-1.8567,-1.8528,-1.9186,0.0,0.0,-1.9802,0.0,-1.9877,0.0,0.0,0.0,0.0,0.0,0.0,0.0,0.0,0.0,0.0,0.0,0.0,0.0,-2.2703,-2.2777,-2.2703,-2.2927,-2.3001,-2.3001,-2.3001,-2.3078,-2.322,-2.322,-2.322,-2.322,-2.322,-2.3143,-2.3023,-2.3514,0.0,0.0,-2.5165,-2.5772,-2.6265,-2.6108,-2.6325,-2.6657,-2.6291,-2.6462,-2.6772,0.0,0.0,0.0,0.0,0.0,0.0,-1.6554,-1.6203,-1.5883,-1.5536,-1.5195,-1.4921,-1.4746,-1.4461,-1.4268,-1.4203,-1.4268,0.0,0.0,0.0,0.0,0.0,0.0,0.0,0.0,0.0,-1.6392,-1.62,-1.5925,-1.5869,-1.5988,0.0,0.0,0.0,0.0,0.0,0.0,0.0,0.0,0.0,0.0,0.0,0.0,0.0,0.0,0.0,0.0,0.0,0.0,0.0,0.0,0.0,0.0,0.0,0.0,0.0,-1.8078,-1.8276,-1.7954,-1.7893,-1.8119,-1.8578,-1.8698,-1.8949,0.0,0.0,0.0,-1.931,-1.8283,-1.7731,-1.8955,0.0,0.0,0.0,0.0,0.0,0.0,0.0,0.0,0.0,0.0,0.0,0.0,0.0,0.0,0.0,0.0,0.0,0.0,-2.3001,-2.2927,-2.2703,-2.2927,-2.3001,-2.3001,-2.3001,-2.3241,-2.3722,-2.3722,-2.3722,-2.3722,-2.3722,-2.346,0.0,0.0,0.0,0.0,-2.5101,-2.5462,-2.5462,-2.5916,-2.5825,-2.5417,-2.5406,-2.5328,-2.5161,0.0,0.0,0.0,0.0,0.0,0.0,0.0,-1.5811,-1.5507,-1.5133,-1.4918,-1.47,-1.4447,-1.43,-1.4138,-1.3941,-1.3974,0.0,0.0,0.0,0.0,0.0,0.0,0.0,0.0,-1.5989,-1.5819,-1.5937,-1.5792,-1.5703,-1.5647,-1.539,-1.5255,0.0,0.0,0.0,0.0,0.0,0.0,0.0,0.0,0.0,0.0,0.0,0.0,0.0,0.0,0.0,0.0,0.0,0.0,0.0,0.0,0.0,0.0,0.0,0.0,0.0,-1.7483,-1.7508,-1.7693,-1.849,-1.8687,-1.8774,-1.908,0.0,0.0,0.0,-1.7824,-1.7671,0.0,0.0,0.0,0.0,0.0,0.0,0.0,0.0,0.0,0.0,0.0,0.0,0.0,0.0,0.0,0.0,0.0,0.0,0.0,-2.3001,-2.3001,-2.2927,-2.3001,-2.3001,-2.3001,-2.3001,-2.3252,-2.3722,-2.3394,-2.3405,-2.3722,-2.3383,-2.3143,0.0,0.0,0.0,0.0,-2.4511,-2.5123,-2.5655,-2.5284,-2.5475,-2.5825,-2.5057,-2.5082,-2.5609,0.0,0.0,0.0,0.0,0.0,0.0,0.0,-1.5448,-1.5179,-1.4856,-1.47,-1.4529,-1.43,-1.4189,-1.4026,-1.3741,-1.3741,0.0,0.0,0.0,0.0,0.0,0.0,0.0,-1.5916,-1.5745,-1.5629,-1.5703,-1.5659,-1.557,-1.5513,-1.5244,-1.5108,-1.5108,-1.4926,-1.4846,0.0,0.0,0.0,0.0,0.0,0.0,-1.5317,0.0,0.0,0.0,0.0,0.0,0.0,0.0,0.0,0.0,0.0,0.0,0.0,0.0,0.0,0.0,0.0,-1.7211,-1.7464,-1.8239,-1.8436,0.0,0.0,0.0,0.0,0.0,0.0,0.0,0.0,0.0,0.0,0.0,0.0,0.0,0.0,0.0,0.0,0.0,0.0,0.0,0.0,0.0,0.0,0.0,0.0,0.0,0.0,-2.3001,-2.3001,-2.3001,-2.3001,-2.3088,-2.3274,-2.3088,-2.334,-2.4017,-2.3514,-2.3438,-2.3722,-2.3416,-2.3176,0.0,0.0,0.0,0.0,-2.4073,-2.4503,-2.4815,-2.4604,-2.4781,-2.4981,-2.4276,-2.4414,-2.5059,0.0,0.0,0.0,0.0,0.0,0.0,0.0,-1.5088,-1.489,-1.47,-1.456,-1.442,-1.4189,-1.4078,-1.3868,-1.3615,0.0,0.0,0.0,0.0,0.0,0.0,0.0,0.0,-1.4935,-1.5569,-1.5728,-1.5454,-1.5457,-1.5468,-1.5468,-1.5096,-1.496,-1.5062,-1.4857,-1.4776,-1.4764,-1.5078,-1.5061,-1.4887,-1.5441,-1.4995,0.0,0.0,0.0,0.0,0.0,0.0,0.0,0.0,0.0,0.0,0.0,0.0,0.0,0.0,0.0,0.0,0.0,0.0,0.0,0.0,0.0,0.0,0.0,0.0,0.0,0.0,0.0,0.0,0.0,0.0,0.0,0.0,0.0,0.0,0.0,0.0,0.0,0.0,0.0,0.0,0.0,0.0,0.0,0.0,0.0,0.0,0.0,-2.3001,-2.3001,-2.3001,-2.3001,-2.322,-2.3678,-2.323,-2.3482,-2.4432,-2.3919,-2.37,-2.3733,-2.37,-2.3427,0.0,0.0,0.0,0.0,-2.3677,-2.3762,-2.3397,-2.4013,-2.3913,-2.3353,-2.3309,-2.3479,-2.3853,0.0,0.0,0.0,0.0,0.0,0.0,0.0,0.0,0.0,0.0,-1.4383,-1.4273,-1.4065,-1.3947,-1.3828,0.0,0.0,0.0,0.0,0.0,0.0,0.0,0.0,0.0,-1.4514,-1.4562,-1.466,-1.4881,-1.5192,-1.5312,-1.5188,-1.5097,-1.4949,-1.4708,-1.4569,-1.4395,-1.4172,-1.4279,-1.4275,-1.4238,-1.4355,-1.4259,0.0,0.0,0.0,0.0,-1.621,-1.6545,0.0,0.0,0.0,0.0,0.0,0.0,0.0,0.0,-1.6842,-1.7011,-1.7211,0.0,-1.7465,-1.798,-1.7828,0.0,0.0,0.0,0.0,0.0,0.0,0.0,0.0,0.0,0.0,0.0,0.0,0.0,0.0,0.0,0.0,0.0,0.0,0.0,0.0,0.0,0.0,0.0,0.0,0.0,0.0,-2.3001,-2.3001,-2.3001,-2.3001,-2.3056,-2.3176,-2.3056,-2.3307,-2.3897,-2.3405,-2.3362,-2.3722,-2.334,-2.311,0.0,0.0,0.0,-2.3034,-2.3525,-2.3831,-2.3906,-2.3842,-2.3896,-2.384,-2.3293,-2.3634,-2.4334,0.0,0.0,0.0,0.0,0.0,0.0,0.0,0.0,0.0,0.0,0.0,-1.4189,-1.4032,-1.3894,0.0,0.0,0.0,0.0,0.0,0.0,0.0,0.0,0.0,-1.3262,-1.3787,-1.4168,-1.4434,-1.4545,-1.5068,-1.5245,-1.5108,-1.5017,-1.4879,-1.4695,-1.4362,-1.4118,-1.3962,-1.3962,-1.3962,-1.3915,-1.3973,0.0,0.0,0.0,0.0,0.0,-1.5988,-1.6244,0.0,-1.6384,-1.6384,-1.6384,0.0,0.0,0.0,0.0,-1.6631,-1.681,-1.72,-1.7278,-1.74,-1.7696,-1.7513,-1.7453,0.0,0.0,0.0,0.0,0.0,0.0,0.0,0.0,0.0,0.0,0.0,0.0,0.0,0.0,0.0,0.0,0.0,0.0,0.0,0.0,0.0,0.0,0.0,0.0,0.0,-2.3001,-2.3001,-2.3001,-2.3001,-2.311,-2.3329,-2.311,-2.3252,-2.3722,-2.323,-2.3143,-2.3383,-2.3121,-2.3001,0.0,0.0,0.0,-2.3023,-2.336,-2.3556,-2.3567,-2.3556,-2.3556,-2.3534,-2.3174,-2.3482,-2.417,0.0,0.0,0.0,0.0,0.0,0.0,0.0,0.0,0.0,0.0,0.0,0.0,0.0,0.0,0.0,0.0,0.0,0.0,0.0,0.0,0.0,0.0,-1.3046,-1.3172,-1.3115,-1.4041,-1.4483,-1.4373,-1.5035,-1.5256,-1.5074,-1.4948,-1.4821,-1.4704,-1.4233,-1.3967,-1.3847,-1.3847,-1.38,-1.3773,-1.3868,0.0,0.0,0.0,0.0,0.0,0.0,0.0,0.0,-1.642,-1.6384,-1.6384,-1.6384,0.0,0.0,0.0,0.0,0.0,-1.7145,-1.7289,-1.7278,-1.7278,-1.7278,-1.7309,-1.7312,0.0,0.0,0.0,0.0,0.0,0.0,0.0,0.0,0.0,0.0,0.0,0.0,0.0,0.0,0.0,0.0,0.0,0.0,0.0,0.0,0.0,0.0,0.0,0.0,-2.3001,-2.3001,-2.3001,-2.3001,-2.3198,-2.3613,-2.3209,-2.3209,-2.3613,-2.3198,-2.3001,-2.3001,-2.3001,-2.3001,-2.3001,0.0,0.0,-2.3001,-2.315,-2.315,-2.3001,-2.3224,-2.315,-2.3001,-2.3001,-2.3351,-2.3852,0.0,0.0,0.0,0.0,0.0,0.0,0.0,0.0,0.0,0.0,0.0,0.0,0.0,0.0,0.0,0.0,0.0,0.0,0.0,0.0,0.0,-1.2709,-1.2746,-1.2938,-1.3241,-1.3551,-1.3875,-1.4327,-1.4878,-1.5143,-1.5097,-1.5061,-1.484,-1.4443,-1.4131,-1.3889,-1.3668,-1.3668,-1.3621,-1.361,-1.3668,0.0,0.0,0.0,0.0,0.0,0.0,0.0,0.0,-1.6394,-1.6384,-1.6384,-1.6384,0.0,0.0,0.0,0.0,0.0,-1.7121,-1.7311,-1.7311,-1.7278,-1.7278,-1.7309,-1.7312,0.0,0.0,0.0,0.0,0.0,0.0,0.0,0.0,0.0,0.0,0.0,0.0,0.0,0.0,0.0,0.0,0.0,0.0,0.0,0.0,0.0,0.0,0.0,-2.3001,-2.3001,-2.3001,-2.3001,-2.3001,-2.3034,-2.311,-2.3045,-2.3045,-2.311,-2.3034,-2.3001,-2.3001,-2.3001,-2.3001,-2.3001,0.0,-2.3001,-2.3001,-2.3001,-2.3001,-2.3001,-2.3001,-2.3001,-2.3001,-2.3001,-2.3416,-2.4158,0.0,0.0,0.0,0.0,0.0,0.0,0.0,0.0,0.0,0.0,0.0,0.0,0.0,0.0,0.0,0.0,0.0,0.0,0.0,0.0,-1.278,-1.2698,-1.2698,-1.2806,-1.2968,-1.3385,-1.3654,-1.3935,-1.4721,-1.5108,-1.5096,-1.4556,-1.4161,-1.3958,-1.3852,-1.3736,-1.3594,-1.3594,-1.3604,-1.3614,0.0,0.0,0.0,0.0,0.0,0.0,0.0,0.0,0.0,0.0,-1.6384,-1.6384,-1.6384,0.0,0.0,0.0,0.0,0.0,-1.6733,-1.7043,-1.7298,-1.7289,-1.7278,-1.7322,0.0,0.0,0.0,0.0,0.0,0.0,0.0,0.0,0.0,0.0,0.0,0.0,0.0,0.0,0.0,0.0,0.0,0.0,0.0,0.0,0.0,0.0,0.0,0.0,-2.3001,-2.2927,-2.2927,-2.3001,-2.2927,-2.2927,-2.3001,-2.3001,-2.3001,-2.3001,-2.3001,-2.3001,-2.3001,-2.3001,-2.3001,-2.3001,0.0,-2.2852,-2.2852,-2.2852,-2.2777,-2.2703,-2.2927,-2.2852,-2.2735,-2.2994,-2.3533,-2.4164,0.0,0.0,0.0,0.0,0.0,0.0,0.0,0.0,0.0,0.0,0.0,0.0,0.0,0.0,0.0,0.0,0.0,0.0,0.0,-1.2768,-1.2709,-1.2674,-1.2651,-1.2728,-1.2993,-1.3253,-1.3563,-1.396,-1.4496,-1.4787,-1.4933,-1.4003,-1.3611,-1.36,-1.3573,-1.3536,-1.343,-1.343,-1.3508,-1.3608,0.0,0.0,0.0,0.0,0.0,0.0,0.0,0.0,0.0,0.0,0.0,0.0,0.0,0.0,0.0,-1.6379,-1.6425,-1.6472,-1.6501,-1.6909,-1.7253,-1.7211,-1.7267,0.0,0.0,0.0,0.0,0.0,0.0,0.0,0.0,0.0,0.0,0.0,0.0,0.0,0.0,0.0,0.0,0.0,0.0,0.0,0.0,0.0,0.0,0.0,0.0,0.0,-2.2927,-2.2777,-2.2703,-2.2927,-2.2777,-2.2777,-2.3001,-2.3001,-2.3001,-2.3001,-2.3001,-2.3001,-2.2927,-2.3001,-2.2927,-2.2852,-2.2777,-2.2703,-2.2628,-2.2628,-2.2553,-2.2402,-2.2777,-2.2703,-2.2466,-2.2984,-2.3509,-2.4063,0.0,0.0,0.0,0.0,0.0,0.0,0.0,0.0,0.0,0.0,0.0,0.0,0.0,0.0,0.0,0.0,0.0,0.0,0.0,-1.2627,-1.2508,-1.2508,-1.2459,-1.2876,-1.3772,-1.3137,-1.3493,-1.4994,-1.4117,-1.3982,-1.446,-1.3873,-1.3594,-1.3597,-1.3597,-1.3344,-1.2956,-1.2956,-1.3218,-1.3549,-1.314,0.0,0.0,0.0,0.0,0.0,0.0,0.0,0.0,0.0,0.0,0.0,0.0,0.0,-1.6384,-1.6374,-1.6555,-1.6782,-1.6751,-1.7008,-1.7244,-1.689,-1.7067,0.0,-1.7278,-1.7278,0.0,-1.7278,0.0,0.0,0.0,0.0,0.0,0.0,0.0,0.0,0.0,0.0,0.0,0.0,0.0,0.0,0.0,0.0,0.0,0.0,0.0,0.0,-2.2703,-2.2553,-2.2478,-2.2703,-2.2703,-2.2777,-2.3001,-2.3001,-2.3001,-2.3001,-2.3001,-2.2927,-2.2703,-2.2927,-2.2777,-2.2478,-2.2628,-2.2628,-2.2402,-2.2402,-2.2402,-2.2402,-2.2402,-2.2402,-2.2519,-2.3198,-2.3636,-2.3956,0.0,0.0,0.0,0.0,0.0,0.0,0.0,0.0,0.0,0.0,0.0,0.0,0.0,0.0,0.0,0.0,0.0,0.0,0.0,-1.2508,-1.2449,-1.2437,-1.2404,-1.2502,-1.2784,-1.3724,-1.4169,-1.4185,-1.3814,-1.369,-1.3884,-1.3416,-1.3148,-1.316,-1.3152,-1.3055,-1.288,-1.2909,-1.2997,-1.3163,-1.2987,-1.2918,0.0,0.0,0.0,0.0,0.0,0.0,0.0,0.0,-1.6384,-1.6441,-1.6623,-1.6779,-1.6914,-1.6503,-1.656,-1.6828,-1.7076,-1.7231,-1.7242,-1.7134,-1.7211,0.0,0.0,-1.7278,-1.7323,-1.7279,-1.7445,0.0,0.0,0.0,0.0,0.0,0.0,0.0,0.0,0.0,0.0,0.0,0.0,0.0,0.0,0.0,0.0,0.0,0.0,0.0,0.0,-2.2402,-2.2327,-2.2703,-2.2553,-2.2703,-2.3001,-2.3001,-2.3001,-2.3001,-2.3001,-2.2927,-2.2703,-2.2777,-2.2628,-2.2402,-2.2327,-2.2252,-2.2176,-2.2176,-2.2101,-2.2035,-2.2035,-2.2176,-2.2444,-2.3081,-2.3426,-2.3714,0.0,0.0,0.0,0.0,0.0,0.0,0.0,0.0,0.0,0.0,0.0,0.0,0.0,0.0,0.0,0.0,0.0,0.0,-1.2473,-1.2413,-1.2365,-1.2352,-1.2313,-1.2316,-1.2329,-1.3835,-1.4306,-1.3579,-1.3523,-1.3521,-1.3508,-1.311,-1.2888,-1.289,-1.288,-1.291,-1.2881,-1.2725,-1.2745,-1.291,-1.2881,-1.288,0.0,0.0,0.0,0.0,0.0,0.0,0.0,0.0,-1.6327,-1.6156,-1.6673,-1.6842,-1.6791,-1.6374,-1.643,-1.6706,-1.6905,-1.6993,-1.7102,-1.7256,0.0,0.0,-1.7278,-1.7278,-1.7323,-1.7279,-1.7357,0.0,0.0,0.0,0.0,0.0,0.0,0.0,0.0,0.0,0.0,0.0,0.0,0.0,0.0,0.0,0.0,0.0,0.0,0.0,0.0,-2.1955,-2.2029,-2.2478,-2.2402,-2.2478,-2.2927,-2.2927,-2.2927,-2.3001,-2.2927,-2.2777,-2.2628,-2.2703,-2.2553,-2.2176,-2.2101,-2.2025,-2.2025,-2.2025,-2.1959,-2.1807,-2.1807,-2.1959,-2.2292,-2.2922,-2.3265,-2.3481,0.0,0.0,0.0,0.0,0.0,0.0,0.0,0.0,0.0,0.0,0.0,0.0,0.0,0.0,0.0,0.0,0.0,0.0,-1.2413,-1.234,-1.2291,-1.2291,-1.2195,-1.2345,-1.2879,-1.3346,-1.3611,-1.3579,-1.3324,-1.3256,-1.3397,-1.3075,-1.29,-1.2881,-1.2881,-1.2881,-1.2881,-1.2337,-1.2395,-1.2881,-1.291,-1.2891,-1.2939,0.0,0.0,0.0,0.0,0.0,0.0,0.0,-1.6189,-1.5594,-1.6514,-1.6411,-1.6009,-1.6019,-1.6138,-1.6278,-1.6278,-1.6428,-1.6634,0.0,0.0,0.0,-1.7278,-1.7278,-1.7278,-1.7278,0.0,0.0,0.0,0.0,0.0,0.0,0.0,0.0,0.0,0.0,0.0,0.0,0.0,0.0,0.0,0.0,0.0,0.0,0.0,0.0,0.0,-2.1188,-2.1406,-2.209,-2.2101,-2.2327,-2.2703,-2.2703,-2.2777,-2.3001,-2.2777,-2.2628,-2.2402,-2.2628,-2.2402,-2.1807,-2.2025,-2.1959,-2.1807,-2.1807,-2.1807,-2.1807,-2.1807,-2.1807,-2.1921,-2.2842,-2.3184,-2.3308,0.0,0.0,0.0,0.0,0.0,0.0,0.0,0.0,0.0,0.0,0.0,0.0,0.0,0.0,0.0,0.0,0.0,0.0,-1.234,-1.2219,-1.2144,-1.2153,-1.249,-1.2728,-1.2913,-1.3257,-1.3387,-1.3318,-1.3263,-1.317,-1.3065,-1.3017,-1.2978,-1.2881,-1.2881,-1.2891,-1.291,-1.2735,-1.2666,-1.2657,-1.2803,-1.2891,-1.2939,0.0,0.0,0.0,0.0,0.0,0.0,0.0,0.0,0.0,-1.5807,-1.569,-1.5615,-1.6057,-1.614,-1.614,-1.6245,-1.6556,0.0,0.0,0.0,0.0,0.0,-1.7278,0.0,0.0,0.0,0.0,0.0,0.0,0.0,0.0,0.0,0.0,0.0,0.0,0.0,0.0,0.0,0.0,0.0,0.0,0.0,0.0,0.0,0.0,0.0,-2.1335,-2.1544,-2.209,-2.2252,-2.2402,-2.2703,-2.2852,-2.2852,-2.2777,-2.2703,-2.2628,-2.2402,-2.2327,-2.2101,-2.1807,-2.1883,-2.1883,-2.1807,-2.1655,-2.1655,-2.1807,-2.1655,-2.1655,-2.188,-2.248,-2.2708,-2.278,0.0,0.0,0.0,0.0,0.0,0.0,0.0,0.0,0.0,0.0,-1.3082,-1.2861,0.0,0.0,0.0,0.0,0.0,0.0,-1.2157,-1.213,-1.2042,-1.1894,-1.2527,-1.2979,-1.3102,-1.3201,-1.3256,-1.3188,-1.3208,-1.3074,-1.29,-1.2968,-1.2978,-1.2881,-1.2881,-1.2832,-1.2735,-1.2754,-1.2569,-1.2374,-1.2754,-1.292,-1.292,0.0,0.0,0.0,0.0,0.0,0.0,0.0,0.0,0.0,-1.5536,-1.5408,-1.5297,-1.5769,-1.5797,-1.578,-1.6129,0.0,0.0,0.0,0.0,0.0,0.0,0.0,0.0,0.0,0.0,0.0,0.0,0.0,0.0,0.0,0.0,0.0,0.0,0.0,0.0,0.0,0.0,0.0,0.0,0.0,0.0,0.0,0.0,0.0,0.0,-2.0862,-2.1072,-2.1534,-2.1544,-2.1787,-2.219,-2.2264,-2.2434,-2.2553,-2.2478,-2.2402,-2.2252,-2.2176,-2.1949,-2.1807,-2.1731,-2.1655,-2.1655,-2.1425,-2.1425,-2.1578,-2.1436,-2.1502,-2.1717,-2.2169,-2.2422,-2.2563,0.0,0.0,0.0,0.0,0.0,0.0,0.0,0.0,0.0,0.0,-1.3012,-1.2838,0.0,0.0,0.0,0.0,0.0,0.0,0.0,-1.2013,-1.1923,-1.1627,-1.2431,-1.3068,-1.3362,-1.321,-1.3113,-1.317,-1.317,-1.3094,-1.2881,-1.2881,-1.2929,-1.2929,-1.2929,-1.2764,-1.254,-1.251,-1.2344,-1.2209,-1.2665,-1.289,-1.291,-1.3142,0.0,0.0,0.0,0.0,0.0,0.0,0.0,0.0,-1.5463,-1.54,-1.5039,-1.5196,-1.5255,-1.5415,0.0,0.0,0.0,0.0,0.0,0.0,0.0,0.0,0.0,0.0,0.0,0.0,0.0,0.0,0.0,0.0,0.0,0.0,0.0,0.0,0.0,0.0,0.0,0.0,0.0,0.0,0.0,0.0,0.0,0.0,0.0,-1.9975,-2.0254,-2.0694,-2.0492,-2.0699,-2.1335,-2.1335,-2.1629,-2.2275,-2.2092,-2.2048,-2.2038,-2.209,-2.1949,-2.1807,-2.1578,-2.1502,-2.1502,-2.1282,-2.1205,-2.1205,-2.1205,-2.1282,-2.1563,-2.1971,-2.2282,-2.249,0.0,0.0,0.0,0.0,0.0,0.0,0.0,0.0,0.0,0.0,0.0,0.0,0.0,0.0,0.0,0.0,0.0,0.0,0.0,-1.1804,-1.191,-1.2556,-1.2795,-1.2991,-1.3162,-1.3123,-1.3075,-1.2968,-1.2968,-1.292,-1.2881,-1.2881,-1.2978,-1.3027,-1.2929,-1.2881,-1.2822,-1.2598,-1.255,-1.2559,-1.2559,-1.2725,-1.2939,-1.3258,-1.3951,0.0,0.0,0.0,0.0,0.0,0.0,0.0,-1.4504,-1.4566,-1.4584,-1.4584,-1.4735,-1.5029,0.0,0.0,0.0,0.0,0.0,0.0,0.0,0.0,0.0,0.0,0.0,0.0,0.0,0.0,0.0,0.0,0.0,0.0,0.0,0.0,0.0,0.0,0.0,0.0,0.0,0.0,0.0,0.0,0.0,0.0,-1.9954,-1.9975,-2.0254,-2.0694,-2.0634,-2.0686,-2.0852,-2.0994,-2.1047,0.0,-2.1376,-2.1481,-2.1343,-2.1717,-2.1807,-2.1807,-2.1578,-2.1502,-2.1512,-2.1138,-2.1061,-2.1205,-2.1061,-2.1061,-2.1292,-2.1547,-2.1655,-2.1742,0.0,0.0,0.0,0.0,0.0,0.0,0.0,0.0,0.0,0.0,0.0,0.0,0.0,0.0,0.0,0.0,0.0,0.0,0.0,0.0,-1.1407,-1.2415,-1.2597,-1.2819,-1.3075,-1.3036,-1.2978,-1.2978,-1.2929,-1.2929,-1.2978,-1.2978,-1.3027,-1.3085,-1.3036,-1.2881,-1.2676,-1.2618,-1.2569,-1.2529,-1.2559,-1.2666,-1.2822,-1.32,-1.3922,-1.4795,-1.4955,0.0,0.0,0.0,0.0,0.0,0.0,0.0,-1.4523,-1.4605,-1.4743,-1.5013,0.0,0.0,0.0,0.0,0.0,0.0,0.0,0.0,0.0,0.0,0.0,0.0,0.0,0.0,0.0,0.0,0.0,0.0,0.0,0.0,0.0,0.0,0.0,0.0,0.0,0.0,0.0,0.0,0.0,-1.9389,-1.963,-1.964,-1.9745,-2.0044,-1.9986,-2.0021,-2.024,-2.038,-2.0495,-2.0563,-2.0751,-2.0844,-2.0849,-2.1525,-2.1807,-2.1807,-2.1512,-2.1359,-2.1359,-2.0896,-2.0819,-2.0886,-2.0809,-2.0896,-2.1061,-2.1205,-2.1359,-2.1502,0.0,0.0,0.0,0.0,0.0,0.0,0.0,0.0,0.0,0.0,0.0,0.0,0.0,0.0,0.0,0.0,0.0,0.0,0.0,0.0,0.0,-1.1917,-1.2282,-1.2661,-1.3075,-1.2978,-1.2929,-1.3085,-1.2929,-1.2978,-1.3123,-1.3133,-1.3133,-1.3123,-1.3133,-1.2881,-1.2578,-1.2686,-1.2578,-1.2372,-1.2627,-1.2725,-1.2774,-1.3084,-1.3781,-1.4609,-1.4882,-1.5101,-1.5332,-1.5363,0.0,0.0,0.0,0.0,-1.4616,-1.4777,-1.4925,-1.515,0.0,0.0,0.0,0.0,0.0,0.0,0.0,0.0,0.0,0.0,0.0,0.0,0.0,0.0,0.0,0.0,0.0,0.0,0.0,0.0,0.0,0.0,0.0,0.0,0.0,0.0,0.0,0.0,0.0,-1.9285,-1.9285,-1.9285,-1.9285,-1.9285,-1.9142,-1.9251,-1.9565,-1.9717,-1.9875,-2.0165,-2.0206,-2.0409,-2.0646,-2.1374,-2.1731,-2.1655,-2.1359,-2.1205,-2.1128,-2.0731,-2.0566,-2.0566,-2.0566,-2.0731,-2.0829,-2.0906,-2.1138,-2.1359,0.0,0.0,0.0,0.0,0.0,0.0,0.0,0.0,0.0,0.0,-1.2876,0.0,0.0,0.0,0.0,0.0,0.0,0.0,0.0,0.0,0.0,-1.1723,-1.2457,-1.2871,-1.2929,-1.2929,-1.2929,-1.2929,-1.2929,-1.3017,-1.318,-1.3113,-1.3113,-1.317,-1.3113,-1.3036,-1.2832,-1.2881,-1.2783,-1.2676,-1.2832,-1.2881,-1.2881,-1.3027,-1.3751,-1.4609,-1.4777,-1.5256,-1.5762,-1.5468,-1.5124,0.0,0.0,0.0,0.0,-1.4616,-1.4926,-1.5381,0.0,0.0,0.0,0.0,0.0,0.0,0.0,0.0,0.0,0.0,0.0,0.0,0.0,0.0,0.0,0.0,0.0,0.0,0.0,0.0,0.0,0.0,0.0,0.0,0.0,0.0,0.0,0.0,-1.9142,-1.9208,-1.9274,-1.9208,-1.9142,-1.9142,-1.9142,-1.8972,-1.8708,-1.9229,-1.9453,-1.9384,-2.0088,-2.0555,-2.0764,-2.1156,-2.1282,-2.1282,-2.1205,-2.1138,-2.0906,-2.0722,-2.0566,-2.0566,-2.0566,-2.0644,-2.0654,-2.0829,-2.0906,-2.0984,0.0,0.0,0.0,0.0,0.0,0.0,0.0,0.0,0.0,0.0,0.0,-1.2651,0.0,0.0,0.0,0.0,0.0,0.0,0.0,0.0,0.0,-1.1843,-1.2444,-1.2832,-1.2881,-1.2881,-1.2881,-1.2881,-1.2881,-1.2968,-1.3152,-1.3123,-1.3162,-1.3218,-1.3113,-1.2978,-1.2774,-1.2881,-1.2832,-1.2725,-1.2832,-1.2881,-1.2929,-1.3104,-1.3691,-1.4523,-1.4787,-1.5287,-1.5704,-1.5678,-1.5499,-1.5264,-1.5208,0.0,0.0,0.0,0.0,0.0,0.0,0.0,0.0,0.0,0.0,0.0,0.0,0.0,0.0,0.0,0.0,0.0,0.0,0.0,0.0,0.0,0.0,0.0,0.0,0.0,0.0,0.0,0.0,0.0,0.0,0.0,0.0,0.0,-1.9075,-1.9142,-1.9208,-1.9008,-1.8942,-1.8942,-1.8808,-1.8674,-1.8482,-1.8809,-1.8841,-1.8714,-1.978,-2.0048,-1.9601,-2.0546,-2.1051,-2.1205,-2.1061,-2.0984,-2.0906,-2.0654,-2.0566,-2.0566,-2.0566,-2.0566,-2.0644,-2.0731,-2.0819,-2.0906,0.0,0.0,0.0,0.0,0.0,0.0,0.0,0.0,0.0,0.0,0.0,0.0,0.0,0.0,0.0,0.0,0.0,0.0,0.0,0.0,0.0,-1.1976,-1.2455,-1.2783,-1.2881,-1.2881,-1.2881,-1.2881,-1.2881,-1.2929,-1.3036,-1.2978,-1.3007,-1.3084,-1.3065,-1.2988,-1.2783,-1.2881,-1.2832,-1.2783,-1.2881,-1.2929,-1.2988,-1.3213,-1.3841,-1.4543,-1.4973,-1.5409,-1.5825,-1.5896,-1.5785,-1.5678,-1.5715,0.0,0.0,0.0,0.0,0.0,0.0,0.0,0.0,0.0,0.0,0.0,0.0,0.0,0.0,0.0,0.0,0.0,0.0,0.0,0.0,0.0,0.0,0.0,0.0,0.0,0.0,0.0,0.0,0.0,0.0,0.0,0.0,0.0,-1.9075,-1.9075,-1.9075,-1.8942,-1.8808,-1.8741,-1.8549,-1.8482,-1.8347,-1.8456,-1.8506,-1.8448,-1.9476,-1.959,-1.8919,-2.0082,-2.0787,-2.1051,-2.0974,-2.0906,-2.0819,-2.0654,-2.0566,-2.0566,-2.0566,-2.0566,-2.0566,-2.0566,-2.0654,-2.0819,0.0,0.0,0.0,0.0,0.0,0.0,0.0,0.0,0.0,0.0,0.0,0.0,-1.214,-1.1088,-1.0444,-1.0564,-1.0293,-1.0272,-1.0599,-1.1353,-1.1827,-1.1985,-1.2455,0.0,-1.2881,-1.2881,-1.2881,-1.2881,-1.2774,-1.2783,-1.2881,-1.2627,-1.2578,-1.2725,-1.2978,-1.3027,-1.2881,-1.2881,-1.2881,-1.2881,-1.2881,-1.2978,-1.3125,-1.3531,-1.4112,-1.4838,-1.5321,-1.5838,-1.6337,-1.6011,-1.5899,0.0,0.0,0.0,0.0,0.0,0.0,0.0,0.0,0.0,0.0,0.0,0.0,0.0,0.0,0.0,0.0,0.0,0.0,0.0,0.0,0.0,0.0,0.0,0.0,0.0,0.0,0.0,0.0,0.0,0.0,0.0,0.0,0.0,0.0,0.0,-1.9075,-1.9075,-1.9075,-1.8942,-1.8674,-1.8549,-1.8482,-1.8347,-1.8008,-1.8408,-1.8674,-1.8874,-1.9164,-1.9452,-1.9588,-1.9821,-2.0176,-2.0644,-2.0819,-2.0819,-2.0644,-2.0566,-2.0566,-2.0566,-2.0566,-2.0566,-2.0566,-2.0566,-2.0644,-2.0644,0.0,0.0,0.0,0.0,0.0,0.0,0.0,0.0,0.0,0.0,0.0,0.0,0.0,-1.0538,-1.0329,-1.0418,-1.0196,-1.0255,-1.0826,-1.11,-1.15,-1.2176,-1.2453,-1.2627,-1.2783,-1.2881,-1.2881,-1.2881,-1.2783,-1.2725,-1.2783,-1.2578,-1.2529,-1.2578,-1.2783,-1.2832,-1.2783,-1.2881,-1.2881,-1.2881,-1.2881,-1.3096,-1.3401,-1.3609,-1.4156,0.0,0.0,0.0,0.0,0.0,0.0,0.0,0.0,0.0,0.0,0.0,0.0,0.0,0.0,0.0,0.0,0.0,0.0,0.0,0.0,0.0,0.0,0.0,0.0,0.0,0.0,0.0,0.0,0.0,0.0,0.0,0.0,0.0,0.0,0.0,0.0,0.0,0.0,0.0,0.0,0.0,0.0,-1.9008,-1.8741,-1.8684,-1.8539,-1.8405,-1.8279,-1.8144,-1.8008,-1.8428,-1.8506,-1.8311,-1.9027,-1.9141,-1.8978,-1.96,-2.0,-2.0166,-2.0526,-2.0654,-2.0566,-2.0566,-2.0566,-2.0566,-2.0566,-2.0566,-2.0566,-2.0566,-2.0566,-2.0644,0.0,0.0,0.0,0.0,0.0,0.0,0.0,0.0,0.0,-1.2427,0.0,0.0,0.0,0.0,-1.0195,-1.0137,-1.0267,-1.0517,-1.0927,-1.1168,-1.1602,-1.2255,-1.2382,-1.248,-1.2627,-1.2783,-1.2832,-1.2832,-1.2735,-1.2676,-1.2627,-1.248,-1.2421,-1.2431,-1.2578,-1.2676,-1.2735,-1.2832,0.0,-1.2891,0.0,0.0,-1.3596,0.0,0.0,0.0,0.0,0.0,0.0,0.0,0.0,0.0,0.0,0.0,0.0,0.0,0.0,0.0,0.0,0.0,0.0,0.0,0.0,0.0,0.0,0.0,0.0,0.0,0.0,0.0,0.0,0.0,0.0,0.0,0.0,0.0,0.0,0.0,0.0,0.0,0.0,0.0,0.0,0.0,0.0,0.0,0.0,0.0,-1.8549,-1.8482,-1.8337,-1.8202,-1.7998,-1.793,-1.793,-1.8133,-1.8133,-1.794,-1.8721,-1.8916,-1.8592,-1.9521,-1.9912,-1.9941,-2.0381,-2.0566,-2.0566,-2.0566,-2.0566,-2.0566,-2.0566,-2.0566,-2.0566,-2.0566,-2.0566,-2.0644,0.0,0.0,0.0,0.0,0.0,0.0,0.0,0.0,-1.1486,-1.1994,0.0,0.0,0.0,0.0,0.0,-0.9823,-1.0526,-1.0945,-1.0901,-1.1656,-1.2166,-1.2274,-1.2274,-1.2382,-1.248,-1.2627,-1.2676,-1.2676,-1.2676,-1.2627,-1.248,-1.2382,-1.2274,-1.2332,-1.2431,-1.2578,-1.2735,0.0,-1.2881,-1.291,0.0,-1.3557,-1.3777,0.0,0.0,0.0,-1.5706,-1.5961,0.0,0.0,0.0,0.0,0.0,0.0,0.0,0.0,0.0,0.0,0.0,0.0,0.0,0.0,0.0,0.0,0.0,0.0,0.0,0.0,0.0,0.0,0.0,0.0,0.0,0.0,0.0,0.0,0.0,0.0,0.0,0.0,0.0,0.0,0.0,0.0,0.0,0.0,-1.8808,-1.8674,-1.8482,-1.8347,-1.8212,-1.8008,-1.7784,-1.7706,-1.7706,-1.7706,-1.7706,-1.7706,-1.8269,-1.8553,-1.8592,-1.9492,-1.9883,-1.9922,-2.0342,-2.0527,-2.0527,-2.0557,-2.0557,-2.0547,-2.0557,-2.0557,-2.0547,-2.0557,-2.0566,-2.0566,0.0,0.0,0.0,0.0,0.0,0.0,-1.1614,-1.1535,-1.1383,0.0,0.0,0.0,-1.0186,-1.0021,-0.9862,-0.9753,-1.0224,-1.0674,-1.0883,-1.1398,-1.1822,-1.2166,-1.2234,-1.2323,-1.2323,-1.2578,-1.2627,-1.2578,-1.2578,-1.248,-1.2323,-1.2323,-1.2274,-1.2323,-1.2529,-1.2686,-1.2735,-1.2832,0.0,-1.2891,-1.3008,-1.3418,0.0,0.0,0.0,0.0,0.0,-1.5662,-1.5788,0.0,-1.5951,-1.6114,0.0,0.0,0.0,0.0,0.0,0.0,-1.5931,0.0,0.0,0.0,0.0,0.0,0.0,0.0,0.0,0.0,0.0,0.0,0.0,0.0,0.0,0.0,0.0,0.0,0.0,0.0,0.0,0.0,0.0,0.0,0.0,0.0,0.0,0.0,-1.8808,-1.8674,-1.8337,-1.8212,-1.8076,-1.8008,-1.7784,-1.7706,-1.7706,-1.7588,-1.7529,-1.7529,-1.7831,-1.8132,-1.846,-1.8825,-1.916,-1.9473,-1.959,-1.9639,-1.9687,-2.0312,-2.0381,-2.0127,-2.0439,-2.0371,-2.0127,-2.0449,-2.0566,-2.0566,0.0,0.0,0.0,0.0,0.0,-1.1674,-1.1405,-1.1286,-1.1113,0.0,0.0,0.0,-0.9845,-0.9677,-0.9698,-0.9899,-1.0297,-1.0673,-1.1049,-1.1508,-1.1838,-1.2067,-1.2175,-1.2224,-1.2224,-1.248,-1.2529,-1.2431,-1.2578,-1.2578,-1.2382,-1.2431,-1.248,-1.248,-1.2627,-1.2676,-1.2735,0.0,0.0,0.0,-1.3126,0.0,0.0,-1.4336,-1.4824,0.0,0.0,0.0,-1.5672,-1.5672,-1.5846,0.0,0.0,0.0,0.0,0.0,0.0,-1.5395,-1.5338,-1.5533,0.0,0.0,0.0,0.0,-1.458,-1.4828,0.0,0.0,0.0,0.0,0.0,0.0,0.0,0.0,0.0,0.0,0.0,0.0,0.0,0.0,0.0,0.0,0.0,-1.8402,-1.872,-1.8522,-1.8639,-1.8472,-1.8056,-1.793,-1.7872,-1.7803,-1.7588,-1.751,-1.751,-1.7382,-1.7392,-1.7392,-1.777,-1.8033,-1.812,-1.8679,-1.8945,-1.9023,-1.9209,-1.9287,-1.9326,-1.9824,-1.9883,-1.9697,-2.0127,-2.0029,-1.9727,-2.0342,-2.0449,-2.0245,0.0,0.0,0.0,-1.173,-1.176,-1.1669,-1.1282,-1.1044,-1.0756,0.0,-1.0205,-0.9845,-0.9103,-0.9107,-0.9447,-1.011,-1.047,-1.0904,-1.1273,-1.1807,-1.2076,-1.2076,-1.2076,-1.2076,-1.2076,-1.2382,-1.2421,-1.2274,-1.2686,-1.2735,-1.248,-1.2627,-1.2676,-1.2676,-1.2735,0.0,-1.2735,0.0,0.0,-1.3115,-1.3341,-1.3772,0.0,0.0,-1.5,0.0,-1.5352,-1.5488,-1.5614,-1.5624,-1.574,0.0,0.0,0.0,0.0,0.0,-1.491,-1.4712,-1.4627,-1.4945,-1.5129,0.0,0.0,0.0,-1.4029,-1.4111,-1.4356,0.0,0.0,0.0,0.0,0.0,0.0,0.0,0.0,0.0,0.0,0.0,0.0,0.0,0.0,0.0,-1.6987,-1.7812,-1.8245,-1.8053,-1.8217,-1.822,-1.7706,-1.7706,-1.7647,-1.747,-1.7314,-1.7166,-1.7166,-1.7166,-1.7166,-1.7245,-1.7919,-1.811,-1.7735,-1.8718,-1.8936,-1.8584,-1.8975,-1.915,-1.915,-1.915,-1.917,-1.9258,-1.9678,-1.959,-1.9316,-2.0127,-2.0062,-1.9678,0.0,0.0,-1.1827,-1.179,-1.1674,-1.1545,-1.1448,-1.1124,-1.0777,-1.035,-0.969,-0.9191,-0.9024,-0.9124,-0.9415,-0.9904,-1.0409,-1.0904,-1.1415,-1.1856,-1.2076,-1.2076,-1.2076,-1.2076,-1.2076,-1.2382,-1.2421,-1.2274,-1.2578,-1.2676,-1.248,-1.2627,-1.2627,-1.2529,-1.2783,-1.2783,0.0,0.0,0.0,-1.3095,-1.3018,0.0,-1.4141,-1.4111,-1.4588,-1.5205,-1.5147,-1.5088,-1.5147,0.0,-1.5215,-1.5205,0.0,0.0,0.0,0.0,0.0,0.0,0.0,0.0,0.0,0.0,0.0,0.0,-1.3659,-1.3739,-1.4009,0.0,0.0,0.0,0.0,0.0,0.0,0.0,0.0,0.0,0.0,0.0,0.0,0.0,0.0,0.0,-1.6857,-1.7349,-1.7593,-1.7468,-1.7616,-1.776,-1.7687,-1.7706,-1.7647,-1.747,-1.7314,-1.7166,-1.7166,-1.7038,-1.7038,-1.7166,-1.7546,-1.7674,-1.7716,-1.8105,-1.8213,-1.8135,-1.8223,-1.8262,-1.8262,-1.8262,-1.8457,-1.8809,-1.9238,-1.9141,-1.8757,-1.9136,-1.9408,-1.9639,0.0,0.0,-1.1667,-1.1641,-1.1561,-1.1508,-1.1481,-1.1176,-1.075,-1.0371,-0.9755,-0.9253,-0.9027,-0.9401,-0.9749,-0.9961,-1.0615,-1.1165,-1.1619,-1.1966,-1.2175,-1.2076,-1.2076,-1.2076,-1.2076,-1.2382,-1.2421,-1.2274,-1.2627,-1.2725,-1.2578,-1.2735,-1.2783,-1.2735,-1.2832,-1.2881,0.0,0.0,-1.3047,-1.3293,-1.3143,0.0,-1.4107,-1.4103,-1.4535,-1.5088,-1.5029,-1.497,-1.497,-1.4961,-1.497,0.0,0.0,-1.4951,-1.4932,0.0,-1.46,-1.4448,0.0,0.0,0.0,-1.3723,0.0,0.0,0.0,-1.3729,-1.3994,0.0,0.0,0.0,0.0,0.0,0.0,0.0,0.0,0.0,0.0,0.0,0.0,0.0,0.0,0.0,-1.6353,-1.6688,-1.6918,-1.7014,-1.7313,-1.7385,-1.7187,-1.7328,-1.7373,-1.7194,-1.7107,-1.7038,-1.7038,-1.7038,-1.7107,-1.7166,-1.7442,-1.7647,-1.7706,-1.793,-1.8008,-1.8008,-1.8008,-1.8008,-1.8008,-1.8008,-1.8135,-1.8359,-1.8789,-1.8701,-1.8398,-1.8909,-1.9139,-1.9201,0.0,0.0,-1.1389,-1.1384,-1.1378,-1.1362,-1.1286,-1.1002,-1.0654,-1.0244,-0.9811,-0.9511,-0.9313,-0.9747,-1.0145,-1.026,-1.0915,-1.1463,-1.1927,-1.2135,-1.2224,-1.2116,-1.2126,-1.2076,-1.2076,-1.2382,-1.2431,-1.2323,-1.2725,-1.2832,-1.2735,-1.2832,-1.2881,-1.2881,-1.2881,-1.2881,0.0,0.0,0.0,-1.3516,0.0,-1.3719,-1.4189,-1.4269,-1.4544,-1.4911,-1.4852,-1.4862,-1.4852,-1.4666,0.0,-1.4793,-1.4538,-1.4666,0.0,0.0,0.0,0.0,0.0,0.0,0.0,0.0,0.0,-1.3251,0.0,0.0,0.0,0.0,0.0,0.0,0.0,0.0,0.0,0.0,0.0,0.0,0.0,0.0,0.0,0.0,0.0,0.0,0.0,-1.5871,-1.6123,-1.6562,-1.6938,-1.6958,-1.6561,-1.6952,-1.7107,-1.6908,-1.6908,-1.6908,-1.6908,-1.7107,-1.7235,-1.7245,-1.7579,-1.7706,-1.7784,-1.793,-1.8008,-1.8008,-1.8008,-1.8008,-1.8008,-1.794,-1.794,-1.7969,-1.8309,-1.8311,-1.8096,-1.8718,-1.8812,-1.8654,-1.1485,-1.1196,0.0,-1.0966,-1.0971,-1.0857,-1.05,-1.0407,-1.0225,-0.9804,-0.9372,-0.9403,-1.0224,-1.0119,-1.025,-1.093,-1.1057,0.0,-1.237,0.0,-1.2116,-1.2089,-1.2116,-1.2076,-1.2076,-1.2382,-1.248,-1.248,-1.2783,-1.2881,-1.2881,-1.2881,-1.2832,-1.2735,-1.2832,0.0,0.0,0.0,-1.3125,0.0,-1.3609,-1.401,0.0,-1.4373,-1.4419,-1.4538,-1.4437,-1.4455,-1.4515,0.0,-1.4387,-1.4387,0.0,-1.4318,-1.4378,0.0,0.0,0.0,0.0,0.0,0.0,0.0,-1.3565,0.0,0.0,0.0,0.0,0.0,0.0,0.0,0.0,0.0,0.0,0.0,0.0,0.0,0.0,0.0,0.0,0.0,0.0,0.0,0.0,-1.4881,-1.5008,-1.5676,-1.5987,-1.6188,-1.6333,-1.6875,-1.7107,-1.6908,-1.6908,-1.6908,-1.6908,-1.7107,-1.7314,-1.747,-1.7647,-1.7784,-1.794,-1.8008,-1.8008,-1.8008,-1.8008,-1.8008,-1.8008,-1.7784,-1.7706,-1.7784,-1.7988,-1.8047,-1.7949,-1.7781,-1.791,-1.8209,-1.1185,-1.1111,0.0,0.0,-1.0809,-1.0715,-1.0659,-1.0264,-1.0222,-1.1002,-1.0118,-0.9774,0.0,0.0,0.0,0.0,0.0,-1.1862,0.0,0.0,-1.2478,-1.2215,-1.2224,-1.2274,-1.2323,-1.2431,-1.248,-1.248,-1.2676,-1.2783,-1.2783,-1.2881,-1.2881,-1.2832,-1.2881,0.0,-1.2949,0.0,-1.3486,0.0,0.0,0.0,0.0,-1.4415,-1.4282,-1.4181,-1.4139,-1.4139,-1.4198,0.0,-1.4079,0.0,0.0,0.0,0.0,0.0,0.0,0.0,0.0,0.0,0.0,0.0,0.0,0.0,-1.411,0.0,-1.4203,0.0,0.0,0.0,0.0,0.0,0.0,0.0,0.0,0.0,0.0,0.0,0.0,0.0,0.0,0.0,0.0,0.0,0.0,0.0,-1.512,-1.5524,-1.5853,-1.6331,-1.6661,-1.6899,-1.6908,-1.6968,-1.7097,-1.7245,-1.7461,-1.7657,-1.7794,-1.794,-1.8008,-1.8008,-1.8008,-1.8008,-1.8008,-1.8008,-1.8008,-1.7784,-1.7706,-1.7706,-1.7735,-1.7735,-1.7666,-1.7657,-1.7716,-1.7971,-1.0929,0.0,0.0,0.0,0.0,-1.0601,-1.0594,-1.0098,-1.0207,-1.1683,0.0,0.0,-1.1431,-1.1921,0.0,0.0,-1.1581,-1.2026,0.0,0.0,-1.2537,-1.2255,-1.2332,0.0,0.0,0.0,-1.2529,-1.2529,-1.2627,-1.2725,-1.2783,-1.2832,-1.2881,-1.2881,0.0,-1.2881,-1.3008,0.0,0.0,-1.4009,-1.4388,-1.4525,-1.4478,-1.4318,-1.4139,-1.401,-1.395,-1.395,-1.401,-1.383,-1.389,0.0,-1.3571,0.0,0.0,0.0,0.0,0.0,-1.4057,0.0,0.0,0.0,0.0,0.0,0.0,0.0,0.0,0.0,0.0,0.0,0.0,0.0,0.0,0.0,0.0,0.0,0.0,0.0,0.0,0.0,0.0,0.0,0.0,0.0,0.0,-1.413,-1.4505,-1.4845,-1.5122,-1.5764,-1.6315,-1.6665,-1.6844,-1.6978,-1.7166,-1.7392,-1.7598,-1.7706,-1.793,-1.8008,-1.8008,-1.8008,-1.8008,-1.8008,-1.8008,-1.8008,-1.8008,-1.7725,-1.7647,-1.7647,-1.7461,-1.7392,-1.7323,-1.751,-1.7562,-1.7651,-1.0761,-1.0933,0.0,0.0,0.0,0.0,0.0,0.0,0.0,0.0,0.0,0.0,0.0,0.0,0.0,0.0,0.0,-1.1814,-1.2076,0.0,-1.2107,-1.2101,-1.244,-1.2694,0.0,0.0,0.0,-1.2676,-1.2676,-1.2783,-1.2881,-1.2881,-1.2881,-1.2881,-1.2783,-1.2735,-1.2754,-1.3118,-1.348,-1.373,-1.4165,-1.4179,-1.401,0.0,-1.401,-1.401,-1.383,0.0,0.0,-1.383,-1.383,0.0,0.0,0.0,0.0,0.0,0.0,0.0,0.0,0.0,0.0,-1.4638,0.0,0.0,0.0,0.0,-1.4902,0.0,0.0,0.0,0.0,0.0,-1.5029,-1.5029,-1.5029,0.0,0.0,0.0,0.0,0.0,0.0,0.0,0.0,0.0,0.0,-1.383,-1.4206,-1.4371,-1.4173,-1.5423,-1.612,-1.6129,-1.6638,-1.6978,-1.7166,-1.7392,-1.7598,-1.7706,-1.793,-1.8008,-1.8008,-1.8008,-1.8008,-1.8008,-1.8008,-1.8008,-1.794,-1.7666,-1.7539,-1.747,-1.7314,-1.7107,-1.6968,-1.7166,-1.7245,-1.725,0.0,0.0,0.0,0.0,0.0,0.0,0.0,-1.0196,0.0,0.0,0.0,0.0,0.0,0.0,-1.2355,0.0,0.0,-1.1986,-1.2104,-1.2104,0.0,0.0,0.0,-1.2851,0.0,0.0,0.0,0.0,0.0,-1.2559,-1.2783,-1.2783,-1.2832,-1.2881,0.0,-1.2676,0.0,0.0,0.0,0.0,0.0,-1.42,-1.401,0.0,0.0,-1.364,-1.364,-1.3631,0.0,-1.364,-1.358,-1.3631,-1.37,-1.3821,-1.401,-1.4139,-1.4327,0.0,0.0,0.0,-1.4606,-1.4556,0.0,0.0,0.0,0.0,0.0,0.0,0.0,0.0,0.0,0.0,-1.5098,-1.5029,-1.497,-1.497,0.0,0.0,0.0,0.0,0.0,0.0,0.0,0.0,0.0,-1.3476,-1.3473,-1.365,-1.4084,-1.4533,-1.5045,-1.5695,-1.6169,-1.6582,-1.6996,-1.7328,-1.7598,-1.793,-1.794,-1.8008,-1.8008,-1.8008,-1.8008,-1.8008,-1.8008,-1.794,-1.7784,-1.7598,-1.7392,-1.7245,-1.7107,-1.6968,-1.6899,-1.7107,-1.7107,-1.7024,-1.0812,0.0,0.0,0.0,0.0,0.0,0.0,0.0,0.0,0.0,-1.2207,0.0,-1.2452,0.0,-1.2379,0.0,-1.2162,-1.2036,-1.1841,-1.1986,0.0,-1.212,-1.2431,0.0,0.0,0.0,0.0,0.0,0.0,-1.2393,-1.255,-1.2618,-1.2676,-1.2725,0.0,-1.2578,-1.2577,0.0,-1.3549,0.0,0.0,-1.4198,0.0,0.0,-1.3761,-1.3511,0.0,-1.3511,-1.3511,-1.3511,-1.3511,-1.3511,-1.364,-1.3821,-1.395,-1.4139,-1.4327,-1.4455,-1.4515,-1.4556,0.0,-1.4506,-1.4556,0.0,-1.4606,0.0,0.0,0.0,0.0,0.0,0.0,0.0,-1.497,-1.4852,-1.4803,-1.4734,0.0,-1.4478,0.0,0.0,0.0,0.0,0.0,0.0,-1.3294,-1.318,-1.3111,-1.3272,0.0,0.0,-1.4575,-1.5141,-1.5816,-1.6299,-1.6627,-1.6949,-1.736,-1.7793,-1.7793,-1.7871,-1.8008,-1.8008,-1.8008,-1.8008,-1.794,-1.7784,-1.7706,-1.7451,-1.7314,-1.7166,-1.6968,-1.6908,-1.6908,-1.7038,-1.7038,-1.6945,0.0,0.0,0.0,0.0,-1.0137,0.0,0.0,0.0,-1.0932,0.0,-1.1948,-1.2073,-1.2638,-1.248,-1.2342,-1.2469,-1.2243,0.0,-1.1379,-1.1801,0.0,0.0,-1.212,-1.2353,-1.2881,0.0,0.0,0.0,0.0,0.0,-1.2297,-1.2403,0.0,0.0,-1.2382,0.0,-1.233,-1.314,-1.3395,-1.3332,-1.401,-1.4148,-1.401,-1.383,-1.37,-1.3511,-1.3511,-1.3511,-1.3511,-1.3511,-1.3511,-1.3511,-1.3511,-1.364,-1.383,-1.395,-1.4139,-1.4327,-1.4446,-1.4455,-1.4455,-1.4515,-1.4506,0.0,0.0,0.0,-1.4506,0.0,0.0,0.0,0.0,0.0,0.0,-1.4506,-1.4396,-1.4207,-1.401,0.0,0.0,0.0,0.0,0.0,0.0,-1.3511,-1.3338,-1.305,-1.318,0.0,0.0,0.0,-1.4551,-1.4551,-1.5586,-1.6128,-1.6163,-1.6329,-1.6761,-1.7383,-1.7402,-1.7627,-1.8008,-1.8008,-1.8008,-1.8008,-1.7784,-1.7706,-1.7638,-1.7373,-1.7166,-1.7166,-1.6968,-1.6908,-1.6908,-1.6908,-1.6908,-1.6908,-1.0273,-1.0088,-0.998,0.0,-1.0019,-1.0122,0.0,0.0,0.0,0.0,-1.1752,-1.1808,-1.2335,-1.245,-1.24,-1.2243,-1.2122,0.0,0.0,0.0,0.0,-1.2683,-1.2311,-1.2342,-1.289,-1.291,0.0,-1.29,0.0,0.0,-1.2276,0.0,0.0,0.0,0.0,0.0,-1.2162,-1.2556,-1.3005,-1.3414,-1.3874,-1.401,0.0,0.0,-1.3511,-1.3511,-1.3511,-1.3511,-1.3511,-1.3511,-1.3511,-1.3511,-1.37,-1.3761,-1.383,-1.4139,-1.4139,-1.4139,-1.4327,-1.4258,-1.4139,-1.4327,-1.4327,-1.4387,0.0,0.0,0.0,0.0,0.0,0.0,0.0,0.0,0.0,-1.4506,-1.4396,-1.4207,0.0,0.0,0.0,0.0,0.0,0.0,-1.3511,-1.3407,-1.3302,-1.3241,-1.3119,0.0,0.0,0.0,0.0,-1.397,-1.4551,-1.5007,-1.5374,-1.6169,-1.6854,-1.7419,-1.7686,-1.7968,-1.8202,-1.8076,-1.8008,-1.8008,-1.7784,-1.7647,-1.7529,-1.7314,-1.7107,-1.6968,-1.6908,-1.6908,-1.6908,-1.6908,-1.6908,-1.6908,-1.0118,0.0,0.0,-0.9902,0.0,0.0,-1.0743,0.0,0.0,-1.2224,-1.2072,0.0,-1.2353,-1.2342,-1.2243,-1.2126,-1.2104,0.0,-1.1783,0.0,0.0,-1.2556,-1.2252,-1.2234,-1.2539,-1.2539,0.0,-1.2539,0.0,0.0,-1.2187,0.0,0.0,0.0,0.0,-1.2126,0.0,-1.2534,-1.3022,-1.3433,-1.385,0.0,0.0,-1.3571,-1.3511,-1.3511,-1.3511,-1.3511,-1.3511,-1.3511,-1.3511,-1.3511,-1.364,-1.37,-1.37,-1.4019,-1.401,-1.395,-1.4139,-1.4079,-1.401,-1.4139,-1.4207,-1.4327,-1.4497,-1.4547,-1.4606,0.0,-1.4725,-1.4793,0.0,0.0,0.0,0.0,0.0,0.0,0.0,0.0,0.0,0.0,0.0,0.0,-1.3511,-1.3398,-1.3354,-1.3302,0.0,0.0,0.0,0.0,0.0,-1.3769,-1.4292,-1.4644,-1.4948,-1.5785,-1.6423,-1.6914,-1.7366,-1.7737,-1.7982,-1.7988,-1.794,-1.7862,-1.7657,-1.752,-1.7323,-1.7176,-1.6968,-1.6908,-1.6908,-1.6908,-1.6908,-1.6908,-1.6908,-1.6908,0.0,0.0,0.0,0.0,0.0,0.0,0.0,-1.1271,0.0,-1.2715,0.0,-1.2218,-1.2421,-1.2224,-1.2076,-1.2076,0.0,-1.1891,-1.1446,-1.1414,-1.1598,-1.2089,-1.2116,-1.2116,-1.2218,-1.2159,0.0,0.0,0.0,0.0,0.0,0.0,0.0,0.0,0.0,0.0,0.0,-1.2645,-1.3182,-1.3385,-1.3791,-1.389,-1.3761,-1.3571,-1.3511,-1.3511,-1.3511,-1.3511,-1.3511,-1.3511,-1.3511,-1.3511,-1.3511,-1.3511,-1.3511,-1.3761,-1.3769,-1.3769,-1.395,-1.395,-1.401,-1.401,-1.4139,-1.4267,-1.4327,-1.4396,-1.4515,-1.4515,-1.4616,-1.4666,0.0,0.0,0.0,0.0,0.0,0.0,0.0,0.0,0.0,0.0,0.0,0.0,0.0,-1.3511,-1.3459,0.0,0.0,0.0,0.0,0.0,0.0,-1.383,-1.4359,-1.4656,-1.4715,0.0,-1.5891,-1.6317,-1.6763,-1.7169,-1.7546,-1.7792,-1.7775,-1.7629,-1.7579,-1.7392,-1.7166,-1.6968,-1.6908,-1.6908,-1.6908,-1.6908,-1.6908,-1.6908,-1.6908,-1.6899,0.0,0.0,0.0,0.0,0.0,-1.0778,-1.1233,-1.0884,-1.1048,-1.2368,-1.1937,-1.1661,-1.2138,-1.2126,-1.2076,-1.2076,-1.2094,0.0,0.0,0.0,0.0,-1.2126,-1.2094,-1.233,-1.2772,-1.2351,-1.2107,0.0,0.0,0.0,0.0,0.0,0.0,0.0,0.0,0.0,-1.1983,-1.2482,0.0,-1.3122,-1.3612,-1.37,-1.3571,-1.3511,-1.3511,-1.3511,-1.3511,-1.3511,-1.3511,-1.3511,-1.3511,-1.3511,-1.3511,-1.3511,-1.3511,-1.3761,-1.37,-1.3571,-1.3761,-1.383,-1.389,-1.395,-1.4139,-1.4336,-1.4455,-1.4455,-1.4515,-1.4515,-1.4506,-1.4506,-1.4515,0.0,0.0,0.0,0.0,0.0,0.0,0.0,0.0,0.0,0.0,0.0,0.0,0.0,0.0,0.0,0.0,0.0,0.0,0.0,0.0,0.0,-1.4189,0.0,0.0,0.0,-1.5945,-1.6317,-1.6586,-1.6894,-1.71,-1.736,-1.7414,-1.7216,-1.7377,-1.7392,-1.7166,-1.6968,-1.6908,-1.6908,-1.6908,-1.6908,-1.6908,-1.6908,-1.6908,-1.6908,0.0,0.0,0.0,0.0,0.0,0.0,0.0,-1.123,0.0,-1.2473,-1.2057,-1.1816,-1.2157,-1.2126,-1.2076,-1.1968,-1.2036,-1.2104,-1.2122,-1.2122,-1.2104,-1.2076,-1.2085,0.0,-1.2487,-1.2212,-1.2085,-1.2076,0.0,0.0,0.0,0.0,0.0,0.0,0.0,-1.1729,0.0,0.0,0.0,-1.3072,-1.3562,-1.37,-1.3511,-1.3511,-1.3511,-1.3511,-1.3511,-1.3511,-1.3511,-1.3511,-1.3511,-1.3511,-1.3511,-1.3511,-1.3511,-1.364,-1.3571,-1.3511,-1.364,-1.364,-1.37,-1.383,-1.401,-1.4198,-1.4336,-1.4446,-1.4515,-1.4515,-1.4515,-1.4515,-1.4515,-1.4387,0.0,0.0,0.0,0.0,0.0,0.0,0.0,0.0,0.0,0.0,0.0,0.0,0.0,0.0,0.0,0.0,0.0,0.0,0.0,0.0,0.0,0.0,0.0,0.0,0.0,-1.5861,-1.653,-1.6789,-1.6663,-1.737,-1.7445,-1.6987,-1.7349,-1.7323,-1.7038,-1.6968,-1.6908,-1.6908,-1.6908,-1.6908,-1.6908,-1.6908,-1.6908,-1.6908,0.0,-1.0049,0.0,0.0,-1.0396,0.0,-1.1233,-1.175,-1.2196,-1.254,-1.2274,-1.2076,-1.2175,-1.2126,-1.2026,-1.1859,-1.2017,-1.2085,-1.2113,-1.2085,-1.2076,-1.2085,-1.2085,-1.2085,-1.2094,-1.2113,-1.2054,0.0,0.0,0.0,0.0,0.0,0.0,0.0,0.0,0.0,0.0,0.0,-1.2889,-1.3117,-1.3588,-1.364,-1.3459,-1.3459,-1.3459,-1.3459,-1.3459,-1.345,-1.3511,-1.3511,-1.3511,-1.3511,-1.3511,-1.3511,-1.3511,-1.3511,-1.3511,-1.3511,-1.3571,-1.3571,-1.364,-1.383,-1.4019,-1.4139,-1.4327,-1.4396,-1.4515,-1.4515,-1.4455,-1.4455,-1.4387,-1.4198,0.0,0.0,0.0,0.0,0.0,0.0,0.0,0.0,0.0,0.0,0.0,0.0,0.0,0.0,0.0,0.0,0.0,0.0,0.0,0.0,0.0,-1.43,-1.4706,0.0,-1.541,-1.542,-1.6235,-1.6493,-1.6286,-1.7292,-1.7407,-1.6864,-1.7349,-1.7323,-1.6968,-1.6908,-1.6908,-1.6908,-1.6908,-1.6908,-1.6908,-1.6908,-1.6908,-1.6908,0.0,0.0,0.0,0.0,0.0,0.0,-1.1603,-1.2005,-1.2227,-1.2166,-1.2026,-1.1927,-1.1927,-1.1927,-1.1977,-1.2076,-1.2076,-1.2076,-1.2076,-1.2076,-1.2085,-1.2113,-1.2113,-1.2072,-1.21,-1.2109,-1.1855,0.0,0.0,-1.21,0.0,0.0,0.0,0.0,0.0,0.0,0.0,-1.2427,-1.28,-1.3459,-1.3502,-1.3467,-1.3302,-1.3302,-1.3302,-1.3302,-1.3302,-1.3407,-1.3511,-1.3511,-1.3511,-1.3511,-1.3511,-1.3511,-1.3511,-1.3511,-1.3511,-1.3511,-1.37,-1.3769,-1.383,-1.4148,-1.4267,-1.4327,-1.4446,-1.4506,-1.4515,-1.4515,-1.4396,-1.4267,-1.407,-1.401,-1.401,0.0,0.0,0.0,0.0,0.0,0.0,0.0,0.0,0.0,0.0,-1.4198,0.0,0.0,0.0,0.0,0.0,0.0,0.0,-1.441,0.0,-1.4706,-1.5294,-1.5352,-1.541,-1.541,-1.5488,-1.5782,-1.6135,-1.6611,-1.6912,-1.711,-1.7533,-1.751,-1.7166,-1.6968,-1.6908,-1.6908,-1.6908,-1.6908,-1.6908,-1.6908,-1.6908,-1.6908,0.0,0.0,0.0,0.0,0.0,0.0,0.0,-1.1965,-1.2175,-1.1778,-1.1828,-1.1877,-1.1877,-1.1877,-1.1877,-1.1877,-1.2026,-1.1977,-1.1778,-1.1868,-1.1927,-1.1904,-1.1719,-1.1592,-1.161,-1.1628,-1.1501,0.0,0.0,0.0,0.0,0.0,0.0,0.0,0.0,-1.1835,-1.25,-1.2444,-1.2826,-1.3511,-1.3407,-1.3354,-1.3302,-1.3302,-1.3302,-1.3302,-1.3302,-1.3407,-1.3511,-1.3511,-1.3511,-1.3511,-1.3511,-1.3511,-1.3511,-1.3511,-1.3511,-1.3511,-1.3769,-1.37,-1.37,-1.4207,-1.4148,-1.4079,-1.4446,-1.4455,-1.4396,-1.4396,-1.4207,-1.4019,-1.401,-1.395,-1.389,-1.389,0.0,0.0,0.0,0.0,0.0,0.0,0.0,0.0,0.0,0.0,0.0,0.0,0.0,0.0,0.0,0.0,0.0,-1.4469,0.0,-1.4715,-1.5137,-1.5254,-1.5254,-1.5264,-1.5897,-1.6152,-1.6154,-1.7061,-1.7455,-1.7466,-1.7512,-1.7451,-1.7166,-1.7107,-1.7038,-1.6908,-1.6908,-1.6908,-1.6908,-1.6908,-1.6908,-1.6908,-1.0258,0.0,-1.013,0.0,-1.0711,-1.0995,-1.142,-1.1844,-1.1977,-1.1569,-1.1678,-1.1778,-1.1778,-1.1778,-1.1778,-1.1728,-1.1877,-1.1877,-1.1578,-1.1719,-1.1769,-1.1687,-1.1501,0.0,-1.1283,-1.1292,-1.1292,-1.1283,-1.1283,0.0,0.0,0.0,0.0,0.0,-1.1401,-1.1713,-1.2419,-1.2381,-1.2826,-1.3511,-1.3407,-1.3363,-1.3302,-1.3302,-1.3302,-1.3302,-1.3302,-1.3407,-1.3511,-1.3511,-1.3511,-1.3511,-1.3511,-1.3511,-1.3511,-1.3511,-1.3511,-1.3511,-1.3769,-1.364,-1.3631,-1.4079,-1.4019,-1.389,-1.4327,-1.4396,-1.4267,-1.4267,-1.4079,-1.389,-1.395,-1.3821,-1.37,-1.3769,0.0,0.0,0.0,0.0,0.0,0.0,-1.407,-1.4001,-1.4061,0.0,0.0,0.0,0.0,0.0,0.0,0.0,0.0,0.0,0.0,0.0,-1.5039,-1.5156,-1.5273,-1.5398,-1.6189,-1.6504,-1.6547,-1.7539,-1.794,-1.7784,-1.7657,-1.7451,-1.7373,-1.7235,-1.7107,-1.6968,-1.6899,-1.6908,-1.6908,-1.6908,-1.6908,-1.6908,-1.0002,-1.0101,-1.0526,-1.1194,-1.0948,-1.0948,-1.1594,-1.1719,-1.1678,-1.1528,-1.1528,-1.1528,-1.1528,-1.1528,-1.1578,-1.1678,-1.1728,-1.1728,-1.1728,-1.1728,-1.1628,0.0,0.0,-1.1563,-1.131,-1.1285,-1.1285,-1.131,0.0,0.0,-1.1326,0.0,-1.1301,-1.1326,-1.1292,-1.1584,-1.2044,-1.2317,-1.2826,-1.3511,-1.3511,-1.3407,-1.3302,-1.3302,-1.3302,-1.3302,-1.3302,-1.3407,-1.3511,-1.3511,-1.3511,-1.3511,-1.3511,-1.3511,-1.3511,-1.3511,-1.3511,-1.3511,-1.3769,-1.364,-1.3571,-1.3941,-1.389,-1.389,-1.4207,-1.4267,-1.4267,-1.4267,-1.4139,-1.395,-1.383,-1.364,-1.3571,-1.3769,0.0,0.0,0.0,0.0,0.0,0.0,-1.4428,-1.4529,-1.4647,0.0,0.0,0.0,0.0,0.0,0.0,0.0,0.0,-1.4715,-1.4715,0.0,-1.5215,-1.5215,-1.5417,-1.5831,-1.6013,-1.6596,-1.7383,-1.7812,-1.8008,-1.8008,-1.7784,-1.7706,-1.7638,-1.7373,-1.7166,-1.7166,-1.6968,-1.6908,-1.6908,-1.6908,-1.6908,-1.6908,-0.9638,-0.9861,-1.0225,-1.0303,-1.0454,-1.0722,-1.1112,-1.146,-1.1628,-1.1368,-1.1427,-1.1477,-1.1368,-1.1427,-1.1528,0.0,-1.1628,-1.1628,0.0,-1.1519,-1.1528,-1.1377,-1.1267,-1.1175,-1.1124,-1.0889,-1.0905,-1.1285,0.0,0.0,0.0,-1.1293,-1.1285,-1.1285,-1.1284,-1.1539,-1.2006,-1.2305,-1.289,-1.345,-1.3155,-1.3111,-1.3302,-1.318,-1.318,-1.3302,-1.3302,-1.3407,-1.3511,-1.3511,-1.3511,-1.3511,-1.3511,-1.3511,-1.3511,-1.3511,-1.3511,-1.3511,-1.3769,-1.364,-1.3571,-1.3941,-1.3821,-1.37,-1.401,-1.401,-1.3959,-1.3959,-1.3821,-1.3631,-1.3571,-1.3511,-1.3511,-1.3571,-1.3761,0.0,0.0,0.0,0.0,0.0,-1.4428,-1.4419,0.0,-1.4843,0.0,0.0,0.0,0.0,0.0,0.0,0.0,0.0,-1.497,0.0,-1.5303,-1.5653,-1.5877,-1.6013,-1.668,-1.7321,-1.8004,-1.8142,-1.8202,-1.8202,-1.7998,-1.7794,-1.7529,-1.7461,-1.7245,-1.6968,-1.6908,-1.6908,-1.6908,-1.6908,-1.6908,-1.6908,-0.9385,-0.9532,-0.984,-1.0004,-1.0206,-1.0501,-1.0993,-1.132,-1.1477,-1.1326,-1.1326,-1.1326,-1.1217,-1.1267,0.0,-1.1427,-1.1528,-1.1477,-1.1226,-1.1368,-1.1326,-1.1175,-1.1057,-1.0956,-1.0905,-1.0618,0.0,-1.1006,-1.0997,-1.0981,-1.1015,-1.1201,-1.1302,-1.1302,-1.1488,-1.1922,-1.256,-1.2579,-1.2941,-1.345,-1.3042,-1.3058,-1.3302,-1.318,-1.318,-1.3302,-1.3354,-1.3398,-1.3511,-1.3511,-1.345,-1.3407,-1.3407,-1.3407,-1.3398,-1.3511,-1.3511,-1.3511,-1.364,-1.358,-1.3571,-1.3761,-1.3631,-1.3571,-1.3881,-1.389,-1.383,-1.389,-1.37,-1.3511,-1.358,-1.3571,-1.3511,-1.3511,-1.3761,-1.395,-1.401,0.0,0.0,0.0,0.0,0.0,0.0,-1.5079,-1.5069,0.0,0.0,0.0,0.0,0.0,0.0,-1.5098,-1.5205,-1.539,-1.5654,-1.5928,-1.6292,-1.6572,-1.7341,-1.7866,-1.8165,-1.8098,-1.8022,-1.8022,-1.7764,-1.7649,-1.7598,-1.7461,-1.7245,-1.7038,-1.6908,-1.6908,-1.6908,-1.6908,-1.6908,-1.6908,-0.9177,-0.9177,-0.9403,0.0,-1.0148,0.0,-1.1088,-1.1242,-1.1276,-1.1326,-1.1167,-1.1124,-1.1124,-1.1023,-1.1023,-1.1276,0.0,0.0,0.0,-1.1226,-1.1175,-1.0922,-1.0964,-1.0913,-1.0718,-1.0576,-1.0509,-1.049,-1.0509,-1.0501,-1.0501,-1.1023,-1.1277,-1.137,-1.1799,-1.2564,-1.3441,-1.2894,-1.3017,-1.345,-1.3103,-1.3111,-1.331,-1.3241,-1.3241,-1.3302,-1.3398,-1.345,-1.345,-1.345,-1.3407,-1.331,-1.3302,-1.3302,-1.3302,-1.3459,-1.3511,-1.3511,-1.3511,-1.3511,-1.3511,-1.3511,-1.3511,-1.3571,-1.37,-1.3769,-1.383,-1.395,-1.37,-1.3571,-1.3709,-1.364,-1.3511,-1.3511,-1.37,-1.383,-1.395,-1.4139,-1.4378,0.0,0.0,0.0,-1.5215,-1.5303,-1.541,0.0,0.0,0.0,0.0,0.0,-1.5215,-1.5215,-1.5303,-1.5625,-1.6115,-1.6154,-1.6596,-1.7458,-1.8041,-1.8155,-1.7906,-1.769,-1.7625,-1.7655,-1.7261,-1.735,-1.7638,-1.7304,-1.7166,-1.7166,-1.6968,-1.6908,-1.6908,-1.6908,-1.6908,-1.6908,0.0,0.0,-0.9197,-0.9223,-0.9629,-1.0023,-1.0254,-1.081,-1.1175,-1.1276,-1.1267,-1.1267,-1.1267,-1.1226,-1.1217,-1.1267,-1.1226,-1.1124,-1.1124,-1.1226,-1.1226,-1.1074,-1.0972,-1.0871,-1.0718,-1.0557,-1.0506,-1.0514,-1.0506,-1.0498,-1.0474,-1.0643,-1.1088,-1.1754,-1.1843,-1.2341,-1.3012,-1.271,-1.283,-1.3103,-1.2805,-1.2867,-1.305,-1.2989,-1.2989,-1.3111,-1.3103,-1.3103,-1.3103,-1.3103,-1.3103,-1.3111,-1.3241,-1.3302,-1.3302,-1.3363,-1.3407,-1.3511,-1.3511,-1.3398,-1.3354,-1.345,-1.3511,-1.3511,-1.3415,-1.3528,-1.358,-1.3476,-1.3467,-1.3459,-1.3415,-1.3467,-1.3511,-1.3511,-1.37,-1.383,-1.383,-1.395,-1.4249,0.0,-1.4715,-1.4893,-1.5303,-1.5362,-1.541,0.0,0.0,0.0,0.0,-1.5362,-1.5313,-1.5215,-1.5303,-1.5625,-1.6115,-1.6582,-1.709,-1.7775,-1.8051,-1.8051,-1.7906,-1.783,-1.7945,-1.8111,-1.7697,-1.7561,-1.7529,-1.7314,-1.7107,-1.6978,-1.6908,-1.6908,-1.6908,-1.6908,-1.683,-1.6682,-0.9024,-0.9056,-0.9116,-0.9223,-0.9586,-1.0014,-1.0293,-1.0761,-1.1175,-1.1276,-1.1226,-1.1226,-1.1226,-1.1175,-1.1124,-1.1124,-1.1175,-1.1175,-1.1124,-1.1175,-1.1124,-1.0922,-1.0871,-1.0777,-1.0616,-1.0522,-1.0522,-1.0522,-1.0522,-1.0514,-1.0506,-1.0549,-1.0973,-1.1589,-1.185,-1.2289,-1.2881,-1.2781,-1.2789,-1.2989,-1.2683,-1.2744,-1.2928,-1.2805,-1.2867,-1.2928,-1.2989,-1.2989,-1.2989,-1.2989,-1.2989,-1.2928,-1.305,-1.3058,-1.3058,-1.3058,-1.3233,-1.3407,-1.3407,-1.3294,-1.3172,-1.3224,-1.3277,-1.3224,-1.3172,-1.3164,-1.3224,-1.3302,-1.3294,-1.3277,-1.3407,-1.3459,-1.3511,-1.3511,-1.3571,-1.37,-1.3769,-1.395,-1.4121,-1.4529,-1.4647,-1.4834,-1.5254,-1.5313,-1.5313,-1.5313,-1.5362,0.0,-1.5313,-1.5362,-1.5362,-1.5313,-1.5362,-1.5782,-1.6481,-1.7113,-1.759,-1.8015,-1.7866,-1.7726,-1.748,-1.7345,-1.746,-1.774,-1.7214,-1.7178,-1.747,-1.7176,-1.6968,-1.6908,-1.6908,-1.6908,-1.6908,-1.683,-1.6682,-1.6603,-0.8984,-0.8984,-0.9086,-0.9419,-0.968,-0.9998,-1.0535,-1.0804,-1.1057,-1.1267,-1.1226,-1.1124,-1.1124,-1.1023,-1.0922,-1.0922,-1.1124,-1.1167,-1.1074,-1.1074,-1.0972,-1.0718,-1.0718,-1.0624,-1.0522,-1.0522,-1.0522,-1.0522,-1.0522,-1.0522,-1.0522,-1.0624,-1.0894,-1.1245,-1.1701,-1.2257,-1.2839,-1.2813,-1.2867,-1.2928,-1.2683,-1.2683,-1.2744,-1.2744,-1.2744,-1.2805,-1.2928,-1.2928,-1.2928,-1.2928,-1.2867,-1.2744,-1.2805,-1.2805,-1.2805,-1.2805,-1.2989,-1.3241,-1.3241,-1.3119,-1.2981,-1.2928,-1.2981,-1.2989,-1.2989,-1.2928,-1.2936,-1.3241,-1.3172,-1.3164,-1.3398,-1.3511,-1.3511,-1.3511,-1.3511,-1.3571,-1.3769,0.0,-1.413,-1.4469,-1.4588,-1.4834,-1.5156,-1.5156,-1.5156,-1.5215,-1.5313,-1.5332,-1.5361,-1.5459,-1.5537,-1.5605,-1.5547,-1.6018,-1.7024,-1.761,-1.7954,-1.793,-1.7553,-1.7236,-1.6927,-1.6668,-1.6778,-1.7206,-1.6571,-1.676,-1.747,-1.7047,-1.6908,-1.6908,-1.6908,-1.6908,-1.683,-1.6682,-1.6533,-1.6473,-0.8911,-0.8943,-0.9001,-0.8996,-0.9249,-0.9611,-1.0043,-1.0376,-1.0778,-1.1233,-1.1276,-1.1276,-1.1276,-1.1175,-1.1074,-1.1074,-1.1023,-1.0972,-1.0922,-1.0922,-1.0871,-1.0726,-1.0718,-1.0624,-1.0522,-1.0522,-1.0522,-1.0522,-1.0522,-1.0522,-1.0522,-1.0522,-1.0857,-1.1472,-1.1519,-1.1977,-1.2679,-1.2666,-1.2621,-1.2683,-1.2621,-1.2621,-1.2621,-1.2621,-1.2621,-1.2621,-1.2621,-1.2683,-1.2683,-1.2683,-1.2629,-1.2621,-1.2744,-1.2805,-1.2805,-1.2928,-1.2928,-1.2928,-1.305,-1.305,-1.2928,-1.2744,-1.2805,-1.2989,-1.2989,-1.3111,-1.325,-1.3302,-1.3346,-1.3398,-1.3354,-1.3407,-1.3511,-1.3511,-1.3511,-1.3571,-1.3769,0.0,-1.413,-1.4469,-1.4588,-1.4775,-1.5029,-1.5029,-1.5098,-1.5215,-1.5215,-1.5419,-1.5947,-1.5967,-1.6133,-1.6514,-1.6162,-1.6394,-1.7169,-1.7782,-1.7757,-1.7193,-1.699,-1.6799,-1.6558,-1.6437,-1.67,-1.735,-1.6882,-1.7016,-1.747,-1.7047,-1.6908,-1.6908,-1.6908,-1.683,-1.6612,-1.6603,-1.6403,-1.6202,-0.8911,-0.8952,-0.9052,-0.9265,-0.9425,-0.9739,-1.0216,-1.0441,-1.0739,-1.115,-1.1167,-1.1167,-1.1167,-1.1124,-1.1074,-1.1023,-1.0871,-1.0769,-1.0769,-1.0769,-1.0769,-1.0718,-1.0616,-1.0573,-1.0522,-1.0522,-1.0522,-1.0522,-1.0419,-1.0419,-1.0522,-1.0419,-1.0783,-1.1487,-1.1487,-1.1884,-1.2621,-1.2621,-1.2621,-1.2621,-1.2621,-1.2621,-1.2621,-1.2621,-1.2621,-1.2621,-1.2621,-1.2621,-1.2621,-1.2621,-1.2621,-1.2621,-1.2683,-1.2683,-1.2683,-1.2744,-1.2805,-1.2805,-1.2805,-1.2805,-1.2744,-1.2621,-1.2744,-1.2867,-1.2867,-1.305,-1.3172,-1.331,-1.3354,-1.3407,-1.3407,-1.3519,-1.364,-1.364,-1.37,0.0,-1.389,-1.4079,-1.4198,-1.4369,-1.4497,-1.4675,-1.4843,-1.497,-1.497,-1.4902,-1.5137,-1.54,-1.5484,-1.5877,-1.6269,-1.6719,-1.6658,-1.6763,-1.7096,-1.7244,-1.7134,-1.6917,-1.6504,-1.6323,-1.6254,-1.6078,-1.6394,-1.716,-1.6708,-1.6874,-1.747,-1.7047,-1.6908,-1.6908,-1.6908,-1.676,-1.6603,-1.6473,-1.6272,-1.6061,-0.883,-0.8862,-0.9054,-0.9444,-0.9564,-0.9806,-1.0412,-1.0574,-1.078,-1.1057,-1.1124,-1.1074,-1.1074,-1.1023,-1.0972,-1.0871,-1.0718,-1.0624,-1.0624,-1.0565,-1.0565,-1.0667,-1.0565,-1.0522,-1.0522,-1.0522,-1.047,-1.047,-1.0368,-1.0368,-1.047,-1.0368,-1.0783,-1.1487,-1.1487,-1.1884,-1.2621,-1.2621,-1.256,-1.256,-1.256,-1.256,-1.256,-1.256,-1.256,-1.2621,-1.2621,-1.2621,-1.2621,-1.2621,-1.2621,-1.2621,-1.2621,-1.2621,-1.2621,-1.2621,-1.2683,-1.2744,-1.2629,-1.2621,-1.2629,-1.2629,-1.2744,-1.2867,-1.2928,-1.2989,-1.3111,-1.3294,-1.3354,-1.3415,-1.3519,-1.37,-1.383,-1.383,0.0,-1.401,-1.407,-1.4198,-1.4327,-1.4327,-1.4455,-1.4565,-1.4666,-1.4843,-1.4902,-1.4775,-1.5128,-1.5293,-1.5281,-1.5768,-1.6269,-1.6719,-1.7017,-1.702,-1.6822,-1.6719,-1.6617,-1.6585,-1.6133,-1.5961,-1.6009,-1.573,-1.5979,-1.6697,-1.6205,-1.6439,-1.7041,-1.6793,-1.6693,-1.6633,-1.6733,-1.6691,-1.6542,-1.6342,-1.6202,-1.6061,-0.8561,-0.8643,-0.884,-0.9162,-0.9253,-0.9509,-1.037,-1.0504,-1.0647,-1.1032,-1.1124,-1.1074,-1.0922,-1.082,-1.0726,-1.0718,-1.047,-1.0324,-1.0324,-1.0154,-1.0205,-1.0522,-1.0522,-1.0522,-1.0522,-1.0522,-1.0419,-1.0316,-1.0419,-1.0419,-1.0316,-1.0419,-1.0836,-1.1487,-1.1487,-1.1884,-1.2621,-1.2621,-1.2498,-1.2305,-1.2305,-1.2305,-1.2305,-1.2305,-1.2428,-1.2621,-1.2621,-1.2621,-1.2621,-1.2621,-1.2621,-1.2621,-1.2621,-1.2621,-1.2621,-1.2621,-1.2629,-1.2621,-1.2621,-1.2683,-1.2805,-1.2805,-1.2867,-1.305,-1.3241,-1.3241,-1.3302,-1.3459,-1.3511,-1.3571,-1.3761,-1.3769,-1.383,-1.395,0.0,0.0,-1.4267,-1.4267,-1.4336,-1.4446,-1.4506,-1.4515,-1.4506,-1.4666,-1.4775,-1.497,-1.5088,-1.5438,-1.5996,-1.6045,-1.6269,-1.6719,-1.7229,-1.7179,-1.6366,-1.6628,-1.6534,-1.5964,-1.5934,-1.5856,-1.573,-1.5391,-1.5456,-1.5879,-1.5519,-1.5512,-1.5873,-1.5984,-1.6004,-1.5904,-1.62,-1.6342,-1.6342,-1.6132,-1.6132,-1.6061,-0.8513,-0.8602,-0.8865,-0.9476,-0.9349,-0.9395,-1.0163,-0.9986,-0.9896,-1.0138,-1.0343,-1.0475,-1.0426,-1.0529,-1.0522,-1.047,-1.0265,-1.0102,-1.0102,-1.0051,-1.0102,-1.0368,-1.0265,-1.0316,-1.0522,-1.0308,-1.0265,-1.0419,-1.0162,-1.0162,-1.0316,-1.0162,-1.0463,-1.1269,-1.1269,-1.1659,-1.2313,-1.2313,-1.2251,-1.2182,-1.2182,-1.2182,-1.2182,-1.2243,-1.2367,-1.2436,-1.256,-1.2621,-1.256,-1.2436,-1.2428,-1.2428,-1.2428,-1.2428,-1.2428,-1.256,-1.2621,-1.2621,-1.2621,-1.2621,-1.2683,-1.2805,-1.2928,-1.305,-1.3241,-1.3354,-1.3459,-1.3511,-1.358,-1.37,-1.3769,-1.3959,-1.4148,-1.4198,0.0,-1.4428,-1.4446,-1.4497,-1.4556,-1.4506,-1.4515,-1.4506,-1.4606,-1.4784,-1.4843,-1.4843,-1.5128,-1.5322,-1.5427,-1.5858,-1.6143,-1.6309,-1.6537,-1.652,-1.6317,-1.6039,-1.5938,-1.5914,-1.5662,-1.5614,-1.5682,-1.5332,-1.5436,-1.577,-1.5472,-1.5457,-1.5725,-1.593,-1.5891,-1.586,-1.6191,-1.6272,-1.6132,-1.6,-1.5859,-1.5709,-0.848,-0.8561,-0.8798,-0.9428,-0.9241,-0.9229,-0.9865,-0.9739,-0.9658,-0.9674,-0.9979,-1.0188,-1.0089,-1.021,-1.0316,-1.0213,-1.0051,-0.9947,-0.9947,-0.9844,-0.9947,-1.0213,-1.0051,-1.0102,-1.036,-1.0102,-1.0102,-1.0265,-1.0007,-0.9955,-1.0162,-0.9955,-1.0302,-1.1099,-1.1099,-1.1483,-1.2127,-1.2127,-1.2058,-1.1996,-1.1996,-1.1996,-1.1996,-1.212,-1.2182,-1.2305,-1.2436,-1.256,-1.256,-1.2428,-1.2367,-1.2367,-1.2367,-1.2367,-1.2428,-1.256,-1.2621,-1.2629,-1.2621,-1.2683,-1.2683,-1.2805,-1.2989,-1.3172,-1.3415,-1.3528,-1.3631,-1.3631,-1.3761,-1.389,-1.3959,-1.4139,-1.4327,-1.4336,-1.4497,-1.4606,-1.4506,-1.4556,-1.4606,-1.4556,-1.4506,-1.4565,-1.4784,-1.4911,-1.497,-1.4843,-1.5186,-1.5303,-1.5137,-1.5653,-1.5989,-1.5989,-1.6049,-1.6049,-1.6168,-1.5694,-1.5604,-1.573,-1.5594,-1.5488,-1.5498,-1.5274,-1.5241,-1.5448,-1.5153,-1.5148,-1.5341,-1.5608,-1.5717,-1.5657,-1.5983,-1.607,-1.6,-1.5797,-1.5647,-1.5426,-0.8414,-0.8414,-0.8484,-0.8842,-0.8905,-0.9069,-0.9512,-0.9898,-1.006,-0.9914,-1.024,-1.036,-1.0051,-0.9999,-0.9999,-0.9999,-0.9895,-0.9799,-0.9799,-0.9524,-0.9569,-0.9999,-0.9999,-0.9999,-0.9999,-0.9999,-0.9947,-0.9799,-0.9947,-0.9947,-0.9799,-0.9947,-1.0402,-1.1099,-1.1099,-1.1483,-1.2127,-1.2127,-1.1996,-1.1802,-1.1802,-1.1802,-1.1802,-1.1802,-1.1996,-1.2305,-1.2305,-1.2436,-1.2621,-1.2621,-1.2621,-1.2621,-1.2621,-1.2621,-1.2621,-1.2621,-1.2621,-1.2621,-1.2744,-1.2805,-1.2805,-1.2989,-1.318,-1.3363,-1.3709,-1.383,-1.383,-1.395,-1.401,-1.407,-1.4267,-1.4267,-1.4336,-1.4455,-1.4515,-1.4515,-1.4515,-1.4515,-1.4565,-1.4656,-1.4556,-1.4625,-1.498,-1.497,-1.5039,-1.5215,-1.5313,-1.541,-1.541,-1.5604,-1.5672,-1.5672,-1.5856,-1.5914,-1.5914,-1.5798,-1.5604,-1.541,-1.5604,-1.5508,-1.5215,-1.5039,-1.4902,-1.4715,-1.4556,-1.4563,-1.4648,-1.4956,-1.5138,-1.5257,-1.5651,-1.5805,-1.5797,-1.5576,-1.5505,-1.5426,-0.8111,-0.8111,-0.826,-0.8688,-0.8663,-0.878,-0.9266,-0.915,-0.9051,-0.9244,-0.9367,-0.9481,-0.9619,-0.9753,-0.9851,-0.9851,-0.9732,-0.9673,-0.9673,-0.942,-0.9413,-0.9725,-0.9621,-0.9732,-0.9999,-0.9836,-0.9784,-0.9947,-0.9784,-0.9732,-0.9799,-0.9732,-1.0073,-1.0758,-1.0758,-1.1123,-1.1747,-1.1747,-1.1685,-1.1685,-1.1685,-1.1685,-1.1685,-1.174,-1.1872,-1.1988,-1.212,-1.2243,-1.2375,-1.2305,-1.2313,-1.2367,-1.2367,-1.2498,-1.2621,-1.2621,-1.2683,-1.2744,-1.2805,-1.2867,-1.2989,-1.318,-1.3241,-1.3363,-1.3709,-1.383,-1.383,-1.395,-1.4139,-1.4207,-1.4267,-1.4437,-1.4597,-1.4606,-1.4734,-1.4793,-1.4666,-1.4666,-1.4606,-1.4556,-1.4606,-1.4725,-1.497,-1.5098,-1.5156,-1.5215,-1.5264,-1.5381,-1.5614,-1.5546,-1.5546,-1.5672,-1.5604,-1.5536,-1.5536,-1.5672,-1.5672,-1.5604,-1.5439,-1.5274,-1.5215,-1.4902,-1.4775,-1.4715,-1.4437,-1.4441,-1.4648,-1.4883,-1.5071,-1.5257,-1.5651,-1.5726,-1.5576,-1.5355,-1.5133,-1.4856,-0.8021,-0.807,-0.8222,-0.8466,-0.8427,-0.8535,-0.8927,-0.8821,-0.8807,-0.9101,-0.9204,-0.9305,-0.9515,-0.9614,-0.9636,-0.9636,-0.9517,-0.9465,-0.9465,-0.9263,-0.9211,-0.9413,-0.9361,-0.9472,-0.9836,-0.9673,-0.9673,-0.9836,-0.9673,-0.9621,-0.974,-0.9753,-1.0082,-1.0594,-1.0719,-1.107,-1.1622,-1.1622,-1.1622,-1.1622,-1.1622,-1.1622,-1.1622,-1.1685,-1.174,-1.1802,-1.1934,-1.2058,-1.2243,-1.2182,-1.2313,-1.2428,-1.2428,-1.256,-1.2683,-1.2683,-1.2744,-1.2928,-1.2997,-1.305,-1.3172,-1.3415,-1.3415,-1.3476,-1.3899,-1.4019,-1.4019,-1.4198,-1.4267,-1.4396,-1.4396,-1.4497,-1.4666,-1.4715,-1.4784,-1.4793,-1.4715,-1.4666,-1.4606,-1.4556,-1.4666,-1.4775,-1.5029,-1.5156,-1.5215,-1.5254,-1.5254,-1.5381,-1.5672,-1.5662,-1.5662,-1.5798,-1.572,-1.5652,-1.5536,-1.5546,-1.5556,-1.5508,-1.5274,-1.5156,-1.5029,-1.4775,-1.4656,-1.4616,-1.4541,-1.4595,-1.4806,-1.5055,-1.5238,-1.5471,-1.5632,-1.5576,-1.5355,-1.5062,-1.4776,-1.4497,-0.8062,-0.8201,-0.8332,-0.8209,-0.8198,-0.833,-0.8635,-0.8845,-0.9024,-0.9294,-0.9416,-0.9533,-0.9562,-0.9465,-0.9361,-0.9413,-0.9263,-0.9211,-0.9211,-0.9061,-0.9061,-0.9211,-0.9211,-0.9309,-0.9614,-0.9614,-0.9614,-0.9614,-0.9614,-0.9629,-0.9665,-0.9965,-1.0287,-1.0646,-1.0938,-1.1321,-1.1622,-1.1622,-1.1622,-1.1622,-1.1622,-1.1622,-1.1622,-1.1622,-1.1685,-1.1802,-1.1802,-1.1934,-1.2058,-1.2243,-1.2428,-1.256,-1.256,-1.2683,-1.2805,-1.2805,-1.2928,-1.305,-1.3241,-1.3302,-1.3424,-1.3709,-1.37,-1.37,-1.4207,-1.4267,-1.4327,-1.4446,-1.4515,-1.4515,-1.4515,-1.4506,-1.4556,-1.4656,-1.4616,-1.4556,-1.4656,-1.4616,-1.4556,-1.4715,-1.4715,-1.4834,-1.5156,-1.5215,-1.5264,-1.541,-1.541,-1.5478,-1.5672,-1.5798,-1.5856,-1.5856,-1.5951,-1.5941,-1.5672,-1.5478,-1.5303,-1.5215,-1.5156,-1.5029,-1.4715,-1.4715,-1.4606,-1.4533,-1.4726,-1.4871,-1.5133,-1.5338,-1.5592,-1.5726,-1.5576,-1.5355,-1.5133,-1.4713,-1.4497,-1.4289,-0.8021,-0.7987,-0.8036,-0.8028,-0.813,-0.8335,-0.87,-0.8665,-0.8772,-0.9292,-0.9105,-0.904,-0.9384,-0.9309,-0.9263,-0.9413,-0.9159,-0.9113,-0.9211,-0.8956,-0.9008,-0.9361,-0.9263,-0.9309,-0.9614,-0.9614,-0.9614,-0.9614,-0.9614,-0.9746,-0.9994,-1.0068,-1.0411,-1.0975,-1.1041,-1.1321,-1.1622,-1.1622,-1.1622,-1.1622,-1.1622,-1.1622,-1.1622,-1.1622,-1.1622,-1.1622,-1.1622,-1.1747,-1.1872,-1.2058,-1.2243,-1.2367,-1.256,-1.2683,-1.2805,-1.2928,-1.3111,-1.3241,-1.3302,-1.3484,-1.3709,-1.389,-1.401,-1.4139,-1.4267,-1.4267,-1.4327,-1.4446,-1.4515,-1.4515,-1.4515,-1.4616,-1.4656,-1.4715,-1.4656,-1.4656,-1.4715,-1.4656,-1.4656,-1.4715,-1.4902,-1.5088,-1.5215,-1.5313,-1.5362,-1.541,-1.541,-1.5478,-1.5672,-1.5604,-1.5604,-1.574,-1.5594,-1.5526,-1.5478,-1.541,-1.5303,-1.5215,-1.4902,-1.4775,-1.4715,-1.4616,-1.4506,-1.4533,-1.463,-1.4826,-1.5068,-1.5043,-1.523,-1.5576,-1.5346,-1.5062,-1.4713,-1.4641,-1.4289,-1.3863,-0.7987,-0.7946,-0.7946,-0.7863,-0.7935,-0.8129,-0.859,-0.8475,-0.8511,-0.9127,-0.8858,-0.8765,-0.919,-0.9113,-0.9061,-0.9211,-0.9008,-0.8956,-0.9008,-0.8857,-0.891,-0.9211,-0.9211,-0.9309,-0.951,-0.9517,-0.951,-0.9614,-0.9614,-0.9782,-1.0104,-1.0258,-1.0602,-1.1085,-1.1299,-1.1468,-1.1622,-1.1622,-1.1622,-1.1685,-1.1622,-1.1685,-1.1809,-1.1747,-1.1685,-1.1685,-1.1685,-1.1747,-1.1802,-1.2058,-1.2182,-1.2367,-1.2621,-1.2805,-1.2928,-1.3111,-1.3233,-1.3415,-1.3536,-1.3657,-1.383,-1.4079,-1.4207,-1.4327,-1.4396,-1.4396,-1.4396,-1.4515,-1.4515,-1.4515,-1.4515,-1.4556,-1.4606,-1.4715,-1.4666,-1.4606,-1.4715,-1.4715,-1.4715,-1.4715,-1.5029,-1.5274,-1.5449,-1.5488,-1.5546,-1.5546,-1.5478,-1.5478,-1.5672,-1.5604,-1.5604,-1.5672,-1.5604,-1.5478,-1.541,-1.5362,-1.5264,-1.5098,-1.4911,-1.4784,-1.4616,-1.4506,-1.4547,-1.4608,-1.4586,-1.4804,-1.5132,-1.4985,-1.5074,-1.5355,-1.5141,-1.4856,-1.4569,-1.4418,-1.3992,-1.3492,-0.7953,-0.7946,-0.7919,-0.7785,-0.775,-0.7925,-0.8461,-0.8324,-0.8316,-0.8813,-0.8659,-0.8613,-0.8829,-0.8823,-0.8857,-0.8956,-0.8857,-0.8804,-0.8804,-0.8804,-0.8857,-0.9008,-0.9113,-0.9263,-0.9413,-0.9413,-0.9465,-0.9614,-0.9562,-0.9758,-1.0192,-1.0463,-1.0792,-1.1225,-1.1505,-1.1622,-1.1622,-1.1622,-1.1685,-1.174,-1.1622,-1.1747,-1.1996,-1.1864,-1.1809,-1.1747,-1.1802,-1.1802,-1.1802,-1.1996,-1.2182,-1.2367,-1.2674,-1.2867,-1.305,-1.3302,-1.3467,-1.3571,-1.3761,-1.389,-1.3959,-1.4207,-1.4327,-1.4336,-1.4446,-1.4515,-1.4515,-1.4515,-1.4515,-1.4515,-1.4515,-1.4515,-1.4565,-1.4666,-1.4556,-1.4565,-1.4666,-1.4715,-1.4715,-1.4775,-1.502,-1.5323,-1.5614,-1.5672,-1.5672,-1.5672,-1.5546,-1.5536,-1.5614,-1.5672,-1.5672,-1.5672,-1.5672,-1.5546,-1.541,-1.5313,-1.5156,-1.5029,-1.5029,-1.4803,-1.4515,-1.4455,-1.456,-1.4736,-1.4577,-1.4711,-1.5026,-1.4807,-1.4844,-1.5043,-1.4838,-1.4665,-1.4497,-1.4057,-1.363,-1.3119,-0.8028,-0.7946,-0.796,-0.8027,-0.8004,-0.8129,-0.8595,-0.8446,-0.833,-0.8447,-0.8259,-0.8164,-0.8316,-0.8599,-0.8811,-0.8804,-0.8804,-0.8804,-0.8804,-0.8804,-0.8857,-0.9008,-0.9113,-0.9263,-0.9413,-0.9413,-0.9465,-0.9614,-0.9465,-0.9821,-1.0521,-1.0565,-1.0909,-1.1556,-1.16,-1.1622,-1.1622,-1.1622,-1.1622,-1.1622,-1.1622,-1.1622,-1.1685,-1.1747,-1.1747,-1.1622,-1.174,-1.1802,-1.1802,-1.1802,-1.2058,-1.2367,-1.2674,-1.2867,-1.3103,-1.3588,-1.3769,-1.3769,-1.395,-1.4079,-1.4267,-1.4267,-1.4396,-1.4455,-1.4515,-1.4515,-1.4515,-1.4515,-1.4515,-1.4515,-1.4515,-1.4515,-1.4506,-1.4506,-1.4506,-1.4506,-1.4506,-1.4606,-1.4775,-1.497,-1.5186,-1.542,-1.542,-1.542,-1.542,-1.542,-1.5604,-1.5604,-1.5478,-1.5604,-1.5614,-1.5478,-1.542,-1.541,-1.541,-1.5362,-1.5313,-1.5156,-1.5039,-1.4803,-1.4515,-1.4396,-1.4363,-1.4366,-1.4214,-1.4216,-1.4209,-1.4065,-1.4209,-1.4466,-1.4258,-1.4159,-1.4129,-1.3557,-1.3193,-1.29,-0.787,-0.7739,-0.7715,-0.782,-0.775,-0.782,-0.8306,-0.8019,-0.7832,-0.8036,-0.7904,-0.7854,-0.7955,-0.841,-0.8685,-0.8685,-0.8752,-0.8804,-0.8804,-0.8804,-0.891,-0.9113,-0.9159,-0.9263,-0.9413,-0.9309,-0.9309,-0.9361,-0.9413,-0.9796,-1.048,-1.053,-1.0938,-1.1622,-1.1622,-1.1622,-1.1622,-1.1622,-1.1622,-1.1685,-1.1622,-1.1685,-1.1872,-1.1809,-1.174,-1.1747,-1.1802,-1.1802,-1.1802,-1.1988,-1.2243,-1.2498,-1.2805,-1.3103,-1.3338,-1.3709,-1.383,-1.395,-1.4139,-1.4207,-1.4327,-1.4387,-1.4455,-1.4515,-1.4515,-1.4515,-1.4515,-1.4515,-1.4515,-1.4515,-1.4515,-1.4515,-1.4515,-1.4515,-1.4515,-1.4506,-1.4616,-1.4784,-1.4961,-1.5196,-1.5488,-1.5662,-1.5546,-1.5662,-1.5662,-1.5546,-1.5546,-1.5586,-1.5762,-1.591,-1.59,-1.5771,-1.6016,-1.6025,-1.5781,-1.6025,-1.603,-1.5908,-1.5546,-1.5068,-1.4606,-1.4387,-1.4333,-1.4417,-1.3978,-1.3882,-1.4078,-1.3721,-1.3653,-1.3862,-1.3899,-1.383,-1.371,-1.3339,-1.2973,-1.2746]}]]